[[{"header":{"parameterUnit":"m.s-1","parameterCategory":1,"la1":30.6,"la2":28.766,"lo1":-90.7593,"lo2":-88.6598,"dx":0.0162,"dy":0.0183,"nx":116,"ny":114,"refTime":"2022-12-25T18:00:00:Z","depth":0,"parameterNumber":2,"parameterNumberName":"U-component_of_WINDS"},"data":[0.0,0.0,0.0,0.0,0.0,0.0,0.0,0.0,0.0,0.0,0.0,0.0,0.0,0.0,0.0,0.0,0.0,0.0,0.0,0.0,0.0,0.0,0.0,0.0,0.0,0.0,0.0,0.0,0.0,0.0,0.0,0.0,0.0,0.0,0.0,0.0,0.0,0.0,0.0,0.0,0.0,0.0,0.0,0.0,0.0,0.0,0.0,0.0,0.0,0.0,0.0,0.0,0.0,0.0,0.0,0.0,0.0,0.0,0.0,0.0,0.0,0.0,0.0,0.0,0.0,0.0,0.0,0.0,0.0,0.0,0.0,0.0,0.0,0.0,0.0,0.0,0.0,0.0,0.0,0.0,0.0,0.0,0.0,0.0,0.0,0.0,0.0,0.0,0.0,0.0,0.0,0.0,0.0,0.0,0.0,0.0,0.0,0.0,0.0,0.0,0.0,0.0,0.0,0.0,0.0,0.0,0.0,0.0,0.0,0.0,0.0,0.0,0.0,0.0,0.0,0.0,0.0,0.0,0.0,0.0,0.0,0.0,0.0,0.0,0.0,0.0,0.0,0.0,0.0,0.0,0.0,0.0,0.0,0.0,0.0,0.0,0.0,0.0,0.0,0.0,0.0,0.0,0.0,0.0,0.0,0.0,0.0,0.0,0.0,0.0,0.0,0.0,0.0,0.0,0.0,0.0,0.0,0.0,0.0,0.0,0.0,0.0,0.0,0.0,0.0,0.0,0.0,0.0,0.0,0.0,0.0,0.0,0.0,0.0,0.0,0.0,0.0,0.0,0.0,0.0,0.0,0.0,0.0,0.0,0.0,0.0,0.0,0.0,0.0,0.0,0.0,0.0,0.0,0.0,0.0,0.0,0.0,0.0,0.0,0.0,0.0,0.0,0.0,0.0,0.0,0.0,0.0,0.0,0.0,0.0,0.0,0.0,0.0,0.0,0.0,0.0,0.0,0.0,0.0,0.0,0.0,0.0,0.0,0.0,0.0,0.0,0.0,0.0,0.0,0.0,0.0,0.0,0.0,0.0,0.0,0.0,0.0,0.0,0.0,0.0,0.0,0.0,0.0,0.0,0.0,0.0,0.0,0.0,0.0,0.0,0.0,0.0,0.0,0.0,0.0,0.0,0.0,0.0,0.0,0.0,0.0,0.0,0.0,0.0,0.0,0.0,0.0,0.0,0.0,0.0,0.0,0.0,0.0,0.0,0.0,0.0,0.0,0.0,0.0,0.0,0.0,0.0,0.0,0.0,0.0,0.0,0.0,0.0,0.0,0.0,0.0,0.0,0.0,0.0,0.0,0.0,0.0,0.0,0.0,0.0,0.0,0.0,0.0,0.0,0.0,0.0,0.0,0.0,0.0,0.0,0.0,0.0,0.0,0.0,0.0,0.0,0.0,0.0,0.0,0.0,0.0,0.0,0.0,0.0,0.0,0.0,0.0,0.0,0.0,0.0,0.0,0.0,0.0,0.0,0.0,0.0,0.0,0.0,0.0,0.0,0.0,0.0,0.0,0.0,0.0,0.0,0.0,0.0,0.0,0.0,0.0,0.0,0.0,0.0,0.0,0.0,0.0,0.0,0.0,0.0,0.0,0.0,0.0,0.0,0.0,0.0,0.0,0.0,0.0,0.0,0.0,0.0,0.0,0.0,0.0,0.0,0.0,0.0,0.0,0.0,0.0,0.0,0.0,0.0,0.0,0.0,0.0,0.0,0.0,0.0,0.0,0.0,0.0,0.0,0.0,0.0,0.0,0.0,0.0,0.0,0.0,0.0,0.0,0.0,0.0,0.0,0.0,0.0,0.0,0.0,0.0,0.0,0.0,0.0,0.0,0.0,0.0,0.0,0.0,0.0,0.0,0.0,0.0,0.0,0.0,0.0,0.0,0.0,0.0,0.0,0.0,0.0,0.0,0.0,0.0,0.0,0.0,0.0,0.0,0.0,0.0,0.0,0.0,0.0,0.0,0.0,0.0,0.0,0.0,0.0,0.0,0.0,0.0,0.0,0.0,0.0,0.0,0.0,0.0,0.0,0.0,0.0,0.0,0.0,0.0,0.0,0.0,0.0,0.0,0.0,0.0,0.0,0.0,0.0,0.0,0.0,0.0,0.0,0.0,0.0,0.0,0.0,0.0,0.0,0.0,0.0,0.0,0.0,0.0,0.0,0.0,0.0,0.0,0.0,0.0,0.0,0.0,0.0,0.0,0.0,0.0,0.0,0.0,0.0,0.0,0.0,0.0,0.0,0.0,0.0,0.0,0.0,0.0,0.0,0.0,0.0,0.0,0.0,0.0,0.0,0.0,0.0,0.0,0.0,0.0,0.0,0.0,0.0,0.0,0.0,0.0,0.0,0.0,0.0,0.0,0.0,0.0,0.0,0.0,0.0,0.0,0.0,0.0,0.0,0.0,0.0,0.0,0.0,0.0,0.0,0.0,0.0,0.0,0.0,0.0,0.0,0.0,0.0,0.0,0.0,0.0,0.0,0.0,0.0,0.0,0.0,0.0,0.0,0.0,0.0,0.0,0.0,0.0,0.0,0.0,0.0,0.0,0.0,0.0,0.0,0.0,0.0,0.0,0.0,0.0,0.0,0.0,0.0,0.0,0.0,0.0,0.0,0.0,0.0,0.0,0.0,0.0,0.0,0.0,0.0,0.0,0.0,0.0,0.0,0.0,0.0,0.0,0.0,0.0,0.0,0.0,0.0,0.0,0.0,0.0,0.0,0.0,0.0,0.0,0.0,0.0,0.0,0.0,0.0,0.0,0.0,0.0,0.0,0.0,0.0,0.0,0.0,0.0,0.0,0.0,0.0,0.0,0.0,0.0,0.0,0.0,0.0,0.0,0.0,0.0,0.0,0.0,0.0,0.0,0.0,0.0,0.0,0.0,0.0,0.0,0.0,0.0,0.0,0.0,0.0,0.0,0.0,0.0,0.0,0.0,0.0,0.0,0.0,0.0,0.0,0.0,0.0,0.0,0.0,0.0,0.0,0.0,0.0,0.0,0.0,0.0,0.0,0.0,0.0,0.0,0.0,0.0,0.0,0.0,0.0,0.0,0.0,0.0,0.0,0.0,0.0,0.0,0.0,0.0,0.0,0.0,0.0,0.0,0.0,0.0,0.0,0.0,0.0,0.0,0.0,0.0,0.0,0.0,0.0,0.0,0.0,0.0,0.0,0.0,0.0,0.0,0.0,0.0,0.0,0.0,0.0,0.0,0.0,0.0,0.0,0.0,0.0,0.0,0.0,0.0,0.0,0.0,0.0,0.0,0.0,0.0,0.0,0.0,0.0,0.0,0.0,0.0,0.0,0.0,0.0,0.0,0.0,0.0,0.0,0.0,0.0,0.0,0.0,0.0,0.0,0.0,0.0,0.0,0.0,0.0,0.0,0.0,0.0,0.0,0.0,0.0,0.0,0.0,0.0,0.0,0.0,0.0,0.0,0.0,0.0,0.0,0.0,0.0,0.0,0.0,0.0,0.0,0.0,0.0,0.0,0.0,0.0,0.0,0.0,0.0,0.0,0.0,0.0,0.0,0.0,0.0,0.0,0.0,0.0,0.0,0.0,0.0,0.0,0.0,0.0,0.0,0.0,0.0,0.0,0.0,0.0,0.0,0.0,0.0,0.0,0.0,0.0,0.0,0.0,0.0,0.0,0.0,0.0,0.0,0.0,0.0,0.0,0.0,0.0,0.0,0.0,0.0,0.0,0.0,0.0,0.0,0.0,0.0,0.0,0.0,0.0,0.0,0.0,0.0,0.0,0.0,0.0,0.0,0.0,0.0,0.0,0.0,0.0,0.0,0.0,0.0,0.0,0.0,0.0,0.0,0.0,0.0,0.0,0.0,0.0,0.0,0.0,0.0,0.0,0.0,0.0,0.0,0.0,0.0,0.0,0.0,0.0,0.0,0.0,0.0,0.0,0.0,0.0,0.0,0.0,0.0,0.0,0.0,0.0,0.0,0.0,0.0,0.0,0.0,0.0,0.0,0.0,0.0,0.0,0.0,0.0,0.0,0.0,0.0,0.0,0.0,0.0,0.0,0.0,0.0,0.0,0.0,0.0,0.0,0.0,0.0,0.0,0.0,0.0,0.0,0.0,0.0,0.0,0.0,0.0,0.0,0.0,0.0,0.0,0.0,0.0,0.0,0.0,0.0,0.0,0.0,0.0,0.0,0.0,0.0,0.0,0.0,0.0,0.0,0.0,0.0,0.0,0.0,0.0,0.0,0.0,0.0,0.0,0.0,0.0,0.0,0.0,0.0,0.0,0.0,0.0,0.0,0.0,0.0,0.0,0.0,0.0,0.0,0.0,0.0,0.0,0.0,0.0,0.0,0.0,0.0,0.0,0.0,0.0,0.0,0.0,0.0,0.0,0.0,0.0,0.0,0.0,0.0,0.0,0.0,0.0,0.0,0.0,0.0,0.0,0.0,0.0,0.0,0.0,0.0,0.0,0.0,0.0,0.0,0.0,0.0,0.0,0.0,0.0,0.0,0.0,0.0,0.0,0.0,0.0,0.0,0.0,0.0,0.0,0.0,0.0,0.0,0.0,0.0,0.0,0.0,0.0,0.0,0.0,0.0,0.0,0.0,0.0,0.0,0.0,0.0,0.0,0.0,0.0,0.0,0.0,0.0,0.0,0.0,0.0,0.0,0.0,0.0,0.0,0.0,0.0,0.0,0.0,0.0,0.0,0.0,0.0,0.0,0.0,0.0,0.0,0.0,0.0,0.0,0.0,0.0,0.0,0.0,0.0,0.0,0.0,0.0,0.0,0.0,0.0,0.0,0.0,0.0,0.0,0.0,0.0,0.0,0.0,0.0,0.0,0.0,0.0,0.0,0.0,0.0,0.0,0.0,0.0,0.0,0.0,0.0,0.0,0.0,0.0,0.0,0.0,0.0,0.0,0.0,0.0,0.0,0.0,0.0,0.0,0.0,0.0,0.0,0.0,0.0,0.0,0.0,0.0,0.0,0.0,0.0,0.0,0.0,0.0,0.0,0.0,0.0,0.0,0.0,0.0,0.0,0.0,0.0,0.0,0.0,0.0,0.0,0.0,0.0,0.0,0.0,0.0,0.0,0.0,0.0,0.0,0.0,0.0,0.0,0.0,0.0,0.0,0.0,0.0,0.0,0.0,0.0,0.0,0.0,0.0,0.0,0.0,0.0,0.0,0.0,0.0,0.0,0.0,0.0,0.0,0.0,0.0,0.0,0.0,0.0,0.0,0.0,0.0,0.0,0.0,0.0,0.0,0.0,0.0,0.0,0.0,0.0,0.0,0.0,0.0,0.0,0.0,0.0,0.0,0.0,0.0,0.0,0.0,0.0,0.0,0.0,0.0,0.0,0.0,0.0,0.0,0.0,0.0,0.0,0.0,0.0,0.0,0.0,0.0,0.0,0.0,0.0,0.0,0.0,0.0,0.0,0.0,0.0,0.0,0.0,0.0,0.0,0.0,0.0,0.0,0.0,0.0,0.0,0.0,0.0,0.0,0.0,0.0,0.0,0.0,0.0,0.0,0.0,0.0,0.0,0.0,0.0,0.0,0.0,0.0,0.0,0.0,0.0,0.0,0.0,0.0,0.0,0.0,0.0,0.0,0.0,0.0,0.0,0.0,0.0,0.0,0.0,0.0,0.0,0.0,0.0,0.0,0.0,0.0,0.0,0.0,0.0,0.0,0.0,0.0,0.0,0.0,0.0,0.0,0.0,0.0,0.0,0.0,0.0,0.0,0.0,0.0,0.0,0.0,0.0,0.0,0.0,0.0,0.0,0.0,0.0,0.0,0.0,0.0,0.0,0.0,0.0,0.0,0.0,0.0,0.0,0.0,0.0,0.0,0.0,0.0,0.0,0.0,0.0,0.0,0.0,0.0,0.0,0.0,0.0,0.0,0.0,0.0,0.0,0.0,0.0,0.0,0.0,0.0,0.0,0.0,0.0,0.0,0.0,0.0,0.0,0.0,0.0,0.0,0.0,0.0,0.0,0.0,0.0,0.0,0.0,0.0,0.0,0.0,0.0,0.0,0.0,0.0,0.0,0.0,0.0,0.0,0.0,0.0,0.0,0.0,0.0,0.0,0.0,0.0,0.0,0.0,0.0,0.0,0.0,0.0,-3.0215,-2.875,0.0,0.0,0.0,0.0,0.0,0.0,0.0,0.0,0.0,0.0,0.0,0.0,0.0,0.0,0.0,0.0,0.0,0.0,0.0,0.0,0.0,0.0,0.0,0.0,0.0,0.0,0.0,0.0,0.0,0.0,0.0,0.0,0.0,0.0,0.0,0.0,-2.5335,-2.5586,-2.6967,-2.8064,-2.8827,-2.7957,-2.6968,-2.5968,0.0,0.0,0.0,0.0,0.0,0.0,0.0,0.0,0.0,0.0,0.0,0.0,0.0,0.0,0.0,0.0,0.0,0.0,0.0,0.0,0.0,0.0,0.0,0.0,0.0,0.0,0.0,0.0,0.0,0.0,0.0,0.0,0.0,0.0,0.0,0.0,0.0,0.0,0.0,0.0,0.0,0.0,0.0,0.0,0.0,0.0,0.0,0.0,0.0,0.0,0.0,0.0,0.0,0.0,0.0,0.0,0.0,0.0,0.0,0.0,0.0,0.0,0.0,0.0,0.0,0.0,0.0,0.0,0.0,0.0,-3.2129,-3.0918,0.0,0.0,0.0,0.0,0.0,0.0,0.0,0.0,0.0,0.0,0.0,0.0,0.0,0.0,0.0,0.0,0.0,0.0,0.0,0.0,0.0,0.0,0.0,0.0,-2.4104,-2.4004,-2.4506,-2.46,0.0,0.0,0.0,0.0,0.0,0.0,0.0,-2.5435,-2.654,-2.757,-2.8961,-3.0212,-3.1383,-3.116,-3.0107,-2.8304,-2.7034,0.0,0.0,0.0,0.0,0.0,0.0,0.0,0.0,0.0,0.0,0.0,0.0,0.0,0.0,0.0,0.0,0.0,0.0,0.0,0.0,0.0,0.0,0.0,0.0,0.0,0.0,0.0,0.0,0.0,0.0,0.0,0.0,0.0,0.0,0.0,0.0,0.0,0.0,0.0,0.0,0.0,0.0,0.0,0.0,0.0,0.0,0.0,0.0,0.0,0.0,0.0,0.0,0.0,0.0,0.0,0.0,0.0,0.0,0.0,0.0,0.0,0.0,0.0,-3.373,-3.4219,-3.5039,-3.4687,-3.5156,-3.6113,-3.3906,-3.3223,-3.3535,-3.2051,0.0,0.0,0.0,0.0,0.0,0.0,0.0,0.0,0.0,0.0,0.0,0.0,0.0,0.0,0.0,0.0,0.0,0.0,0.0,0.0,0.0,-2.4048,-2.4531,-2.4029,-2.4506,-2.475,0.0,0.0,0.0,0.0,0.0,0.0,-2.5385,-2.6967,-2.8072,-2.8687,-3.1217,-3.3262,-3.4797,-3.3761,-3.3101,-3.2735,-2.9806,-2.8693,-2.8854,0.0,0.0,0.0,0.0,0.0,0.0,0.0,0.0,0.0,0.0,0.0,0.0,0.0,0.0,0.0,0.0,0.0,0.0,0.0,0.0,0.0,0.0,0.0,0.0,0.0,0.0,0.0,0.0,0.0,0.0,0.0,0.0,0.0,0.0,0.0,0.0,0.0,0.0,0.0,0.0,0.0,-2.832,-2.8066,0.0,0.0,0.0,0.0,0.0,0.0,0.0,0.0,0.0,0.0,0.0,0.0,0.0,-3.2715,-3.3086,-3.3633,-3.4121,-3.4531,-3.4941,-3.5586,-3.6406,-3.6348,-3.6621,-3.709,-3.6387,0.0,-3.4492,-3.3887,0.0,0.0,0.0,0.0,0.0,0.0,0.0,0.0,0.0,0.0,0.0,0.0,0.0,0.0,0.0,0.0,0.0,0.0,0.0,0.0,0.0,-2.5711,-2.6364,-2.6706,-2.7293,-2.7344,-2.6716,-2.6967,0.0,0.0,0.0,-2.7208,-2.7469,-2.9402,-3.1311,-3.3144,-3.4895,-3.6186,-3.6812,-3.559,-3.5038,-3.4857,-3.2227,-3.0543,-2.9661,-2.7839,0.0,0.0,0.0,0.0,0.0,0.0,0.0,0.0,0.0,0.0,0.0,0.0,0.0,0.0,0.0,0.0,0.0,0.0,0.0,0.0,0.0,0.0,0.0,0.0,0.0,0.0,0.0,0.0,0.0,0.0,0.0,0.0,0.0,0.0,0.0,0.0,0.0,0.0,0.0,-2.8377,-2.9023,-2.9316,-2.9766,-3.0039,0.0,0.0,0.0,0.0,0.0,0.0,0.0,0.0,0.0,-3.3848,-3.4121,-3.457,-3.5234,-3.543,-3.5742,-3.6152,-3.6367,-3.6777,-3.7383,-3.7383,-3.7617,-3.7988,-3.7559,-3.7051,-3.6426,-3.5293,-3.5137,-3.5527,0.0,0.0,0.0,0.0,-3.4648,-3.4531,0.0,0.0,0.0,0.0,0.0,0.0,0.0,0.0,0.0,0.0,0.0,0.0,-2.6575,-2.758,-2.8473,-2.9277,-2.988,-2.9854,-2.9001,-2.9327,0.0,-2.8373,-2.9126,-2.959,-2.9715,-3.1897,-3.4374,-3.7036,-3.7668,-3.8101,-3.8227,-3.6763,-3.6061,-3.5889,-3.3928,-3.2246,-3.0675,-2.9086,-2.8462,-2.8388,0.0,0.0,0.0,0.0,0.0,0.0,0.0,0.0,0.0,0.0,0.0,0.0,0.0,0.0,0.0,0.0,0.0,0.0,0.0,0.0,0.0,0.0,0.0,0.0,0.0,0.0,0.0,0.0,0.0,0.0,0.0,0.0,0.0,0.0,0.0,0.0,0.0,-2.9656,-3.0195,-3.0937,-3.1387,-3.1838,0.0,0.0,0.0,0.0,0.0,0.0,-3.3437,-3.4062,-3.4648,-3.5195,-3.5547,-3.6074,-3.6816,-3.7051,-3.7324,-3.7637,-3.7851,-3.8125,-3.8437,-3.8437,-3.8613,-3.8887,-3.8574,-3.8437,-3.8301,-3.6582,-3.6445,-3.7207,-3.625,-3.6074,-3.6328,-3.6113,-3.582,-3.5625,0.0,0.0,0.0,0.0,0.0,0.0,0.0,0.0,0.0,0.0,0.0,-2.7178,-2.7243,-2.9151,-3.0482,-3.0532,-3.1009,-3.1286,-3.1235,-3.126,-3.1235,-3.1185,-3.1235,-3.1512,-3.2039,-3.4179,-3.6436,-3.8793,-3.8188,-3.8383,-3.9307,-3.7087,-3.5925,-3.5736,-3.4543,-3.3738,-3.3053,-3.0822,-3.0636,-3.1622,-2.9757,0.0,0.0,0.0,0.0,0.0,0.0,0.0,0.0,0.0,0.0,0.0,0.0,0.0,0.0,0.0,0.0,0.0,0.0,0.0,0.0,0.0,0.0,0.0,0.0,0.0,0.0,0.0,0.0,0.0,0.0,0.0,0.0,0.0,0.0,0.0,0.0,0.0,0.0,-3.3203,-3.3615,0.0,0.0,0.0,0.0,-3.4009,-3.4004,-3.4375,-3.5215,-3.5293,-3.5703,-3.6543,-3.6601,-3.6816,-3.7266,-3.8066,-3.8496,-3.8516,-3.9355,-3.9766,-3.9805,-3.9805,-3.9805,-3.9824,-3.9805,-3.9805,-3.9668,-3.793,-3.7246,-3.7285,-3.7226,-3.7226,-3.7285,-3.7656,-3.7773,-3.7832,0.0,0.0,0.0,0.0,0.0,-2.1007,-2.1197,-2.1995,-2.3125,-2.4531,-2.6214,-2.7821,-2.9277,-3.1085,-3.234,-3.2692,-3.3545,-3.3922,-3.3571,-3.4525,-3.4801,-3.4053,-3.4399,-3.4896,-3.5403,-3.691,-3.8417,-3.9923,-4.0028,-4.0458,-4.115,-3.8989,-3.8168,-3.8342,-3.6276,-3.5128,-3.459,-3.2892,-3.2292,-3.2354,-3.1082,-2.991,0.0,0.0,0.0,0.0,0.0,0.0,0.0,0.0,0.0,0.0,0.0,0.0,0.0,0.0,0.0,0.0,0.0,0.0,0.0,0.0,0.0,0.0,0.0,0.0,0.0,0.0,0.0,0.0,0.0,0.0,0.0,0.0,0.0,0.0,0.0,0.0,0.0,-3.4152,-3.4808,0.0,-3.5633,-3.5706,-3.5554,-3.5312,-3.5586,-3.5879,-3.6191,-3.6738,-3.7285,-3.7871,-3.8164,-3.8516,-3.8965,-3.9277,-3.9434,-3.9434,-3.9746,-3.9902,-3.9902,-3.9902,-3.9902,-3.9902,-3.9902,-3.9902,-3.9844,-3.9219,-3.8965,-3.8965,-3.8965,-3.8965,-3.8984,-3.9141,-3.9199,-3.9258,0.0,0.0,0.0,0.0,-2.0936,-2.1219,-2.192,-2.2523,-2.3678,-2.5862,-2.7143,-2.875,-3.1185,-3.2742,-3.3922,-3.4675,-3.5403,-3.5655,-3.5303,-3.6307,-3.6584,-3.5855,-3.6332,-3.7134,-3.8015,-3.8768,-3.9772,-4.1078,-4.163,-4.1718,-4.1395,-4.02,-3.9364,-3.8785,-3.7086,-3.6183,-3.5811,-3.459,-3.3824,-3.3327,-3.2271,-3.136,-3.0532,0.0,0.0,0.0,0.0,0.0,0.0,0.0,0.0,0.0,0.0,0.0,0.0,0.0,0.0,0.0,0.0,0.0,0.0,0.0,0.0,0.0,0.0,0.0,0.0,0.0,0.0,0.0,0.0,0.0,0.0,0.0,0.0,0.0,0.0,-3.3576,-3.4662,-3.5211,-3.6007,-3.671,-3.7388,-3.728,-3.7171,-3.7075,-3.749,-3.7735,-3.7732,-3.8419,-3.8857,-3.9004,-3.9297,-3.959,-3.9883,-4.0039,-4.0098,-4.0098,-4.0254,-4.0332,-4.0332,-4.0332,-4.041,-4.0527,-4.0527,-4.0625,-4.0742,-4.0742,-4.0742,-4.0703,-4.0117,-3.9902,-3.9922,-4.0059,-4.0098,-4.0176,0.0,0.0,0.0,-2.1511,-2.1446,-2.187,-2.292,-2.3602,-2.4782,-2.7017,-2.8247,-2.998,-3.2767,-3.4073,-3.5177,-3.6279,-3.6405,-3.643,-3.643,-3.6455,-3.648,-3.648,-3.7008,-3.8015,-3.9647,-3.9722,-4.0526,-4.2213,-4.2766,-4.1988,-4.0057,-4.054,-3.9437,-3.6997,-3.6974,-3.691,-3.6827,-3.5873,-3.5231,-3.4754,-3.3327,-3.3016,-3.3161,0.0,0.0,0.0,0.0,0.0,0.0,0.0,0.0,0.0,0.0,0.0,0.0,0.0,0.0,0.0,0.0,0.0,0.0,0.0,0.0,0.0,0.0,0.0,0.0,0.0,0.0,0.0,0.0,0.0,0.0,0.0,0.0,0.0,-3.3397,-3.4768,-3.6037,-3.6435,-3.7327,-3.8194,-3.9081,-3.8708,-3.8628,-3.907,-3.9605,-3.983,-3.981,-4.0246,-4.0334,-3.9922,-3.9922,-3.9922,-3.9941,-4.0351,-4.0566,-4.0566,-4.0996,-4.1211,-4.1211,-4.1211,-4.1426,-4.1816,-4.1816,-4.2051,-4.2422,-4.2422,-4.2422,-4.2266,-4.0605,-3.998,-4.0019,-4.043,-4.0586,-4.0644,-2.3994,-2.2408,-2.114,-2.1355,-2.1446,-2.1719,-2.2422,-2.297,-2.4424,-2.7494,-2.8499,-2.998,-3.2767,-3.4424,-3.5408,-3.5708,-3.6483,-3.696,-3.696,-3.7713,-3.824,-3.824,-3.8366,-3.8818,-3.9672,-4.0475,-4.1304,-4.2213,-4.3112,-4.3298,-4.2757,-4.2688,-4.2268,-4.153,-3.9966,-3.911,-3.8701,-3.7463,-3.666,-3.608,-3.4383,-3.3762,-3.3741,0.0,0.0,0.0,0.0,0.0,0.0,0.0,0.0,0.0,0.0,0.0,0.0,0.0,0.0,0.0,0.0,0.0,0.0,0.0,0.0,0.0,0.0,0.0,0.0,0.0,0.0,0.0,0.0,0.0,0.0,0.0,-3.5387,-3.6265,-3.5614,-3.6693,-3.7878,-3.871,-3.9265,-3.9634,-3.9922,-4.0166,-4.0185,-4.0089,-4.0512,-4.0612,-4.0286,-4.0704,-4.0773,-4.0351,-4.0636,-4.0794,-4.082,-4.123,-4.1445,-4.1445,-4.1875,-4.209,-4.209,-4.209,-4.2148,-4.2266,-4.2266,-4.2324,-4.2422,-4.2422,-4.2422,-4.2383,-4.1914,-4.1738,-4.1738,-4.1855,-4.1894,-4.1914,-2.38,-2.2424,-2.1381,-2.1428,-2.1488,-2.192,-2.3175,-2.3195,-2.4474,-2.8323,-2.8875,-3.0116,-3.342,-3.4826,-3.5583,-3.5855,-3.6458,-3.6835,-3.6835,-3.7511,-3.819,-3.8894,-3.8919,-3.9446,-4.0701,-4.1354,-4.2057,-4.2836,-4.3714,-4.3954,-4.3595,-4.3711,-4.3487,-4.2871,-4.1579,-4.0918,-4.0565,-3.9558,-3.9,-3.8631,-3.7432,-3.6033,-3.4507,-3.341,-3.2996,-3.2871,-3.1899,-3.1464,-3.136,-3.1278,0.0,0.0,0.0,0.0,0.0,0.0,0.0,0.0,0.0,0.0,0.0,0.0,0.0,0.0,0.0,0.0,0.0,0.0,0.0,0.0,0.0,0.0,0.0,0.0,-3.6889,-3.7791,-3.8044,-3.8603,-3.9199,-3.9589,-3.998,-4.037,-4.0843,-4.0913,-4.1065,-4.1175,-4.1603,-4.1698,-4.1269,-4.1676,-4.1751,-4.1345,-4.1731,-4.1872,-4.1699,-4.2111,-4.2229,-4.207,-4.2305,-4.2422,-4.2422,-4.2422,-4.2519,-4.2695,-4.2695,-4.2793,-4.2969,-4.2969,-4.2969,0.0,0.0,0.0,0.0,0.0,-4.2812,-4.2969,-2.3789,-2.2804,-2.2055,-2.1587,-2.1499,-2.2196,-2.4274,-2.3747,-2.47,-2.9202,-2.9227,-3.0292,-3.4254,-3.5107,-3.5705,-3.6355,-3.6455,-3.6505,-3.6505,-3.643,-3.7134,-3.8743,-3.8894,-3.9925,-4.2062,-4.2187,-4.2766,-4.379,-4.4342,-4.4308,-4.3663,-4.4255,-4.3879,-4.2667,-4.2517,-4.2454,-4.2368,-4.1844,-4.1621,-4.1644,-4.113,-3.8948,-3.5849,-3.4631,-3.4206,-3.4085,-3.3581,-3.291,-3.2377,-3.2658,0.0,0.0,0.0,0.0,0.0,0.0,0.0,0.0,0.0,0.0,0.0,0.0,0.0,0.0,0.0,0.0,0.0,0.0,0.0,0.0,0.0,0.0,0.0,0.0,-3.8419,-3.922,-4.0046,-4.0323,-4.022,-3.9827,-4.0185,-4.0792,-4.1607,-4.1398,-4.153,-4.2311,-4.2745,-4.281,-4.2494,-4.2861,0.0,0.0,0.0,-4.298,-4.2582,-4.3041,-4.3061,-4.266,-4.2639,-4.2658,-4.2658,-4.2658,-4.2954,-4.3307,-4.3226,-4.3441,-4.3876,-4.3711,-4.373,-4.3711,-4.2891,-4.2578,-4.2617,-4.3008,-4.3379,-4.3711,-2.468,-2.2671,-2.1111,-2.1379,-2.1441,-2.1945,-2.3221,-2.3246,-2.47,-2.9202,-2.89,-2.9905,-3.4204,-3.4781,-3.5278,-3.6329,-3.6807,-3.7036,-3.7036,-3.6656,-3.6958,-3.8115,-3.8617,-3.9697,-4.1455,-4.1932,-4.2766,-4.379,-4.4342,-4.4803,-4.5116,-4.5665,-4.5793,-4.5464,-4.4374,-4.3855,-4.3793,-4.2613,-4.2379,-4.2742,-4.1736,-4.0754,-3.9733,-3.9137,-3.8866,-3.8752,-3.7846,-3.7665,-3.7801,-3.7346,-3.6454,-3.5323,-3.471,-3.3707,0.0,0.0,0.0,0.0,0.0,0.0,0.0,0.0,0.0,0.0,0.0,0.0,0.0,0.0,0.0,0.0,0.0,0.0,0.0,-3.8497,-3.9351,-4.0013,-4.0199,-4.0862,-4.1276,-4.1193,-4.1266,-4.1534,-4.2083,-4.2381,-4.2629,-4.2787,-4.3221,-4.3407,-4.3412,-4.3824,-4.3817,-4.3478,-4.3913,-4.3954,-4.3559,-4.398,-4.406,-4.4,-4.436,0.0,-4.4458,-4.4458,-4.4518,-4.4578,-4.4333,-4.4373,-4.4718,-4.3958,-4.3926,-4.4219,-4.3672,-4.3457,-4.3457,-4.3555,-4.3633,-4.3711,-2.5478,-2.33,-2.1564,-2.1851,-2.1922,-2.2155,-2.2975,-2.3095,-2.4399,-2.8072,-2.8298,-2.9377,-3.2692,-3.3822,-3.4525,-3.5077,-3.5881,-3.6483,-3.6807,-3.6556,-3.7033,-3.8391,-3.8718,-3.9772,-4.1706,-4.2062,-4.2891,-4.4217,-4.4493,-4.507,-4.5899,-4.6175,-4.6301,-4.6266,-4.5883,-4.5675,-4.5699,-4.5237,-4.5252,-4.5444,-4.4914,-4.4446,-4.3684,-4.067,-3.9081,-3.8419,-3.7938,-3.7763,-3.7675,-3.7134,-3.641,-3.5734,-3.5888,-3.554,-3.4911,0.0,0.0,0.0,0.0,0.0,0.0,0.0,0.0,0.0,0.0,0.0,0.0,0.0,0.0,-3.757,-3.7777,0.0,-3.9199,-3.9426,-4.0303,-4.0903,-4.0903,-4.1483,-4.1814,-4.1659,-4.1772,-4.2083,-4.2538,-4.2787,-4.3118,-4.3573,-4.3822,-4.4076,-4.4317,-4.4572,-4.4543,-4.4339,-4.4778,-4.48,-4.4382,-4.4846,-4.4947,-4.4704,-4.4945,-4.4964,-4.4964,-4.4964,-4.4964,-4.4984,-4.502,-4.5183,-4.5305,-4.5091,-4.5163,-4.5341,-4.5103,-4.4774,-4.4355,-4.4355,-4.4355,-4.4355,-2.6071,-2.4176,-2.2549,-2.2406,-2.2245,-2.2257,-2.2707,-2.2869,-2.3948,-2.6766,-2.7519,-2.8699,-3.1135,-3.2692,-3.3746,-3.4173,-3.5127,-3.5881,-3.638,-3.6405,-3.7109,-3.8693,-3.8919,-3.9901,-4.1861,-4.2196,-4.2972,-4.4292,-4.4576,-4.5204,-4.615,-4.625,-4.6301,-4.6326,-4.6778,-4.6918,-4.6943,-4.7431,-4.7707,-4.7883,-4.7682,-4.727,-4.6341,-4.166,-3.9349,-3.8591,-3.8505,-3.8159,-3.7684,-3.7187,-3.6678,-3.6355,-3.72,-3.7325,-3.7044,-3.6161,-3.7039,0.0,0.0,0.0,0.0,0.0,0.0,0.0,0.0,-3.6159,-3.7218,-3.7322,-3.8005,-3.8709,-3.9164,-3.9558,-3.9992,-4.053,-4.1151,-4.1607,-4.169,-4.2104,-4.2249,-4.1876,-4.2166,-4.2559,-4.3014,-4.3056,-4.3408,-4.4236,-4.4298,-4.4546,-4.5105,-4.5126,-4.5174,-4.5227,-4.5649,-4.5674,-4.5291,-4.5617,-4.5617,-4.5291,-4.5291,-4.5331,-4.5432,-4.5432,-4.5473,-4.5554,-4.5898,-4.5976,-4.583,-4.636,-4.6562,-4.6558,-4.6558,-4.6111,-4.551,-4.5333,-4.5274,-4.5274,-2.6159,-2.4998,-2.3618,-2.2517,-2.1849,-2.156,-2.1652,-2.2096,-2.3401,-2.6223,-2.665,-2.7882,-3.1035,-3.1989,-3.3194,-3.5132,-3.5906,-3.6355,-3.6405,-3.6405,-3.6933,-3.804,-3.8868,-3.9702,-4.0676,-4.2141,-4.3034,-4.3162,-4.4428,-4.5262,-4.5598,-4.6075,-4.6301,-4.6301,-4.6376,-4.6401,-4.6401,-4.6451,-4.7029,-4.7832,-4.6878,-4.6328,-4.5876,-4.4304,-4.4328,-4.5182,-4.4689,-4.4146,-4.3604,-4.3037,-4.204,-4.108,-4.0803,-3.9721,-3.8535,-3.8245,-3.7462,-3.6685,-3.65,-3.6147,-3.6077,-3.6785,-3.6768,-3.6846,0.0,-3.8166,-3.8662,-3.9075,-3.964,-4.0137,-4.0572,-4.0696,-4.1007,-4.1897,-4.1772,-4.1783,-4.2198,-4.2559,-4.2828,-4.2766,-4.2807,-4.3035,-4.3491,-4.3532,-4.376,-4.4256,-4.4298,-4.4691,-4.5561,-4.5602,-4.5809,-4.6184,-4.6184,-4.6225,-4.6185,-4.6185,-4.6185,-4.6185,-4.6185,-4.6391,-4.6804,-4.6804,-4.701,-4.7361,-4.7423,-4.7027,-4.6357,-4.6837,-4.6997,-4.6917,-4.6917,-4.7093,-4.7287,-4.657,-4.6269,-4.6269,-2.6895,-2.6138,-2.5065,-2.379,-2.2664,-2.1926,-2.1997,-2.2286,-2.3314,-2.5704,-2.6095,-2.6914,-2.8987,-3.0211,-3.1741,-3.3817,-3.4558,-3.5097,-3.5562,-3.6214,-3.6947,-3.7756,-3.8558,-3.9497,-4.0464,-4.1487,-4.2483,-4.3462,-4.4056,-4.4922,-4.6002,-4.6256,-4.6417,-4.6626,-4.711,-4.7142,-4.6803,-4.7313,-4.7691,-4.7857,-4.7431,-4.6822,-4.6106,-4.5637,-4.5594,-4.562,-4.3796,-4.2567,0.0,0.0,-4.1401,-4.0892,-4.1814,-4.1674,-4.0847,-3.9585,-3.9907,-4.0503,-3.937,-3.8723,-3.826,-3.7912,-3.8089,-3.8419,-3.8543,-3.9123,-3.9702,-3.9889,-4.0489,-4.0986,-4.0882,-4.1317,-4.171,-4.1835,-4.2124,-4.2414,-4.2621,-4.3035,-4.3325,-4.3325,-4.3325,-4.3387,-4.3594,-4.3615,-4.3905,-4.465,-4.4712,-4.5105,-4.6016,-4.6078,-4.6161,-4.6266,-4.6266,-4.6266,-4.6266,-4.6266,-4.6411,-4.674,-4.674,-4.6989,-4.7424,-4.7424,-4.7651,-4.8086,-4.8086,-4.8062,-4.7991,-4.814,-4.8264,-4.8257,-4.8257,-4.838,-4.8417,-4.7536,-4.7138,-4.7138,-2.7199,-2.6751,-2.6029,-2.4743,-2.3485,-2.2565,-2.2246,-2.2429,-2.3124,-2.4648,-2.5179,-2.603,-2.7468,-2.9237,-3.0839,-3.2071,-3.3335,-3.4262,-3.4622,-3.5862,-3.6904,-3.7642,-3.8338,-3.9128,-4.003,-4.0849,-4.1877,-4.3102,-4.3698,-4.4622,-4.595,-4.6103,-4.6269,-4.6467,-4.7087,-4.7087,-4.6692,-4.7339,-4.7531,-4.7352,-4.7201,-4.6688,-4.605,-4.5723,-4.5271,-4.4561,-4.2712,-4.1563,-4.0975,0.0,-4.0987,-4.0775,-4.2345,-4.2729,-4.2217,-4.0564,-4.1622,-4.3029,-4.2006,-4.1529,-4.1119,-4.0323,-4.0216,-4.024,-3.9904,-4.0104,-4.0406,-4.0386,-4.1007,-4.1462,-4.1131,-4.171,-4.226,-4.1979,-4.2497,-4.2973,-4.3097,-4.3408,-4.3656,-4.378,-4.3801,-4.3842,-4.3987,-4.3884,-4.4194,-4.5105,-4.5188,-4.5519,-4.6225,-4.6266,-4.6266,-4.6266,-4.6266,-4.6266,-4.6266,-4.639,-4.6617,-4.703,-4.7154,-4.7444,-4.7879,-4.8003,-4.8252,-4.8562,-4.8562,-4.8748,-4.9059,-4.9059,-4.9059,-4.9059,-4.9059,-4.9059,-4.8973,-4.8306,-4.8134,-4.8134,-2.6574,-2.6451,-2.6064,-2.4722,-2.3997,-2.3124,-2.1907,-2.2217,-2.2598,-2.2671,-2.3675,-2.5227,-2.7549,-2.9806,-3.0931,-3.042,-3.2874,-3.4297,-3.376,-3.534,-3.6801,-3.7855,-3.8217,-3.8549,-3.8877,-4.0452,-4.1334,-4.1362,-4.3349,-4.4458,-4.474,-4.5252,-4.5508,-4.5534,-4.5591,-4.5559,-4.5559,-4.5559,-4.5719,-4.591,-4.5411,-4.5337,-4.5397,-4.4292,-4.3539,-4.3112,-4.3582,-4.3701,-4.3601,-4.3075,-4.2604,-4.2228,-4.2805,-4.2454,-4.1739,-4.122,-4.1495,-4.2307,-4.4037,-4.4326,-4.4295,-4.4774,-4.3585,-4.2286,-4.2264,-4.1544,-4.0862,-4.0862,-4.1234,-4.1638,-4.1545,-4.1938,-4.2393,-4.2807,-4.2911,-4.3077,-4.3532,-4.3594,-4.378,-4.4236,-4.4277,-4.4463,-4.4898,-4.4546,-4.467,-4.5602,-4.5664,-4.5871,-4.6246,-4.6266,-4.6266,-4.6266,-4.6266,-4.6266,-4.6266,-4.6721,-4.703,-4.7051,-4.7465,-4.79,-4.8376,-4.881,-4.9038,-4.9038,-4.9038,-4.9059,-4.9059,-4.9059,-4.9059,-4.9059,-4.9059,-4.9059,-4.9059,-4.9059,-4.9059,-4.9059,-2.7265,-2.6852,-2.6406,-2.5963,-2.4974,-2.413,-2.3687,-2.2856,-2.2631,-2.3661,-2.4605,0.0,0.0,0.0,0.0,0.0,-3.128,-3.2598,-3.3302,-3.4994,-3.6464,-3.7598,-3.822,-3.8808,-3.931,-4.0233,-4.0911,-4.1308,-4.2346,-4.3361,-4.4191,-4.4372,-4.4701,-4.5201,-4.5451,-4.5546,-4.554,-4.5768,-4.5757,-4.5598,-4.5062,-4.4673,-4.4331,-4.395,-4.3356,-4.2684,0.0,-4.2095,-4.1706,-4.2313,-4.2363,-4.2363,-4.3237,-4.3604,-4.373,-4.3961,-4.416,-4.4388,-4.4829,-4.5358,-4.5693,-4.4953,-4.4497,-4.4256,-4.4256,-4.3291,-4.2327,-4.2327,-4.1699,-4.111,-4.111,-4.1483,-4.1938,-4.2414,-4.2725,-4.3077,-4.3553,-4.3884,-4.4132,-4.4277,-4.4567,-4.494,-4.5416,-4.5022,-4.5022,-4.5643,-4.5685,-4.5871,-4.6246,-4.6266,-4.6266,-4.6266,-4.6266,-4.6411,-4.6721,-4.6886,-4.7341,-4.792,-4.8376,-4.8686,-4.8831,-4.8997,-4.9059,-4.9059,-4.9059,-4.9059,-4.9059,-4.9059,-4.9059,-4.9059,-4.9059,-4.9059,-4.91,-4.9411,-4.9514,-4.9514,0.0,-2.7255,-2.6956,-2.6956,-2.6063,0.0,0.0,0.0,0.0,0.0,0.0,0.0,0.0,0.0,0.0,0.0,0.0,-3.1746,-3.2356,-3.4199,-3.5643,-3.6371,-3.7286,-3.8057,-3.8658,-3.9233,-3.9991,-4.0984,-4.1585,-4.2448,-4.3572,-4.3572,-4.3857,-4.4344,-4.4587,-4.4661,-4.4613,-4.4834,-4.4956,-4.496,-4.401,-4.3595,-4.3435,-4.2846,-4.2279,0.0,-4.1459,-4.0893,-4.0455,-4.1307,-4.158,-4.1731,-4.2635,-4.3438,-4.4267,-4.5447,-4.5924,-4.612,-4.6363,-4.7042,-4.7442,-4.6592,-4.6143,-4.5999,-4.5999,-4.4504,-4.3236,-4.3769,-4.2386,-4.1284,-4.1594,-4.1865,-4.2042,-4.2021,-4.2518,-4.3077,-4.3553,-4.3863,-4.4236,-4.4733,-4.5064,-4.5416,-4.5871,-4.5643,-4.5602,-4.5892,-4.5912,-4.6037,-4.6246,-4.6266,-4.6349,-4.6493,-4.6514,-4.6823,-4.7258,-4.7444,-4.79,-4.8624,-4.8914,-4.9059,-4.9059,-4.9059,-4.9059,-4.9059,-4.9059,-4.9059,-4.9059,-4.9059,-4.9162,-4.9307,-4.9307,-4.9411,-4.9576,-4.9887,-4.999,-4.999,0.0,0.0,-2.7555,0.0,0.0,0.0,0.0,0.0,0.0,0.0,0.0,0.0,0.0,0.0,0.0,0.0,0.0,0.0,-3.1086,-3.3104,-3.4345,-3.4439,-3.5512,-3.6358,-3.6933,-3.756,-3.8632,-4.0252,-4.088,-4.1742,-4.2814,-4.284,-4.2866,-4.2892,-4.2892,-4.2892,-4.2944,-4.2944,-4.3413,-4.4002,-4.232,-4.2137,-4.2669,-4.1132,-4.0491,-4.0414,-4.044,-4.0287,-4.0083,-4.0354,-4.0475,-4.0651,-4.1275,-4.2258,-4.3539,-4.5748,-4.6778,-4.7456,-4.851,-4.9188,-4.959,-4.959,-4.8567,-4.7491,-4.7515,-4.5346,-4.3722,-4.5074,-4.3425,-4.2078,-4.3066,-4.3082,-4.2687,-4.1897,-4.2405,-4.3056,-4.3573,-4.3677,-4.4174,-4.5519,-4.5705,-4.5892,-4.6225,-4.6347,-4.6428,-4.6428,-4.6347,-4.6266,-4.6266,-4.6449,-4.6656,-4.7092,-4.7133,-4.7361,-4.788,-4.8274,-4.8709,-4.923,-4.9144,-4.9059,-4.9059,-4.923,-4.9144,-4.9059,-4.9251,-4.9186,-4.91,-4.9121,-4.9476,-4.9957,-4.9957,-5.0227,-5.0601,-5.0534,-5.0534,-5.0446,0.0,0.0,0.0,0.0,0.0,0.0,0.0,0.0,0.0,0.0,0.0,0.0,0.0,0.0,0.0,0.0,0.0,0.0,-3.1792,-3.2657,-3.3766,-3.5142,-3.54,-3.5757,-3.6332,-3.6933,-3.7456,-3.7874,-3.8893,-3.952,-3.9808,-4.0278,-4.0697,-4.1089,-4.1089,-4.1324,-4.1742,-4.1742,-4.1874,-4.2006,-4.1069,-4.0887,-4.0995,-4.0603,-4.0039,-3.9582,-3.9971,-3.9693,-3.919,-3.9525,-4.0003,-4.0978,-4.3614,-4.4618,-4.5196,-4.6979,-4.7908,-4.851,-4.9188,-4.949,-4.959,-4.959,-4.9332,-4.9147,-4.9569,-4.7913,-4.652,-4.7326,-4.5528,-4.4141,-4.5163,-4.3827,-4.2926,-4.4163,-4.3289,-4.2828,-4.3967,-4.4422,-4.4898,-4.5602,-4.5975,-4.6223,-4.6246,-4.7432,-4.8129,-4.8129,-4.7052,-4.6266,-4.6266,-4.7831,-4.879,-4.892,-4.9243,-4.9653,-5.0127,-4.9301,-4.9595,-5.1032,-4.9721,-4.9059,-4.9144,-5.0464,-5.0294,-4.9165,-5.0826,-5.0825,-4.9597,-4.9928,-5.0986,-5.2348,-5.2348,-5.2434,-5.2499,-5.2844,-5.2118,-5.1162,0.0,0.0,0.0,0.0,0.0,0.0,0.0,0.0,0.0,0.0,0.0,0.0,0.0,0.0,0.0,0.0,0.0,0.0,0.0,-3.158,-3.2446,-3.3549,-3.426,-3.4771,-3.4999,-3.5891,-3.6445,-3.6619,-3.7508,-3.8109,-3.837,-3.871,-3.9024,-3.9311,-3.9311,-3.9494,-3.9808,-3.9808,-4.0095,0.0,0.0,-3.9233,-3.9625,-3.9102,-3.8799,-3.8683,-3.9228,-3.9421,-3.9436,-4.0109,-4.0736,-4.1681,-4.4292,-4.5271,-4.5799,-4.7431,-4.8309,-4.8887,-4.9439,-4.959,-4.959,-4.959,-4.959,-4.9665,-4.9992,-4.8657,-4.7648,-4.8338,-4.6381,-4.4951,-4.6414,-4.4662,-4.3289,-4.4479,-4.3519,-4.289,-4.3863,-4.4999,-4.6131,-4.6944,-4.7899,-4.8504,-4.8504,-4.9371,-4.9987,-5.021,-4.9166,-4.8612,-4.8808,-5.0025,-5.0915,-5.134,-5.1586,-5.1966,-5.2481,-5.1695,-5.1514,-5.1682,-5.1514,-5.0948,-5.0294,-5.2099,-5.2042,-5.0613,-5.187,-5.1937,-5.1335,-5.1503,-5.2823,-5.4696,-5.4696,-5.483,-5.5053,-5.5344,-5.4761,-5.4018,0.0,0.0,0.0,0.0,0.0,0.0,0.0,0.0,0.0,0.0,-2.9355,0.0,0.0,0.0,0.0,0.0,0.0,0.0,0.0,0.0,-3.1089,-3.1132,-3.2799,-3.3572,-3.3261,-3.4594,-3.5422,-3.5652,-3.6253,-3.6828,-3.7325,-3.7482,-3.756,-3.756,-3.7639,-3.7665,-3.7665,-3.7665,-3.824,-3.9024,-3.7508,-3.7482,-3.8266,0.0,0.0,-3.7743,-3.8292,-3.9168,-4.0225,-4.1258,-4.1904,-4.2514,-4.4192,-4.5171,-4.5999,-4.7481,-4.836,-4.8987,-4.9464,-4.959,-4.959,-4.959,-4.959,-4.959,-4.959,-4.8583,-4.78,-4.8607,-4.6713,-4.5408,-4.7275,-4.5644,-4.4088,-4.4264,-4.3589,-4.3314,-4.3919,-4.5653,-4.74,-4.8872,-5.0397,-5.1293,-5.1293,-5.1593,-5.1955,-5.2418,-5.2249,-5.2148,-5.2198,-5.2447,-5.3066,-5.3991,-5.4014,-5.4245,-5.4604,-5.4441,-5.3624,-5.2409,-5.3706,-5.346,-5.2099,-5.3938,-5.4047,-5.2741,-5.3127,-5.3414,-5.364,-5.3706,-5.5086,-5.7067,-5.7067,-5.7345,-5.7653,-5.7653,-5.7481,-5.7309,0.0,0.0,0.0,0.0,0.0,0.0,0.0,0.0,0.0,0.0,-3.3335,-3.2527,0.0,0.0,0.0,0.0,0.0,0.0,0.0,0.0,0.0,-3.1355,-3.2542,-3.2673,-3.1482,-3.3215,-3.3858,-3.3273,-3.3875,-3.4241,-3.4371,-3.5312,-3.5757,-3.5757,-3.6201,-3.641,-3.641,-3.641,-3.6541,-3.6698,-3.6384,-3.6384,-3.6541,0.0,0.0,0.0,-3.709,-3.847,-4.0122,-4.0796,-4.1693,-4.2865,-4.4727,-4.6024,-4.6979,-4.7707,-4.8636,-4.9464,-4.9565,-4.959,-4.959,-4.959,-4.959,-4.959,-4.959,-4.9046,-4.8607,-4.8786,-4.8006,-4.7579,-4.8405,-4.7174,-4.6107,-4.6146,-4.4997,-4.4552,-4.5901,-4.679,-4.8024,-4.9972,-5.0887,-5.1293,-5.1293,-5.2917,-5.4067,-5.4162,-5.5744,-5.5581,-5.2908,-5.4485,-5.5793,-5.6311,-5.6335,-5.6383,-5.6479,-5.5009,-5.4847,-5.5999,-5.4847,-5.4115,-5.3893,-5.6101,-5.6174,-5.475,-5.7017,0.0,-5.6035,-5.6445,-5.7701,-5.9511,-5.9511,-5.9559,-5.957,-5.957,-5.8615,-5.7481,0.0,0.0,0.0,0.0,0.0,0.0,0.0,-3.528,-3.5908,-3.8242,-3.8003,-3.6686,-3.4322,-3.3455,-3.2495,0.0,0.0,0.0,0.0,0.0,0.0,0.0,0.0,0.0,0.0,-3.2155,0.0,0.0,0.0,-3.2829,-3.3143,-3.3692,-3.3953,-3.3953,-3.4214,-3.4319,-3.4319,-3.4319,-3.4319,-3.4345,-3.4659,-3.4789,0.0,0.0,0.0,0.0,-3.6776,-3.8199,-3.9904,-4.0637,-4.1853,-4.3278,-4.4788,-4.6119,-4.723,-4.7757,-4.8711,-4.959,-4.959,-4.959,-4.959,-4.959,-4.9816,-4.9866,-4.9289,-4.8962,-4.8535,-4.7657,-4.7054,-4.6903,-4.7757,-4.6665,-4.5995,-4.6896,-4.5988,-4.5591,-4.6799,-4.8214,-4.9735,-5.155,-5.2726,-5.3512,-5.3801,-5.484,-5.5681,-5.6272,-5.7274,-5.7295,-5.5979,-5.7189,-5.7995,-5.8266,-5.8266,-5.8266,-5.8266,-5.7455,-5.6956,-5.6876,-5.6956,-5.6558,-5.5758,-5.8013,-5.8241,-5.6902,-5.8508,-5.8903,-5.8432,-5.8691,-5.9823,-6.154,-6.154,-6.154,-6.154,-6.154,-6.0935,-6.0326,0.0,0.0,0.0,0.0,0.0,0.0,0.0,-3.7853,-3.8631,-4.1444,-4.1564,-4.0217,-3.7105,-3.531,-3.3806,0.0,0.0,0.0,0.0,0.0,0.0,0.0,0.0,0.0,0.0,0.0,0.0,0.0,0.0,0.0,0.0,0.0,0.0,0.0,-3.2646,-3.2698,-3.2698,-3.2698,-3.2698,0.0,0.0,-3.3587,0.0,0.0,0.0,0.0,0.0,-3.7926,-3.9525,-4.0372,-4.1698,-4.3194,-4.4275,-4.5674,-4.7115,-4.7643,-4.8598,-4.9439,-4.9565,-4.959,-4.959,-4.959,-4.9916,-4.9916,-4.8711,-4.841,-4.7958,-4.6301,-4.5598,-4.5522,-4.6276,-4.5675,-4.5474,-4.647,-4.6311,-4.6358,-4.7514,-4.9274,-5.1151,-5.3035,-5.4543,-5.5591,-5.6168,-5.642,-5.6947,-5.7826,-5.8102,-5.8428,-5.8855,-5.9282,-5.9483,-5.9483,-5.9483,-5.9483,-5.9483,-5.9483,-5.8837,-5.7455,-5.8837,-5.8834,-5.7728,-5.9583,-5.997,-5.917,-5.9704,-6.0272,-6.0685,-6.0685,-6.154,-6.2822,-6.2822,-6.2822,-6.2822,-6.2822,-6.2822,-6.2822,0.0,0.0,0.0,0.0,0.0,0.0,0.0,-3.7973,-3.9469,-4.2692,-4.2132,-4.1235,-4.0913,-3.8571,-3.6533,0.0,0.0,0.0,0.0,0.0,0.0,0.0,0.0,0.0,0.0,0.0,0.0,0.0,0.0,0.0,0.0,0.0,0.0,0.0,0.0,-3.2698,-3.2698,-3.2698,0.0,0.0,0.0,0.0,0.0,0.0,0.0,0.0,0.0,-3.7299,-3.8893,-3.9499,-4.0657,-4.1957,-4.2602,-4.4607,-4.6838,-4.7481,-4.8232,-4.8962,-4.9464,-4.959,-4.959,-4.959,-4.964,-4.9264,-4.7657,-4.728,-4.6803,-4.5121,-4.4744,-4.4568,-4.4192,-4.5229,-4.5734,-4.4477,-4.5493,-4.6974,-4.8502,-4.9403,-5.0995,-5.4081,0.0,0.0,-5.6168,-5.7148,-5.7801,-5.7901,-5.8805,-5.9357,-5.9408,-5.9458,-5.9483,-5.9483,-5.9483,-5.9483,-5.9483,-5.9483,-5.9405,-5.9251,-5.9405,-5.9681,-6.0001,-6.076,-6.1311,-6.1702,-6.2252,-6.2527,0.0,-6.2577,-6.2659,-6.2822,-6.2822,-6.2822,-6.2822,-6.2822,-6.2822,-6.2822,0.0,0.0,0.0,0.0,0.0,0.0,-3.917,-3.9349,-4.0487,-4.4545,-4.4317,-4.3569,-4.318,-4.1145,-3.8631,0.0,0.0,0.0,0.0,0.0,0.0,0.0,0.0,0.0,0.0,0.0,-3.1326,-3.117,-3.0887,0.0,0.0,0.0,0.0,0.0,0.0,-3.1993,-3.1679,-3.1679,0.0,0.0,0.0,0.0,0.0,0.0,0.0,0.0,0.0,0.0,-3.837,-3.9285,-3.9972,-4.0655,-4.1955,-4.3224,-4.4535,-4.6104,-4.7374,-4.836,-4.8937,-4.9339,-4.959,-4.959,-4.959,-4.9163,-4.7506,-4.6878,-4.6075,-4.4041,-4.3112,-4.2685,-4.2785,-4.3639,-4.4444,-4.4847,0.0,0.0,-4.9544,-5.0327,-5.1687,-5.4336,-5.4762,-5.5239,-5.6118,-5.6922,-5.765,-5.8353,-5.9081,-5.9483,-5.9483,-5.9483,-5.9483,-5.9483,-5.9483,-5.9483,-5.9483,-5.9483,-5.9483,-5.9483,-5.9483,-5.9784,-6.0337,-6.0914,-6.1492,-6.2044,-6.2596,-6.2822,0.0,-6.2822,-6.2822,-6.2822,-6.2822,-6.2822,-6.2822,-6.2822,-6.2822,-6.2822,0.0,0.0,0.0,0.0,0.0,-3.513,-4.0068,-4.0187,-4.1085,-4.4904,-4.5185,-4.4766,-4.4107,-4.2102,-3.9679,-3.6896,0.0,0.0,0.0,0.0,0.0,0.0,0.0,0.0,0.0,0.0,-3.178,-3.2118,-3.1604,-3.1536,0.0,0.0,0.0,0.0,0.0,0.0,0.0,0.0,0.0,0.0,0.0,0.0,0.0,0.0,0.0,0.0,0.0,0.0,0.0,0.0,0.0,-3.9547,-4.0775,-4.1591,-4.255,-4.5056,-4.6509,-4.7503,-4.8347,-4.8912,-4.9339,-4.9339,-4.9113,-4.851,-4.7179,-4.6075,-4.4794,-4.2886,-4.1756,-4.1153,-4.1379,-4.2187,-4.3162,0.0,0.0,-4.8008,-4.969,-5.0569,-5.185,-5.4034,-5.4461,-5.4988,-5.6118,-5.6872,-5.775,-5.8855,-5.9359,-5.9663,-5.9483,-5.9585,-5.9663,-5.9483,-5.9483,-5.9483,-5.9483,-5.9483,-5.9483,-5.9483,-5.9659,-6.0035,-6.0588,-6.1165,-6.1718,-6.227,-6.2647,-6.2822,0.0,-6.2822,-6.2822,-6.2822,-6.2822,-6.2822,-6.2822,-6.2822,-6.2822,-6.2822,0.0,0.0,0.0,0.0,0.0,0.0,-3.8841,-3.9978,-4.1115,-4.305,-4.3888,-4.4077,-4.3379,-4.0958,-3.9373,-3.9343,0.0,0.0,0.0,0.0,0.0,0.0,0.0,0.0,0.0,0.0,-3.2868,-3.425,-3.2597,-3.2496,-3.3876,-3.3079,-3.2672,-3.2672,0.0,0.0,0.0,0.0,-3.1797,0.0,0.0,0.0,-3.4397,0.0,0.0,0.0,0.0,0.0,0.0,0.0,0.0,0.0,0.0,-3.9745,-4.1518,-4.4591,-4.5686,-4.6205,-4.7543,-4.8335,-4.8786,-4.8786,-4.7958,-4.7004,-4.6451,-4.4593,-4.271,-4.1526,-4.0902,-4.035,-3.9823,-4.1106,-4.2414,-4.2911,0.0,0.0,-4.856,-4.9741,-5.1247,-5.3457,-5.421,-5.4988,-5.6118,-5.7223,-5.8328,-5.9408,-5.9894,-5.9894,-5.9483,-5.9894,-5.9894,-5.9483,-5.9483,-5.9483,-5.9483,-5.9483,-5.9483,-5.9508,-6.006,-6.0613,-6.119,-6.1743,-6.2295,-6.2822,-6.2822,-6.2822,0.0,-6.2822,-6.2822,-6.2822,-6.2822,-6.2822,-6.2822,-6.2822,-6.2822,-6.2822,0.0,0.0,0.0,0.0,0.0,0.0,0.0,-3.8212,-3.923,-4.1683,-4.2192,-4.2581,-4.323,-4.0958,-3.9373,-3.9373,0.0,0.0,0.0,0.0,0.0,0.0,0.0,0.0,0.0,0.0,-3.5206,-3.7026,-3.5787,-3.5429,-3.5871,-3.5857,-3.4936,-3.3326,-3.3692,-3.3326,0.0,-3.2437,-3.2646,0.0,0.0,-3.3927,-3.4397,0.0,0.0,0.0,0.0,0.0,0.0,0.0,0.0,0.0,0.0,0.0,0.0,-4.1543,-4.3318,-4.4788,-4.5028,-4.6075,-4.7004,-4.6627,-4.5974,-4.5171,-4.4242,-4.3243,-4.2062,-4.0526,-3.9772,-3.9572,-4.0149,-4.1003,-4.2032,-4.3338,0.0,0.0,-4.8636,-5.0067,-5.1674,-5.3482,-5.4888,-5.6118,-5.7248,-5.77,-5.8505,-5.9793,-6.0048,-6.0201,-6.0355,-6.0431,-6.0201,-5.9483,-5.9483,-5.9483,-5.9483,-5.9483,-5.9483,-5.9508,-6.006,-6.0613,-6.119,-6.1743,-6.2295,-6.2822,-6.2822,-6.2822,-6.2822,-6.2822,-6.2822,-6.2822,-6.2822,-6.2822,-6.2822,-6.2822,-6.2822,-6.2822,0.0,0.0,0.0,0.0,0.0,0.0,0.0,-3.6896,-3.7734,-3.9649,-3.9888,-4.0397,-4.1675,-3.9738,0.0,-3.899,0.0,0.0,0.0,0.0,0.0,0.0,0.0,0.0,-3.5848,-3.5972,-3.7171,-3.9467,-3.8699,-3.8636,-3.9172,-3.8675,-3.7338,-3.5429,-3.5142,-3.4397,0.0,-3.2881,-3.3038,-3.3587,-3.3587,-3.3927,-3.4397,0.0,0.0,0.0,0.0,0.0,0.0,0.0,0.0,0.0,0.0,0.0,0.0,0.0,-4.1362,-4.2823,-4.3123,-4.4242,-4.5271,-4.4945,-4.4116,-4.3313,-4.3037,-4.1961,-4.0679,-3.9597,-3.912,-3.9069,-3.9772,-4.0701,-4.1902,-4.3815,-4.6075,-4.7883,-4.8661,-5.0218,-5.1975,-5.3808,-5.5315,-5.6671,-5.7801,-5.7901,-5.8505,-5.9946,-6.0278,-6.0431,-6.066,-6.0889,-6.066,-5.9946,-5.9817,-5.974,-5.974,-5.9585,-5.9608,-5.9809,-6.0387,-6.0939,-6.1517,-6.2069,-6.2496,-6.2822,-6.2822,-6.2822,0.0,-6.2822,-6.2822,-6.2822,-6.2822,-6.2822,-6.2822,-6.2822,-6.2822,-6.2822,0.0,0.0,0.0,0.0,0.0,0.0,0.0,-3.6028,-3.6686,-3.7255,-3.7375,-3.7883,-3.914,-3.7614,0.0,0.0,0.0,0.0,0.0,0.0,0.0,0.0,0.0,0.0,-3.6656,-3.7181,-3.8804,-4.1594,-4.1237,-4.1752,-4.3148,-4.1351,-3.9857,-3.8553,-3.7033,-3.566,-3.4397,-3.3273,-3.3143,-3.3639,-3.3639,-3.3953,0.0,0.0,0.0,0.0,0.0,0.0,0.0,0.0,0.0,0.0,0.0,0.0,0.0,0.0,0.0,0.0,0.0,-4.2841,-4.3689,-4.3689,-4.2534,-4.1656,-4.2635,-4.0877,0.0,-3.9045,-3.8994,-3.907,-3.9196,-4.0425,-4.2128,-4.4443,-4.615,-4.7581,-4.8736,-5.0368,-5.2226,-5.431,-5.5566,-5.6696,-5.7801,-5.7926,-5.853,-6.0048,-6.0508,-6.0737,-6.0813,-6.1193,-6.1193,-6.0737,-6.0431,-6.0201,-6.0125,-5.974,-5.9784,-6.0337,-6.0914,-6.1466,-6.2019,-6.2571,-6.2822,0.0,-6.2822,-6.2822,-6.2822,-6.2822,-6.2822,-6.2822,-6.2822,-6.2822,-6.2822,-6.2822,-6.2822,-6.2822,0.0,0.0,0.0,0.0,0.0,0.0,0.0,0.0,0.0,0.0,-3.7105,-3.7524,-3.7853,-3.7045,0.0,0.0,0.0,0.0,0.0,0.0,0.0,0.0,0.0,0.0,-3.8691,-3.9318,-4.0956,-4.3629,-4.2794,-4.2809,-4.3673,-4.2996,-4.1633,-3.9761,-3.8969,-3.733,-3.5025,-3.4319,-3.4084,-3.4214,-3.4214,-3.4293,0.0,0.0,0.0,0.0,-3.5678,-3.641,0.0,0.0,0.0,0.0,0.0,0.0,0.0,0.0,-3.8865,-3.9316,-3.9829,0.0,-4.259,-4.259,-4.2313,-4.1932,0.0,-4.1229,-4.0651,-4.0224,-4.0124,-4.0526,-4.1781,-4.2333,-4.3463,-4.6125,-4.7205,-4.8259,-4.9816,-5.1825,-5.3482,-5.4461,-5.5917,-5.7123,-5.7826,-5.8278,-5.911,-6.0457,-6.066,-6.0965,-6.1672,-6.1823,-6.1672,-6.1268,-6.1117,-6.0813,-6.0125,-6.0048,-6.0069,-6.0337,-6.0914,-6.1466,-6.2019,-6.2571,-6.2822,-6.2822,-6.2822,-6.2822,-6.2822,-6.2822,-6.2822,-6.2822,-6.2822,-6.2822,-6.2822,-6.2822,-6.2822,-6.2822,0.0,0.0,0.0,0.0,0.0,0.0,0.0,0.0,0.0,0.0,0.0,0.0,0.0,0.0,0.0,0.0,0.0,0.0,0.0,0.0,0.0,0.0,0.0,-3.8631,-4.0277,-4.0965,-4.2581,-4.5244,-4.4672,-4.5079,-4.6344,-4.4669,-4.309,-4.1643,-3.905,-3.691,-3.5234,-3.4397,-3.4162,-3.4371,-3.4136,0.0,0.0,0.0,0.0,0.0,-3.5678,-3.6305,0.0,-3.8214,-3.8684,-3.871,0.0,0.0,0.0,0.0,-3.8652,-3.8956,-3.965,-4.0436,-4.1078,-4.1329,-4.1204,-4.1003,-4.0978,-4.0899,-4.0802,-4.0249,-4.0727,-4.153,-4.2489,-4.3639,-4.507,-4.6792,-4.8209,-4.964,-5.1322,-5.2804,-5.411,-5.5189,-5.6344,-5.7349,-5.8202,-5.8681,-5.9465,-6.0609,-6.0889,-6.1268,-6.1973,-6.1973,-6.1898,-6.1646,-6.1672,-6.1268,-6.0355,-6.0201,-6.0376,-6.095,-6.1119,-6.1592,-6.2395,-6.2697,-6.2973,-6.3199,-6.2948,-6.2973,-6.3199,-6.2948,-6.2822,-6.2822,-6.2822,-6.2822,-6.2822,-6.2822,-6.2822,-6.2822,0.0,0.0,0.0,0.0,0.0,0.0,0.0,0.0,0.0,0.0,0.0,0.0,0.0,0.0,0.0,0.0,0.0,0.0,0.0,0.0,0.0,0.0,-3.8542,-3.9738,-4.1624,-4.256,-4.4107,-4.6429,-4.6561,-4.7489,-4.9105,-4.6396,-4.4709,-4.3732,-3.8772,-3.6305,-3.5726,-3.4323,-3.3979,-3.4371,-3.3901,0.0,0.0,0.0,0.0,0.0,0.0,0.0,0.0,-3.8527,-3.8998,-3.8789,-3.9207,0.0,0.0,0.0,0.0,0.0,-4.0312,-4.0414,-4.0226,-4.0651,-4.0425,-4.0224,-4.0777,-4.0953,-4.0877,-4.0425,-4.158,-4.2766,-4.2942,-4.4844,-4.6702,-4.7506,-4.9414,-5.1297,-5.2729,-5.3532,-5.4511,-5.6043,-5.6771,-5.7575,-5.868,-5.9136,-5.9845,-6.0711,-6.1193,-6.1571,-6.1973,-6.1973,-6.1973,-6.1898,-6.1973,-6.1597,-6.0813,-6.0508,-6.076,-6.1824,-6.1429,-6.1898,-6.2948,-6.2873,-6.3149,-6.3651,0.0,0.0,-6.3525,-6.3023,-6.2822,-6.2822,-6.2822,-6.2822,-6.2822,-6.2822,-6.2822,-6.2985,0.0,0.0,0.0,0.0,0.0,0.0,0.0,0.0,0.0,0.0,0.0,0.0,0.0,0.0,0.0,0.0,0.0,0.0,0.0,0.0,0.0,-4.0636,-4.0876,-4.1594,-4.2961,-4.4796,-4.6202,-4.716,-4.7698,-4.8147,-4.8446,-4.8506,-4.7478,-4.5338,-4.0858,-3.8553,-3.7849,-3.5326,-3.4319,-3.4397,-3.4319,0.0,0.0,0.0,0.0,0.0,0.0,0.0,0.0,-3.7273,-3.7978,-3.8658,-3.8266,0.0,0.0,0.0,0.0,0.0,-4.0824,-4.1663,-4.2131,-4.199,-4.1886,-4.1986,-4.2459,-4.2961,-4.3263,-4.3187,-4.4141,-4.5271,-4.62,-4.6728,-4.7631,-4.959,-5.1398,-5.2628,-5.2879,-5.421,-5.539,-5.6118,-5.7123,-5.8152,-5.9085,-5.9642,-6.0329,-6.1193,-6.1344,-6.1571,-6.1973,-6.1973,-6.1823,-6.1495,-6.1823,-6.1747,-6.1268,-6.1193,-6.1403,-6.1824,-6.1745,-6.2341,-6.355,-6.3048,-6.3149,-6.3651,0.0,-6.2873,-6.2948,-6.2873,-6.2822,-6.2822,-6.2822,-6.2822,-6.2822,-6.2822,-6.3067,-6.3392,0.0,0.0,0.0,0.0,0.0,0.0,0.0,0.0,0.0,0.0,0.0,0.0,0.0,0.0,0.0,0.0,0.0,0.0,0.0,0.0,-3.8601,-4.2282,-4.2462,-4.309,-4.4377,-4.5622,-4.698,-4.8356,-4.9015,-4.9703,-5.0361,-4.8771,-4.6301,-4.3171,-4.0563,-3.8999,-3.826,-3.5897,-3.4978,-3.5073,0.0,0.0,0.0,0.0,0.0,0.0,0.0,0.0,0.0,0.0,-3.7848,-3.8292,-3.8318,0.0,0.0,0.0,0.0,0.0,-4.0183,-4.1027,-4.1856,-4.2494,-4.3288,-4.394,-4.389,-4.4543,-4.507,-4.4769,-4.5598,-4.6527,-4.6993,-4.7857,-4.9088,-5.1021,-5.2226,-5.313,-5.3733,-5.4988,-5.6143,-5.7022,-5.7851,-5.8706,-5.9592,-6.0125,-6.0737,-6.1344,-6.1571,-6.1823,-6.1973,-6.1973,-6.1898,-6.1747,-6.1898,-6.2054,-6.2114,-6.2114,-6.2379,-6.2968,-6.2414,-6.283,-6.3981,-6.3482,-6.345,-6.3651,0.0,-6.2998,-6.3274,-6.2948,-6.2822,-6.2822,-6.2822,-6.2822,-6.2822,-6.3067,-6.3635,-6.4119,0.0,0.0,0.0,0.0,0.0,0.0,0.0,0.0,0.0,0.0,0.0,0.0,0.0,0.0,0.0,0.0,0.0,0.0,0.0,-3.7943,-3.9738,-4.3379,-4.3449,-4.4197,-4.5963,-4.68,-4.8117,-4.9988,-5.078,-5.1588,-5.2366,-4.9031,-4.5837,-4.2924,-4.1241,-3.9897,-3.8765,-3.6716,-3.5683,-3.5359,0.0,0.0,0.0,0.0,0.0,0.0,0.0,0.0,0.0,0.0,0.0,0.0,0.0,0.0,0.0,-3.8684,-3.8986,-3.9395,-3.9849,-4.0798,-4.1859,-4.3098,-4.4141,-4.492,-4.4995,-4.5698,-4.6225,-4.5924,-4.6753,-4.7581,-4.7857,-4.9163,-5.0645,-5.2076,-5.2754,-5.3507,-5.4612,-5.5591,-5.657,-5.7575,-5.8253,-5.9034,-5.9947,-6.0584,-6.1041,-6.1495,-6.1823,-6.1973,-6.1973,-6.1973,-6.1973,-6.1973,-6.1973,-6.2234,-6.2809,-6.2835,-6.3232,-6.4088,-6.3191,-6.3376,-6.4513,-6.3766,-6.3576,-6.3651,-6.3073,-6.3073,-6.345,-6.2998,-6.2822,-6.2822,-6.2822,-6.2904,-6.2985,-6.3473,-6.4119,-6.4786,0.0,0.0,0.0,0.0,0.0,0.0,0.0,0.0,0.0,0.0,0.0,0.0,0.0,0.0,0.0,0.0,0.0,0.0,-3.8272,-3.9499,-4.1384,-4.4137,-4.3618,-4.4825,-4.7997,-4.9314,-5.0584,-5.1977,-5.3294,-5.3653,-5.3054,-5.0375,-4.8969,-4.8566,-4.5273,-4.2653,-4.0576,-3.8348,-3.6297,-3.4481,-3.4439,0.0,0.0,0.0,0.0,0.0,0.0,0.0,0.0,0.0,0.0,0.0,0.0,0.0,-3.8057,-3.8553,-3.9081,-3.9819,-4.0901,-4.236,-4.373,-4.4332,-4.384,-4.3689,-4.5723,-4.625,-4.6451,-4.6928,-4.7883,-4.8962,-4.9992,-5.1147,-5.2126,-5.2754,-5.3306,-5.4034,-5.5164,-5.5842,-5.6445,-5.7022,-5.7948,-5.8879,-5.9816,-6.0807,-6.1495,-6.1898,-6.1973,-6.1973,-6.1973,-6.1973,-6.1973,-6.1973,-6.1973,-6.2234,-6.2809,-6.2835,-6.344,-6.4709,-6.3689,-6.3929,-6.5071,-6.3539,-6.3174,-6.3651,-6.3073,-6.2847,-6.2898,-6.2847,-6.2822,-6.2822,-6.2822,-6.3067,-6.3473,-6.3878,-6.4386,-6.4786,0.0,0.0,0.0,0.0,0.0,0.0,0.0,0.0,0.0,0.0,0.0,0.0,0.0,0.0,0.0,0.0,0.0,0.0,-3.9559,-4.0487,-4.2372,-4.5424,-4.4915,-4.6112,-4.9434,-4.9583,-5.09,-5.3443,-5.4371,-5.4042,-5.2516,-5.0347,-4.8536,-4.7064,-4.5347,-4.3647,-4.198,-4.0266,-3.8394,-3.6551,-3.6047,-3.5254,0.0,0.0,0.0,0.0,0.0,0.0,0.0,0.0,-3.5809,-3.6515,-3.6881,-3.7403,-3.8004,-3.8553,-3.9651,-4.0807,-4.144,-4.3187,-4.5067,-4.5809,-4.5741,-4.5874,-4.7029,-4.7857,-4.8309,-4.8184,-4.8761,-4.9515,-5.0268,-5.1348,-5.2277,-5.2829,-5.3959,-5.4888,-5.534,-5.6168,-5.6922,-5.7499,-5.8202,-5.906,-6.0276,-6.076,-6.1268,-6.1973,-6.1973,-6.1973,-6.1973,-6.1973,-6.213,-6.2496,-6.2496,-6.294,-6.3881,-6.3541,-6.396,-6.5159,-6.4448,-6.4466,-6.4948,-6.4332,-6.3905,-6.3558,-6.3331,-6.3067,-6.2822,-6.2822,-6.2822,-6.2822,-6.2822,-6.323,-6.3878,-6.4039,-6.4521,-6.5159,0.0,0.0,0.0,0.0,0.0,0.0,0.0,0.0,0.0,0.0,0.0,0.0,0.0,0.0,0.0,0.0,0.0,0.0,-4.0337,-4.1594,-4.3419,-4.5903,-4.5753,-4.698,-4.9853,-4.9703,-5.1109,-5.4221,-5.467,-5.4072,-5.2456,-5.0318,-4.8551,-4.715,-4.6123,-4.4691,-4.2969,-4.1794,-4.0041,-3.7964,-3.6931,-3.5957,0.0,0.0,0.0,0.0,0.0,0.0,0.0,0.0,-3.5391,-3.594,-3.6541,-3.7142,-3.7769,-3.8501,-3.9939,-4.1483,-4.2138,-4.3813,-4.5699,-4.6798,-4.7157,-4.7428,-4.8008,-4.8786,-4.9264,-4.9063,-4.9766,-5.0544,-5.1096,-5.2126,-5.3055,-5.3607,-5.4662,-5.544,-5.5616,-5.6294,-5.6972,-5.7549,-5.8177,-5.911,-6.0353,-6.071,-6.1193,-6.1973,-6.1973,-6.1973,-6.1973,-6.213,-6.2417,-6.2809,-6.2992,-6.3567,-6.4534,-6.3959,-6.4064,-6.4848,-6.4533,-6.4557,-6.4786,-6.4486,-6.4137,-6.3716,-6.3716,-6.3473,-6.2985,-6.2985,-6.2985,-6.3067,-6.3148,-6.3635,-6.428,-6.428,-6.4761,-6.5371,0.0,0.0,0.0,0.0,0.0,0.0,0.0,0.0,0.0,0.0,0.0,0.0,0.0,0.0,0.0,0.0,-3.8901,-4.0427,-4.0427,-4.288,-4.4616,-4.5274,-4.5963,-4.7249,-4.9269,-4.9912,-5.1481,-5.4192,-5.4221,-5.3862,-5.3114,-5.0527,-4.9613,-5.0076,-4.8177,-4.5933,-4.3585,-4.2918,-4.1023,-3.8271,-3.677,-3.6359,-3.6524,0.0,0.0,0.0,0.0,0.0,0.0,0.0,-3.4789,-3.5391,-3.594,-3.6515,-3.7246,-3.837,-3.9965,-4.1615,-4.302,-4.4287,-4.5623,-4.7214,-4.7592,-4.7835,-4.8661,-4.8786,-4.8937,-4.949,-5.0921,-5.2251,-5.2829,-5.3833,-5.4737,-5.529,-5.539,-5.5591,-5.6143,-5.6219,-5.642,-5.6972,-5.7897,-5.8903,-5.984,-6.0782,-6.1571,-6.1973,-6.1973,-6.1973,-6.1973,-6.2522,-6.2835,-6.2835,-6.3384,-6.3959,-6.4534,-6.3959,-6.3698,-6.3698,-6.3672,-6.4039,-6.4735,-6.3794,-6.3607,-6.4119,-6.4119,-6.3878,-6.3473,-6.3473,-6.3473,-6.3554,-6.3958,-6.4386,-6.4786,-6.4786,-6.5079,-6.5371,0.0,0.0,0.0,0.0,0.0,0.0,0.0,0.0,0.0,0.0,0.0,0.0,0.0,0.0,0.0,0.0,0.0,-4.1811,-4.1811,-4.3808,-4.5095,-4.5274,-4.6411,-4.7489,-4.8566,-4.9673,-5.1272,-5.3503,-5.3982,-5.3384,-5.1768,-5.0541,-4.9553,-4.8835,-4.8267,-4.7078,-4.5491,0.0,-4.3199,-3.9981,-3.9529,-3.7896,-3.5632,0.0,0.0,0.0,0.0,0.0,0.0,0.0,0.0,0.0,-3.594,-3.6802,-3.7769,-3.8501,-4.0801,-4.331,-4.4118,-4.616,-4.8309,-4.8963,-4.9277,-4.9381,-4.9328,-4.9339,-4.9515,-5.0067,-5.0268,-5.087,-5.2603,-5.3482,-5.426,-5.5239,-5.5717,-5.6018,-5.6194,-5.6219,-5.657,-5.7524,-5.815,-5.9056,-6.0328,-6.1014,-6.1571,-6.1973,-6.1973,-6.2156,-6.2548,-6.2731,-6.3201,-6.4012,-6.4195,-6.456,-6.5136,-6.456,-6.4273,-6.4273,-6.3881,-6.3777,-6.4039,-6.4117,-6.4296,-6.4627,-6.4627,-6.42,-6.3473,-6.3148,-6.362,-6.4521,-6.3869,-6.4119,-6.4786,-6.4786,-6.5079,-6.5371,0.0,0.0,0.0,0.0,0.0,0.0,0.0,0.0,-3.5519,-3.5519,-3.5519,-3.5609,0.0,0.0,0.0,-3.8781,-4.1033,-4.241,-4.241,-4.3958,-4.5035,-4.5274,-4.6352,-4.7339,-4.8267,-4.9314,-5.0571,-5.2007,-5.2426,-5.2007,-5.0764,-5.0152,-4.9553,-4.9045,-4.8775,-4.806,0.0,0.0,-4.4865,-4.2237,-4.1271,-3.9475,-3.7257,0.0,0.0,0.0,0.0,0.0,0.0,0.0,0.0,0.0,-3.5861,-3.6933,-3.8135,-3.939,-4.1533,-4.3859,-4.5349,-4.7294,-4.9058,-4.9662,-4.9861,-4.9965,-4.9945,-4.9916,-5.0092,-5.0645,-5.0845,-5.1473,-5.3256,-5.4009,-5.4662,-5.5566,-5.5993,-5.6219,-5.6219,-5.6219,-5.6694,-5.7975,-5.8326,-5.9107,-6.0862,-6.1193,-6.1571,-6.1973,-6.2182,-6.2469,-6.2809,-6.3254,-6.3829,-6.4508,-6.4743,-6.5031,-6.5371,-6.4822,-6.4534,-6.4534,-6.3959,-6.3907,-6.4351,-6.4482,-6.4691,-6.5026,-6.51,-6.5011,-6.4704,-6.4378,-6.4618,-6.5184,-6.4768,-6.4807,-6.5,-6.5,-6.5159,-6.5371,0.0,0.0,0.0,0.0,0.0,0.0,0.0,-3.5519,-3.5519,-3.5519,-3.5549,-3.5848,0.0,0.0,0.0,-3.9439,-4.1265,-4.241,-4.241,-4.3599,-4.4586,-4.5185,-4.5933,-4.689,-4.8087,-4.8745,-4.9404,-5.0016,-5.0136,-5.0196,-5.0196,-4.9643,-4.9643,-5.0076,0.0,-4.8741,0.0,-4.7153,-4.6014,-4.45,-4.2276,-4.1052,-4.0293,-3.745,0.0,0.0,0.0,0.0,0.0,0.0,0.0,0.0,-3.5678,-3.6933,-3.8397,-4.054,-4.2108,-4.3755,-4.6391,-4.7754,-4.8603,-4.9595,-4.9871,-4.9977,-5.0323,-5.0494,-5.072,-5.1247,-5.2151,-5.3206,-5.4361,-5.4988,-5.5516,-5.6118,-5.6168,-5.6143,-5.6194,-5.6168,-5.6717,-5.8323,-5.8525,-5.9257,-6.124,-6.142,-6.1597,-6.1973,-6.2496,-6.2835,-6.2914,-6.3933,-6.456,-6.4613,-6.5109,-6.5371,-6.5371,-6.4874,-6.4613,-6.4613,-6.4142,-6.4456,-6.5449,-6.4822,-6.4874,-6.5501,-6.5595,-6.6029,-6.6629,-6.6495,-6.6184,-6.5851,-6.6151,-6.5946,-6.5449,-6.5397,-6.5371,-6.5371,0.0,0.0,0.0,0.0,0.0,0.0,-3.5519,-3.5519,-3.5519,-3.5519,-3.5968,-3.6507,-3.7135,-3.8392,0.0,-4.0127,-4.1542,-4.241,-4.241,-4.3599,-4.4377,-4.4526,-4.5663,-4.6399,-4.6741,-4.7399,-4.8057,-4.8716,-4.9687,-5.0196,0.0,0.0,0.0,-4.9464,0.0,-4.8895,-4.8179,-4.748,-4.599,-4.4037,-4.3502,-4.1953,-3.9788,-3.8727,-3.7464,0.0,0.0,0.0,0.0,0.0,0.0,0.0,-3.5234,-3.6881,-3.8736,-3.9677,-4.2056,-4.4537,-4.5634,-4.7728,-4.9654,-5.0085,-5.046,-5.0597,-5.0434,-5.1096,-5.1774,-5.19,-5.2126,-5.2754,-5.4285,-5.4662,-5.5064,-5.6043,-5.5842,-5.5717,-5.6143,-5.5842,-5.6289,-5.8273,-5.8748,-5.9581,-6.124,-6.1672,-6.1898,-6.1973,-6.2496,-6.3018,-6.3463,-6.4168,-6.4743,-6.5188,-6.5318,-6.5371,-6.5371,-6.5266,-6.5214,-6.5214,-6.5554,-6.5841,-6.605,-6.5005,-6.5109,-6.6129,-6.6273,-6.687,-6.7611,-6.6403,-6.6568,-6.7376,-6.6221,-6.5886,-6.6024,-6.5554,-6.5371,-6.5371,0.0,0.0,0.0,0.0,0.0,0.0,0.0,0.0,-3.5609,-3.5938,-3.6267,-3.6836,-3.7793,-3.8512,0.0,0.0,-4.1324,-4.2081,-4.2381,-4.3299,-4.3947,-4.4317,-4.5304,-4.5843,-4.5843,-4.6501,-4.716,-4.7818,-4.8506,-4.8985,0.0,0.0,0.0,-4.885,0.0,-4.894,-4.8267,-4.7908,-4.6899,-4.5475,-4.4454,-4.289,-4.094,-3.9923,-3.8266,-3.6443,-3.5613,0.0,0.0,0.0,0.0,0.0,0.0,0.0,-3.8161,-3.9573,-4.1455,-4.352,-4.5506,-4.7336,-4.8942,-5.0116,-5.0487,-5.0623,-5.0958,-5.1405,-5.1942,-5.2581,-5.2639,-5.2929,-5.431,-5.4561,-5.4938,-5.6043,-5.5968,-5.5892,-5.6168,-5.6113,-5.6732,-5.8595,-5.9119,-6.0027,-6.1542,-6.1898,-6.2077,-6.2365,-6.2914,-6.3489,-6.4064,-6.4639,-6.5083,-6.5371,-6.5371,-6.5371,-6.5371,-6.5371,-6.5371,-6.5397,-6.5998,-6.6416,-6.6652,-6.6024,-6.6259,-6.7122,-6.7164,-6.7689,-6.8294,-6.7567,-6.7546,-6.7932,-6.7086,-6.6751,-6.6599,-6.6024,-6.5972,-6.6155,0.0,0.0,0.0,0.0,0.0,0.0,0.0,0.0,0.0,-3.6567,-3.6656,-3.7075,-3.8272,-3.8482,-3.905,0.0,0.0,0.0,-4.2351,-4.297,-4.3529,-4.4107,-4.4766,-4.5125,-4.5125,-4.5903,-4.6591,-4.713,-4.7249,-4.7638,0.0,0.0,0.0,-4.8297,0.0,0.0,-4.8446,-4.8327,-4.7967,-4.7328,-4.5636,-4.4357,-4.3231,-4.1848,-3.982,-3.7704,-3.7661,-3.6396,-3.4678,-3.4326,0.0,0.0,0.0,0.0,-3.7429,-3.9625,-4.0775,-4.203,-4.5297,-4.697,-4.8205,-5.0098,-5.0436,-5.0574,-5.1423,-5.1605,-5.1875,-5.3148,-5.3128,-5.3231,-5.4235,-5.4486,-5.4888,-5.5917,-5.5993,-5.5993,-5.6267,-5.6507,-5.7324,-5.8991,-5.9592,-6.0453,-6.1868,-6.2051,-6.2313,-6.2783,-6.3437,-6.4038,-6.4508,-6.5083,-6.5371,-6.5371,-6.5371,-6.5371,-6.5371,-6.5371,-6.5371,-6.5397,-6.6103,-6.6756,-6.741,-6.7488,-6.7749,-6.8141,-6.8246,-6.856,-6.8978,-6.879,-6.856,-6.8115,-6.8037,-6.7671,-6.7174,-6.6625,-6.6704,-6.7017,0.0,0.0,0.0,0.0,0.0,0.0,0.0,0.0,0.0,0.0,-3.7285,-3.7554,-3.8302,-3.8931,-3.9589,-4.0337,-4.1534,-4.2291,-4.2381,0.0,0.0,-4.3409,-4.4107,-4.4436,-4.4436,-4.5663,-4.6339,-4.6399,-4.704,-4.7638,0.0,0.0,0.0,-4.8297,0.0,0.0,0.0,0.0,-4.8237,-4.8147,-4.7882,-4.7347,-4.6664,-4.6444,-4.5368,-4.3855,-4.2087,-4.0231,-3.839,-3.7134,-3.6168,0.0,0.0,0.0,-3.7351,-3.9181,-4.0488,-4.1847,-4.4304,-4.7205,-4.969,-5.0444,-5.0909,-5.1163,-5.1017,-5.1737,-5.2539,-5.3027,-5.2987,-5.3105,-5.3708,-5.4235,-5.4762,-5.539,-5.5089,-5.5257,-5.6504,-5.6395,-5.6963,-5.9308,-6.0102,-6.0795,-6.1921,-6.2417,-6.2731,-6.2809,-6.3829,-6.4456,-6.4534,-6.5083,-6.5371,-6.5371,-6.5371,-6.5371,-6.5371,-6.5371,-6.5371,-6.5397,-6.6469,-6.7566,-6.8638,-6.9108,-6.9135,-6.8769,-6.9265,-6.9501,-6.9553,-6.9056,-6.8711,-6.869,-6.8194,-6.7932,-6.7802,-6.72,-6.7017,-6.707,0.0,0.0,0.0,0.0,0.0,0.0,0.0,0.0,0.0,0.0,0.0,-3.7674,-3.8332,-3.8332,-3.8871,-4.0277,-4.0935,-4.1713,-4.2821,-4.314,-4.329,-4.329,-4.3559,-4.3738,-4.3738,-4.4706,-4.5364,-4.5753,-4.6411,-4.7279,-4.8297,-4.8297,-4.8297,0.0,0.0,0.0,0.0,0.0,0.0,0.0,0.0,0.0,0.0,0.0,0.0,0.0,0.0,-4.3002,-4.1094,-3.9292,-3.7686,-3.648,-3.6635,0.0,0.0,0.0,-3.9321,-4.0644,-4.4251,-4.7048,-4.9176,-5.0204,-5.0816,-5.1241,-5.1447,-5.1714,-5.2225,-5.3222,-5.3222,-5.3283,-5.4334,-5.4527,-5.4838,-5.5717,-5.5581,-5.5648,-5.6674,-5.6933,-5.7724,-5.9506,-6.0401,-6.1122,-6.1921,-6.2496,-6.2966,-6.328,-6.4064,-6.4665,-6.5005,-6.524,-6.5371,-6.5371,-6.5371,-6.5371,-6.5371,-6.5371,-6.5711,-6.6338,-6.72,-6.8194,-6.9344,-6.9945,-6.9893,-6.9344,-6.9945,-6.9997,-6.9684,-6.9422,-6.9135,-6.8821,-6.856,-6.8481,-6.8403,-6.7802,-6.7802,-6.8037,0.0,0.0,0.0,0.0,0.0,0.0,0.0,0.0,0.0,0.0,0.0,-3.7853,-3.8332,0.0,0.0,0.0,-4.0846,-4.1773,-4.32,-4.314,-4.309,-4.309,-4.294,-4.291,-4.309,-4.3718,-4.4377,-4.5035,-4.5903,-4.707,-4.8536,-4.8356,-4.8566,0.0,-4.7997,-4.7638,0.0,0.0,0.0,0.0,0.0,0.0,0.0,0.0,0.0,0.0,0.0,-4.5845,-4.406,-4.2161,-3.9979,-3.7973,-3.7717,-3.6273,0.0,0.0,0.0,-4.02,-4.3938,-4.6379,-4.8253,-4.9542,-5.0218,-5.0809,-5.1572,-5.1653,-5.1884,-5.3153,-5.3509,-5.3971,-5.4974,-5.4885,-5.503,-5.5987,-5.6002,-5.6213,-5.6989,-5.7698,-5.8523,-5.9679,-6.0753,-6.1502,-6.1921,-6.2626,-6.3227,-6.3646,-6.4351,-6.4926,-6.5371,-6.5371,-6.5371,-6.5371,-6.5371,-6.5371,-6.5371,-6.5528,-6.6103,-6.7096,-6.7697,-6.8507,-6.9501,-7.0259,-7.0337,-6.9945,-7.0389,-7.0337,-6.9893,-6.9605,-6.9239,-6.8764,-6.8764,-6.8764,-6.8711,-6.8377,-6.8481,-6.8711,0.0,0.0,0.0,0.0,0.0,0.0,0.0,0.0,0.0,0.0,0.0,-3.8362,-3.8392,-3.9499,-4.0277,-4.0397,-4.2102,-4.317,-4.329,-4.2761,-4.244,-4.244,-4.1841,0.0,-4.244,-4.306,-4.3678,-4.4377,-4.5651,-4.7309,-4.9239,-4.8566,-4.9284,-5.099,-4.9075,-4.8566,-4.9209,0.0,0.0,0.0,0.0,0.0,0.0,0.0,0.0,0.0,0.0,0.0,-4.7834,-4.6433,-4.3702,-4.1,-4.15,-3.8899,-3.5967,0.0,0.0,0.0,-4.2788,-4.5077,-4.7375,-4.8361,-4.8989,-4.9643,-5.0841,-5.1586,-5.2102,-5.25,-5.3985,-5.5339,-5.5348,-5.519,-5.5259,-5.5913,-5.5989,-5.6428,-5.7635,-5.8393,-5.9108,-6.007,-6.1241,-6.1947,-6.1973,-6.2966,-6.3646,-6.3672,-6.4717,-6.5345,-6.5371,-6.5371,-6.5371,-6.5371,-6.5371,-6.5371,-6.5371,-6.5946,-6.6547,-6.7148,-6.7723,-6.8298,-6.8926,-7.0076,-7.0572,-7.0546,-7.0572,-7.0572,-7.0468,-6.9344,-6.879,-6.8764,-6.8764,-6.8764,-6.8764,-6.8821,-6.8821,-6.8764,0.0,0.0,0.0,0.0,0.0,0.0,0.0,0.0,0.0,0.0,0.0,0.0,0.0,-4.0098,-4.0756,-4.1632,-4.2671,-4.329,-4.329,-4.2731,-4.241,-4.241,-4.1782,-4.1542,-4.1752,-4.2372,-4.303,0.0,0.0,-4.6052,-4.8027,-4.8207,-4.8895,-4.9912,-4.8775,-4.8416,-4.87,-4.912,0.0,0.0,0.0,0.0,0.0,0.0,0.0,0.0,0.0,0.0,0.0,0.0,0.0,0.0,0.0,0.0,0.0,0.0,-3.8747,-4.0207,-4.1553,-4.3414,-4.566,-4.8219,-4.9558,-5.0511,-5.1755,-5.2444,-5.2931,-5.306,-5.4183,-5.5351,-5.5805,-5.5982,-5.6193,-5.678,-5.6764,-5.6997,-5.7778,-5.8635,-5.9424,-6.0143,-6.1267,-6.213,-6.2496,-6.3227,-6.3829,-6.4195,-6.4953,-6.5214,-6.4848,-6.5188,-6.5214,-6.4848,-6.5188,-6.5371,-6.5371,-6.6338,-6.6913,-6.7122,-6.8089,-6.8847,-6.9422,-7.0232,-7.0598,-7.0598,-7.0598,-7.0598,-7.0546,-6.9736,-6.9187,-6.8764,-6.8764,-6.8764,-6.8764,-6.8764,-6.8764,-6.8764,0.0,0.0,0.0,0.0,0.0,-3.905,-3.9948,-4.0277,-4.0636,-4.1294,0.0,0.0,0.0,0.0,-4.2073,-4.294,-4.3,-4.3,-4.3,-4.2402,-4.1961,-4.1752,-4.1294,-4.1055,-4.1055,-4.1512,-4.2132,0.0,0.0,0.0,0.0,-4.7638,-4.8416,-4.9269,-4.8566,-4.8416,0.0,0.0,0.0,-4.9793,0.0,0.0,-5.3234,0.0,0.0,-5.461,-5.2606,0.0,0.0,0.0,0.0,0.0,0.0,0.0,0.0,0.0,0.0,0.0,-4.0712,0.0,-4.4564,-4.7054,-4.9063,-5.0719,-5.171,-5.2861,-5.3637,-5.32,-5.4327,-5.5419,-5.5507,-5.6141,-5.6836,-5.7466,-5.7475,-5.7558,-5.8018,-5.9033,-5.9803,-6.0169,-6.1267,-6.2182,-6.2757,-6.3358,-6.3907,-6.4482,-6.5057,-6.5214,-6.4822,-6.5188,-6.5214,-6.4822,-6.5188,-6.5475,-6.5684,-6.6625,-6.72,-6.741,-6.8377,-6.903,-6.9422,-7.0023,-7.0285,-7.0285,-7.0285,-7.0285,-7.0232,-6.9657,-6.9187,-6.8764,-6.8764,-6.8764,-6.879,-6.9056,-6.9004,-6.879,0.0,0.0,0.0,0.0,-3.902,-3.9918,-4.1235,-4.1991,-4.265,-4.326,0.0,0.0,0.0,0.0,0.0,-4.4317,-4.315,-4.244,-4.241,-4.1782,-4.1085,-4.0427,-4.0367,-4.0367,0.0,0.0,0.0,0.0,0.0,0.0,0.0,0.0,-4.7938,-4.9209,-4.8566,-4.8626,-4.9269,0.0,-4.9643,-5.0285,0.0,-5.2665,-5.3354,0.0,0.0,-5.6008,-5.3952,-5.4521,0.0,-5.2396,0.0,0.0,0.0,0.0,0.0,0.0,0.0,0.0,0.0,0.0,0.0,0.0,-4.7295,-4.9964,-5.0664,-5.2706,-5.4034,-5.279,-5.4427,-5.5703,-5.4498,-5.5647,-5.7025,-5.7766,-5.7876,-5.8018,-5.8426,-5.9464,-6.0195,-6.0222,-6.1241,-6.2182,-6.2783,-6.3358,-6.3933,-6.4508,-6.5083,-6.5371,-6.5345,-6.5345,-6.5371,-6.5371,-6.5371,-6.5684,-6.6286,-6.6808,-6.7383,-6.8011,-6.856,-6.8764,-6.879,-6.9422,-6.9684,-6.9657,-6.9684,-6.9684,-6.9631,-6.9082,-6.8764,-6.8764,-6.8764,-6.8764,-6.8952,-6.9474,-6.9344,-6.8978,0.0,0.0,0.0,-3.9738,-4.0397,-4.1294,-4.2581,-4.2551,-4.298,0.0,0.0,0.0,-4.4706,-4.4915,-4.4825,-4.4347,-4.3988,-4.3359,-4.247,-4.1782,-4.1085,-4.0427,-3.9948,-3.9679,-3.9679,0.0,0.0,0.0,0.0,0.0,0.0,0.0,0.0,0.0,-4.7938,-4.8386,-4.8626,-4.9553,0.0,-4.9853,-5.3593,-5.461,0.0,0.0,0.0,-5.6645,-5.5179,-5.5598,-5.6466,0.0,-5.3054,-5.2037,0.0,0.0,0.0,0.0,0.0,0.0,-4.1303,0.0,0.0,0.0,0.0,0.0,-5.1565,-5.3571,-5.4883,-5.3939,-5.5653,-5.6977,-5.568,-5.6196,-5.6833,-5.7077,-5.7129,-5.7286,-5.7843,-5.8523,-5.9307,-6.0117,-6.0901,-6.1894,-6.3306,-6.3593,-6.409,0.0,-6.5292,-6.5214,-6.4796,-6.477,-6.4953,-6.5371,-6.5371,-6.5684,-6.6286,-6.6834,-6.741,-6.8011,-6.856,-6.8764,-6.879,-6.9422,-6.9474,-6.9108,-6.9527,-6.9448,-6.9082,-6.8899,-6.8764,-6.8764,-6.8764,-6.9108,-6.9474,-6.9631,-6.9866,-7.0128,0.0,0.0,-4.0038,-4.0696,-4.1594,-4.2641,-4.3958,-4.4077,-4.4526,0.0,0.0,0.0,0.0,0.0,0.0,0.0,-4.4646,-4.3988,-4.321,-4.2551,-4.1893,-4.1235,-4.0576,-4.0098,-3.9828,-3.9948,-4.0307,0.0,0.0,0.0,0.0,0.0,0.0,0.0,0.0,0.0,0.0,0.0,0.0,0.0,-5.3204,-5.4401,-5.4431,-5.6346,-5.7274,-5.7363,-5.6047,0.0,-5.7274,-5.5598,-5.4401,0.0,0.0,0.0,0.0,0.0,0.0,0.0,0.0,0.0,0.0,0.0,0.0,0.0,-5.1161,-5.364,-5.5697,-5.5486,-5.6775,-5.7744,-5.699,-5.7324,-5.7556,-5.705,-5.6916,-5.7288,-5.8419,-5.8552,-5.905,-6.0588,-6.0743,-6.1424,-6.3149,-6.3306,-6.3907,-6.5292,-6.5371,-6.524,-6.49,-6.49,-6.5031,-6.5371,-6.5632,-6.6024,-6.6625,-6.72,-6.7775,-6.835,-6.869,-6.8764,-6.8764,-6.9187,-6.9161,-6.879,-6.9187,-6.9135,-6.8764,-6.8764,-6.8764,-6.8764,-6.8764,-6.9187,-6.9736,-6.9971,-7.0285,-7.0624,0.0,0.0,-4.0726,-4.1474,-4.2611,-4.3858,-4.5214,-4.5992,-4.6681,0.0,0.0,0.0,0.0,0.0,0.0,0.0,-4.5334,-4.4556,-4.4317,-4.3738,-4.312,-4.244,-4.1841,-4.1175,-4.0516,-3.9858,-3.9858,-4.0516,-4.1025,-4.1692,-4.241,0.0,0.0,0.0,-4.6232,-4.716,0.0,0.0,0.0,-5.0644,-5.2157,-5.3414,-5.464,-5.6585,-5.7752,-5.8171,-5.7034,-5.7363,-5.8112,-5.6735,-5.5448,0.0,0.0,0.0,0.0,0.0,-4.713,0.0,0.0,0.0,0.0,0.0,0.0,0.0,-4.9881,-5.2972,-5.5949,-5.6531,-5.7281,-5.7859,-5.7874,-5.8334,-5.8439,-5.7405,-5.724,-5.7803,-5.9466,-5.9009,-5.9245,-6.1461,-6.0927,-6.1091,-6.2975,-6.3136,-6.3796,-6.5686,-6.5871,-6.5766,-6.5371,-6.5529,-6.5608,-6.5371,-6.5972,-6.6547,-6.707,-6.7697,-6.8272,-6.8764,-6.8764,-6.8764,-6.8764,-6.8764,-6.8764,-6.8764,-6.8764,-6.8764,-6.8764,-6.8899,-6.8952,-6.8926,-6.879,-6.9239,-6.9866,-7.0389,-7.0598,-7.0677,-3.9888,-4.0636,-4.1564,-4.2761,-4.3559,-4.4586,-4.5903,-4.6681,-4.7369,-4.7997,0.0,0.0,0.0,0.0,0.0,0.0,0.0,0.0,-4.4436,-4.4197,-4.3599,-4.244,-4.2261,-4.1901,-4.1205,-4.0546,-4.0516,-4.1175,-4.0786,-4.1205,-4.241,0.0,0.0,0.0,-4.5035,-4.6292,0.0,0.0,0.0,-5.2815,-5.5179,-5.5987,-5.6017,-5.7962,-5.9129,-5.9668,-5.9428,-5.9488,-5.9428,-5.7543,-5.6406,-5.5628,0.0,0.0,0.0,0.0,0.0,0.0,0.0,0.0,0.0,0.0,0.0,0.0,0.0,-5.1365,-5.314,-5.314,-5.4944,-5.6334,-5.5807,-5.6244,-5.694,-5.7796,-5.7902,-5.8167,-5.8973,-5.8454,-5.9303,-6.2776,-6.1971,-6.234,-6.5324,-6.5018,-6.5714,-6.829,-6.8891,-6.8034,-6.5529,-6.6679,-6.673,-6.545,-6.5972,-6.6547,-6.707,-6.7697,-6.8272,-6.8764,-6.8764,-6.8764,-6.8764,-6.8764,-6.8764,-6.8764,-6.8764,-6.8764,-6.879,-6.9344,-6.9527,-6.9474,-6.903,-6.9501,-7.0442,-7.0546,-7.0598,-7.0729,-4.0277,-4.0935,-4.1893,-4.3539,-4.4377,-4.5364,-4.704,-4.7578,-4.8147,0.0,0.0,0.0,0.0,0.0,0.0,0.0,0.0,0.0,-4.689,-4.677,-4.6202,-4.4885,-4.3868,-4.303,-4.2372,-4.1384,-4.0876,-4.0876,-4.0876,-4.1235,-4.1931,0.0,0.0,0.0,0.0,0.0,0.0,0.0,-5.2247,-5.473,-5.5388,-5.6047,-5.6855,-5.883,-5.9787,-6.0116,-6.0475,-6.0386,-5.9877,-5.853,-5.7453,0.0,0.0,-5.479,-5.2935,0.0,-4.9823,-4.7908,0.0,0.0,0.0,-4.5014,0.0,0.0,0.0,-5.0471,-5.2102,-5.3023,-5.476,-5.604,-5.5681,-5.6756,-5.7368,-5.6708,-5.7705,-5.8579,-5.8531,-5.8709,-6.0088,-6.3334,-6.219,-6.2228,-6.5124,-6.5041,-6.5843,-6.8501,-6.9248,-6.865,-6.6226,-6.7188,-6.7561,-6.7079,-6.6845,-6.7344,-6.8759,-6.8501,-6.856,-6.8764,-6.8764,-6.8764,-6.8764,-6.8764,-6.8764,-6.8764,-6.8764,-6.8764,-6.879,-6.9161,-6.9448,-6.9684,-6.971,-6.9893,-7.018,-7.0494,-7.0755,-7.1069,-4.0696,-4.1294,-4.2372,-4.4347,-4.5155,-4.6112,-4.7997,-4.8506,-4.9164,0.0,0.0,0.0,0.0,0.0,0.0,0.0,0.0,0.0,0.0,-4.9958,-4.9314,-4.8117,-4.6022,-4.4646,-4.4067,-4.2551,-4.1444,-4.0786,-4.1175,-4.1482,0.0,0.0,0.0,0.0,0.0,0.0,0.0,0.0,0.0,-5.6158,-5.5299,-5.6137,-5.8052,-5.9817,-6.0475,-6.0535,-6.0954,-6.0745,-6.0206,-5.9668,-5.868,-5.7782,-5.8321,-5.6675,0.0,0.0,0.0,0.0,0.0,0.0,0.0,0.0,0.0,-4.6883,0.0,0.0,0.0,-5.2725,-5.4102,-5.5119,-5.5359,-5.6915,-5.7464,-5.5275,0.0,0.0,0.0,-5.8891,0.0,-6.3619,-6.2434,-6.2292,-6.4567,-6.5458,-6.6542,-6.8188,-6.9634,-6.9562,-6.7367,-6.8216,-6.8895,-6.9269,-6.8489,-6.8973,-7.097,-7.0179,-6.9624,-6.932,-6.932,-6.9071,-6.8764,-6.8764,-6.8764,-6.8764,-6.8764,-6.8764,-6.8764,-6.8978,-6.9213,-6.9579,-7.0076,-7.0023,-6.9762,-7.0363,-7.0807,-7.1121,-4.2261,-4.2671,-4.3708,-4.5711,-4.613,-4.6681,-4.8087,-4.9284,-5.069,0.0,0.0,0.0,0.0,0.0,0.0,0.0,0.0,0.0,-5.2845,-5.2187,0.0,-5.081,-4.8327,-4.692,-4.686,-4.4366,-4.2791,-4.2171,-4.1662,0.0,0.0,0.0,0.0,0.0,-4.7339,0.0,0.0,0.0,-5.5418,0.0,-5.7274,-5.889,0.0,-6.1553,-6.1882,-6.1792,-6.1313,-6.1074,-6.0984,0.0,-6.0386,-5.9757,0.0,-5.9608,-5.883,0.0,0.0,0.0,0.0,0.0,0.0,0.0,-4.7909,0.0,0.0,0.0,-4.8686,-4.8925,0.0,0.0,0.0,0.0,0.0,0.0,0.0,0.0,-5.6467,-5.8029,-6.0384,-6.3622,-6.369,-6.4076,-6.567,-6.9006,-7.0378,-6.8672,-7.265,-7.3303,-6.9146,-7.0848,-7.1621,-7.0838,-7.1198,-7.1813,-7.2735,-7.3041,-7.251,-7.1015,-7.1015,-7.0255,-6.8764,-6.8764,-6.8764,-6.8764,-6.8764,-6.8764,-6.879,-6.9396,-6.9344,-6.8952,-6.903,-6.9318,-6.9762,-7.0363,-7.0285,-7.0102,-4.306,-4.3449,-4.4366,-4.601,-4.6651,-4.7339,-4.87,-5.096,-5.2965,0.0,0.0,0.0,0.0,0.0,0.0,0.0,0.0,-5.6615,-5.5029,0.0,0.0,0.0,-4.9434,-4.7908,-4.677,-4.5592,-4.4336,-4.291,-4.303,0.0,0.0,0.0,0.0,0.0,-4.852,0.0,-5.3432,0.0,-5.7244,0.0,0.0,-6.1283,0.0,-6.1553,-6.1164,-6.1493,-6.1224,-6.1104,-6.1104,0.0,-6.1164,0.0,0.0,0.0,0.0,0.0,0.0,0.0,0.0,0.0,0.0,0.0,0.0,0.0,-4.8476,0.0,-4.8626,0.0,0.0,0.0,0.0,0.0,0.0,0.0,-5.3892,0.0,0.0,0.0,0.0,0.0,0.0,0.0,-6.5801,-6.8914,-7.039,-6.9506,-7.238,-7.2896,-7.0063,-7.1162,-7.2287,-7.3059,-7.2377,-7.2896,-7.4877,-7.414,-7.3427,-7.2719,-7.1793,-7.1419,-7.1632,-6.9707,-6.932,-7.0173,-6.9237,-6.8764,-6.879,-6.9108,-6.9056,-6.8764,-6.8764,-6.9187,-6.9736,-6.9971,-7.0337,-7.0703,-4.3738,0.0,-4.5185,-4.61,-4.701,-4.8147,-4.9868,-5.2426,-5.4521,-5.5359,-5.6735,-5.7663,-5.7663,-5.7962,0.0,0.0,-5.865,-5.8381,-5.7064,-5.6974,-5.5807,-5.3234,-5.1319,-4.9673,-4.8237,-4.7309,-4.592,-4.4127,0.0,0.0,0.0,0.0,0.0,0.0,0.0,-5.1708,-5.5469,0.0,-5.865,-6.1283,-6.1164,-6.2032,-6.3169,-6.1134,-6.0685,-6.1104,-6.0894,-6.1074,-6.1373,-6.1164,-6.1553,0.0,-6.0954,0.0,0.0,0.0,0.0,0.0,-5.4162,0.0,0.0,0.0,0.0,0.0,0.0,0.0,0.0,0.0,0.0,0.0,0.0,0.0,0.0,0.0,0.0,0.0,0.0,0.0,0.0,0.0,0.0,0.0,0.0,-6.8046,-6.9632,-6.9453,0.0,-7.2514,-7.0956,-7.1677,-7.3035,-7.4864,-7.3702,-7.4234,-7.6725,-7.5502,-7.4725,-7.4436,-7.327,-7.3034,-7.3739,-7.1257,-7.0853,-7.1953,-7.0718,-7.0173,-7.0173,-6.9707,-6.9459,-6.9459,-6.8988,-6.9187,-6.9684,-6.9684,-7.0337,-7.1069,-4.4556,-4.5323,-4.6219,-4.6279,-4.7399,-4.9134,-5.1708,-5.3294,-5.467,-5.5987,-5.7842,-5.9039,-5.9039,-6.0206,-6.0984,0.0,-6.1014,-6.0446,-5.9099,-5.9009,-5.868,-5.7932,-5.479,-5.3025,-5.2965,-4.9853,-4.7578,-4.619,0.0,0.0,0.0,0.0,0.0,0.0,0.0,-5.1349,-5.3533,-5.7363,-5.9069,-5.9308,-6.0595,-6.0386,-5.9428,0.0,-6.1104,-6.1014,-6.0356,0.0,0.0,-6.1343,-6.1553,0.0,0.0,0.0,0.0,0.0,0.0,0.0,0.0,0.0,0.0,-5.5807,0.0,0.0,0.0,0.0,-4.9956,0.0,0.0,0.0,0.0,0.0,0.0,0.0,0.0,0.0,0.0,0.0,0.0,0.0,0.0,0.0,0.0,0.0,0.0,0.0,0.0,0.0,-7.19,-7.3096,-7.4441,-7.5817,-7.5777,-7.6404,-7.776,-7.7688,-7.7163,-7.6213,-7.6138,-7.5278,-7.3816,-7.3661,-7.3661,-7.3739,-7.3661,-7.3661,-7.3505,-7.1873,-7.1257,-7.1015,-6.9459,-6.9187,-6.9684,-6.9684,-7.0076,-7.0624,0.0,0.0,-4.683,-4.6411,-4.7788,-4.9823,-5.2456,-5.4371,-5.5807,-5.6675,-5.853,-5.9757,-5.9757,-6.0565,-6.1283,-6.1732,-6.1762,-6.1373,-6.0475,-6.0446,-5.9548,-5.7543,-5.5987,-5.4341,-5.2576,-5.102,-4.9164,0.0,0.0,0.0,0.0,0.0,0.0,0.0,0.0,-5.2636,0.0,0.0,0.0,0.0,0.0,-6.1882,-6.1044,0.0,-6.0446,-6.0475,-6.0685,-6.1343,0.0,-6.1852,-6.248,-6.3139,-6.1852,-6.2061,-6.254,-6.1433,-6.0805,0.0,0.0,0.0,-5.865,-5.6675,0.0,0.0,0.0,0.0,0.0,0.0,0.0,0.0,0.0,0.0,0.0,0.0,0.0,0.0,0.0,0.0,0.0,0.0,0.0,0.0,0.0,0.0,0.0,0.0,0.0,0.0,0.0,-7.2703,-7.3978,-7.488,-7.5751,-7.6653,-7.7555,-7.7734,-7.7844,-7.7931,-7.684,-7.6616,-7.6988,-7.482,-7.4436,-7.5354,-7.4281,-7.3816,-7.3739,-7.3192,-7.2956,-7.2877,-7.2351,-7.1772,-7.1139,-6.9658,-6.9762,-7.0598,-4.5992,-4.6681,-4.716,-4.6741,-4.8506,-5.078,-5.3174,-5.5239,-5.6735,-5.7363,-5.9398,-6.0535,-5.9817,-6.0775,-6.1433,-6.1373,-6.1613,-6.1762,-6.1822,-6.1373,-6.0446,-5.8949,-5.7812,-5.6286,-5.4341,0.0,0.0,0.0,0.0,-4.7219,0.0,0.0,0.0,0.0,0.0,-5.2785,-5.5628,-5.6885,-5.9727,0.0,0.0,-6.2331,0.0,0.0,-6.1074,-6.1433,0.0,-6.1672,-6.2361,-6.1912,-6.245,-6.3109,-6.1852,-6.2061,-6.257,-6.1702,-6.1463,-6.1313,-6.0625,-6.0775,0.0,-5.874,-5.9518,0.0,-5.7812,0.0,0.0,0.0,0.0,0.0,0.0,0.0,0.0,0.0,0.0,0.0,0.0,0.0,0.0,0.0,0.0,0.0,0.0,0.0,0.0,0.0,0.0,0.0,0.0,0.0,-7.3562,-7.4191,-7.5587,-7.6463,-7.6848,-7.7375,-7.8014,-7.8675,-7.7666,-7.7784,-7.8717,-7.6542,-7.6138,-7.7166,-7.6063,-7.561,-7.5534,-7.4896,-7.4666,-7.459,-7.4049,-7.3364,-7.2473,-7.047,-6.9794,-7.0056,-4.5633,-4.6561,-4.7519,-4.7549,-4.9673,-5.2007,-5.3952,-5.5957,-5.7483,-5.8082,-6.0475,-6.1373,-5.9458,-6.0984,-6.1642,-6.0356,-6.0864,-6.1762,-6.2959,-6.1912,-6.1493,-6.2061,-6.0236,-5.889,-5.8231,0.0,0.0,0.0,0.0,0.0,0.0,0.0,0.0,0.0,-4.9389,0.0,-5.6226,-5.6226,-5.8441,-6.2002,-6.2061,-6.1762,-6.1313,-6.1882,-6.2899,-6.3797,-6.1882,-6.2002,-6.2899,-6.1642,-6.1613,-6.2121,-6.2121,-6.2091,-6.2091,-6.2091,-6.2091,-6.1972,-6.1343,-6.1164,-6.1313,-6.1852,-6.1074,0.0,0.0,0.0,-5.8471,0.0,0.0,0.0,0.0,0.0,0.0,0.0,0.0,0.0,0.0,0.0,0.0,0.0,0.0,0.0,0.0,0.0,0.0,0.0,0.0,0.0,0.0,0.0,-7.3282,-7.3859,-7.5225,-7.5954,-7.5923,-7.6917,-7.7735,-7.8469,-7.8705,-7.8861,-7.8861,-7.8789,-7.8789,-7.8861,-7.8789,-7.8789,-7.8717,-7.7092,-7.6438,-7.6288,-7.4666,-7.3972,-7.3739,-7.2032,-7.0392,-6.932,-4.8386,-4.9314,-5.0361,-5.087,-5.2336,-5.3773,-5.479,-5.7423,-5.9189,-5.889,-6.0745,-6.1912,-6.1403,-6.2241,-6.269,-6.2331,-6.2899,-6.2989,-6.2391,-6.2929,0.0,-6.2121,-6.1134,-6.0266,-5.9608,-5.7004,0.0,-5.3174,0.0,0.0,-4.8267,0.0,0.0,0.0,0.0,0.0,-5.6855,-5.6855,-5.8321,-6.0685,-6.1702,-6.257,0.0,0.0,-6.3199,-6.4575,-6.3109,-6.278,-6.3019,-6.269,-6.269,-6.275,-6.2241,-6.2091,-6.2091,-6.2091,-6.2091,-6.2061,-6.1882,-6.1852,-6.1642,-6.0805,-6.1104,-6.1613,0.0,0.0,0.0,0.0,0.0,0.0,0.0,0.0,0.0,0.0,0.0,0.0,0.0,0.0,0.0,0.0,0.0,0.0,0.0,0.0,0.0,0.0,0.0,0.0,0.0,0.0,0.0,-7.3608,-7.5378,-7.6355,-7.6385,-7.7259,-7.8122,-7.8789,-7.9102,-7.9363,-7.9617,-7.9076,-7.8933,-7.922,-7.8933,-7.8789,-7.8789,-7.8325,-7.8179,-7.8077,-7.7681,-7.6765,-7.5459,-7.3816,-7.2877,-7.2561,-5.0182,-5.1169,-5.2366,-5.3324,-5.5089,-5.6376,-5.6466,-5.877,-6.0505,-6.0416,-6.2151,-6.3049,-6.2181,-6.2929,-6.3378,-6.3109,-6.3647,-6.3947,-6.3827,0.0,0.0,-6.2959,-6.2032,-6.1224,-6.0565,-5.8501,0.0,-5.4491,0.0,0.0,-4.876,0.0,0.0,0.0,0.0,-5.3144,-5.7184,-5.865,-5.9937,-6.1044,-6.2121,0.0,0.0,-6.281,-6.3228,-6.4126,-6.3647,-6.3318,-6.3109,-6.3378,-6.3468,-6.3468,-6.3408,-6.3378,-6.3378,-6.3378,-6.3378,-6.3318,-6.3019,-6.2929,-6.269,-6.1642,-6.1972,-6.266,-6.3258,-6.266,-6.2421,0.0,0.0,0.0,0.0,0.0,0.0,0.0,0.0,0.0,0.0,0.0,0.0,0.0,0.0,0.0,0.0,0.0,0.0,0.0,0.0,0.0,0.0,0.0,0.0,-7.3317,-7.5556,-7.641,-7.5828,-7.7697,-7.862,-7.8711,-7.9194,-7.9576,-7.99,-7.9291,-7.9148,-7.9363,-7.9148,-7.8933,-7.8789,-7.8789,-7.8789,-7.8789,-7.8789,-7.8252,-7.7313,-7.6288,-7.5049,-7.3894,-5.1738,-5.2725,-5.3982,-5.5329,-5.7603,-5.9099,-5.871,-6.0206,-6.1583,-6.2151,-6.3707,-6.4156,-6.251,-6.3258,-6.3707,-6.3228,-6.3767,-6.4635,-6.5802,-6.4784,-6.4126,-6.4126,-6.2839,-6.1882,-6.1373,-6.0057,-5.8441,0.0,0.0,0.0,0.0,0.0,0.0,0.0,0.0,0.0,0.0,-6.0864,-6.2181,-6.2151,-6.2899,-6.3199,-6.3199,-6.3288,-6.3318,-6.3408,-6.3947,-6.3737,-6.3288,-6.3917,-6.4126,-6.4246,-6.4844,-6.5024,-6.5024,-6.5024,-6.5024,-6.4904,-6.4306,-6.4066,-6.3857,-6.3318,-6.3139,-6.3408,-6.4605,-6.4006,-6.3857,-6.6251,-6.4006,-6.251,0.0,0.0,0.0,0.0,0.0,0.0,0.0,0.0,0.0,0.0,0.0,0.0,0.0,0.0,0.0,0.0,0.0,0.0,0.0,0.0,0.0,-7.3106,-7.5569,-7.6369,-7.5261,0.0,-7.9216,-7.8757,-7.9284,-7.9718,-8.0041,-7.9647,-7.9505,-7.9505,-7.9434,-7.922,-7.8861,-7.8789,-7.8789,-7.8789,-7.8789,-7.8789,-7.8789,-7.8789,-7.6914,-7.4666,-5.4491,-5.5119,-5.6077,-5.7393,-5.889,-6.0266,-6.1253,-6.2151,-6.278,-6.2899,-6.3199,-6.3468,-6.3647,-6.3408,-6.3408,-6.3797,-6.4455,0.0,0.0,0.0,0.0,-6.4844,-6.3079,-6.2301,-6.272,-6.1433,-6.0057,0.0,0.0,0.0,0.0,0.0,0.0,0.0,0.0,0.0,-5.9697,-6.1942,0.0,-6.2211,-6.3378,-6.3827,-6.3887,-6.4485,-6.4695,-6.4695,-6.4814,-6.4425,-6.3947,-6.4605,-6.4844,-6.4874,-6.4934,-6.5024,-6.5024,-6.5024,-6.5024,-6.4934,-6.4874,-6.4425,-6.3977,-6.3857,-6.3468,-6.3258,-6.4006,-6.4006,-6.4126,-6.5173,-6.4814,-6.4515,-6.5084,0.0,0.0,0.0,0.0,0.0,0.0,0.0,0.0,0.0,0.0,0.0,0.0,0.0,0.0,0.0,0.0,0.0,0.0,0.0,0.0,0.0,-7.5353,0.0,0.0,0.0,-7.9373,-7.9803,-8.0125,-8.0492,-8.084,-8.0111,-7.9971,-8.0282,-7.9647,-7.9363,-7.9291,-7.8933,-7.8789,-7.8789,-7.8789,-7.8789,-7.8789,-7.8789,-7.8397,-7.7931,-5.6645,-5.7513,-5.8411,-5.9039,-6.0805,-6.2211,-6.254,-6.3438,-6.4096,-6.4096,-6.4395,-6.4575,-6.4545,-6.3947,-6.3947,-6.4964,-6.5353,-6.5682,-6.6011,-6.637,-6.5951,-6.4545,-6.3947,-6.3288,-6.26,-6.2271,-6.1134,-5.9099,0.0,0.0,0.0,0.0,0.0,0.0,0.0,-5.8471,0.0,0.0,0.0,-6.269,-6.3617,-6.4006,-6.4066,-6.4755,-6.5024,-6.5084,-6.5413,-6.5323,-6.5084,-6.5413,-6.5533,-6.5592,-6.5951,-6.6041,-6.6041,-6.6041,-6.6041,-6.5981,-6.5622,-6.5293,-6.4964,-6.4635,-6.4306,-6.4246,-6.4904,-6.5054,-6.5233,-6.5892,-6.5772,-6.5593,-6.5772,-6.5891,0.0,0.0,0.0,0.0,0.0,0.0,0.0,0.0,0.0,0.0,0.0,0.0,0.0,0.0,0.0,0.0,0.0,0.0,0.0,0.0,0.0,0.0,-7.5969,0.0,0.0,-7.9601,-8.0242,-8.0701,-8.1079,-8.0492,-8.0322,-8.0492,-7.993,-7.9576,-7.9363,-7.8933,-7.8789,-7.8789,-7.8789,-7.8789,-7.8789,-7.8789,-7.9028,-7.9267,-5.88,-5.9787,-6.0595,-6.0864,-6.275,-6.4096,-6.3767,-6.4814,-6.5562,-6.5263,-6.5682,-6.5862,-6.5473,-6.4964,-6.5114,-6.6311,-6.643,-6.67,-6.7388,-6.7777,-6.7089,-6.5144,-6.5173,-6.4455,-6.275,-6.3079,-6.2032,0.0,0.0,0.0,0.0,0.0,0.0,0.0,0.0,0.0,0.0,0.0,-6.269,-6.3318,-6.3947,-6.4306,-6.4515,-6.5173,-6.5443,-6.5503,-6.6041,-6.6221,-6.6221,-6.6221,-6.6221,-6.6311,-6.6819,-6.6999,-6.6999,-6.6999,-6.6999,-6.6879,-6.637,-6.6221,-6.6101,-6.5592,-6.5443,-6.5533,-6.5922,-6.6221,-6.652,-6.6909,-6.6641,-6.6432,-6.6824,-6.7216,0.0,0.0,0.0,0.0,0.0,0.0,0.0,0.0,0.0,0.0,0.0,0.0,0.0,0.0,0.0,0.0,0.0,0.0,0.0,0.0,0.0,-7.5907,-7.5661,0.0,-7.954,-7.9324,-8.0065,-8.0648,-8.1079,-8.0771,-8.0632,-8.0632,-8.0182,-7.986,-7.9434,-7.9005,-7.8861,-7.8933,-7.8861,-7.8789,-7.8819,-7.8938,-7.9357,-7.9746,-6.1463,-6.1822,-6.2271,-6.3438,-6.4366,-6.5114,-6.5652,-6.6849,-6.7268,-6.6071,-6.5981,-6.6221,-6.6759,-6.6759,-6.6999,-6.7717,-6.7777,-6.8076,-6.8764,-6.8286,-6.8136,-6.8525,-6.6849,-6.5562,-6.4784,-6.4186,-6.2929,0.0,0.0,-5.9697,0.0,0.0,0.0,0.0,0.0,0.0,0.0,-6.272,-6.3348,-6.3977,-6.4665,-6.5293,-6.5892,-6.655,-6.6819,-6.6819,-6.6879,-6.6909,-6.6909,-6.6909,-6.6909,-6.6909,-6.6969,-6.6999,-6.6999,-6.6999,-6.6999,-6.6969,-6.6909,-6.6909,-6.6879,-6.6819,-6.6819,-6.667,-6.6131,-6.6939,-6.7627,-6.7089,-6.7183,-6.7577,-6.818,-6.7848,-6.833,0.0,0.0,0.0,0.0,0.0,0.0,0.0,0.0,0.0,0.0,0.0,0.0,0.0,0.0,0.0,0.0,0.0,0.0,-7.4769,-7.56,-7.6554,-7.7724,-7.8062,-7.8832,-8.0032,-8.0087,-8.0494,-8.1079,-8.1079,-8.1079,-8.101,-8.0632,-8.0182,-7.983,-7.9076,-7.9005,-7.9291,-7.8933,-7.8789,-7.8878,-7.9477,-7.9776,-7.9896,-6.4932,-6.4976,-6.4995,-6.5143,-6.6101,-6.6879,-6.7148,-6.7986,-6.8405,-6.7867,-6.7448,-6.7298,-6.7537,-6.7238,-6.7418,-6.8495,-6.8585,-6.8884,-6.9542,-6.9333,-6.8944,-6.8405,-6.7627,-6.67,-6.5652,-6.4964,-6.4036,0.0,0.0,0.0,0.0,0.0,0.0,0.0,0.0,-6.2061,-6.275,-6.3797,-6.4156,-6.4096,-6.5173,-6.5772,-6.6071,-6.6729,-6.6999,-6.6999,-6.6999,-6.6999,-6.6999,-6.6999,-6.6999,-6.6999,-6.6999,-6.6999,-6.6999,-6.6999,-6.6999,-6.6999,-6.6999,-6.6999,-6.6999,-6.6999,-6.6999,-6.6909,-6.667,-6.7627,-6.8468,-6.8026,-6.8636,-6.9367,-6.9641,-7.0098,-7.0496,0.0,0.0,0.0,0.0,0.0,0.0,0.0,0.0,0.0,0.0,0.0,0.0,0.0,0.0,0.0,0.0,0.0,0.0,-7.5569,0.0,-7.6061,-7.7416,-7.7816,-7.8308,-7.8862,-7.9724,-8.0248,-8.0494,-8.0894,-8.0979,-8.0701,-8.0562,-8.0252,-7.99,-7.9546,-7.9434,-7.9423,-7.9701,-7.9635,-7.9477,-8.0165,-8.0644,-8.1033,-6.8015,-6.8158,-6.8188,-6.8052,-6.8456,-6.8906,-6.9088,-6.9196,-6.9363,-6.9542,-6.9123,-6.8764,-6.8585,-6.8315,-6.8525,-6.9482,-6.9572,-6.9752,-7.0231,-7.026,-6.9842,-6.8884,-6.8645,0.0,-6.661,-6.5951,-6.4994,-6.3737,-6.3677,0.0,0.0,-6.1523,-6.2151,0.0,-6.26,-6.275,-6.3408,-6.4336,-6.4784,-6.4934,-6.5712,-6.6251,-6.661,-6.6879,-6.6999,-6.6999,-6.6999,-6.6999,-6.6999,-6.6999,-6.6999,-6.6999,-6.6999,-6.6999,-6.6999,-6.6999,-6.6999,-6.6999,-6.6999,-6.6999,-6.6999,-6.6999,-6.6999,-6.6999,-6.6999,-6.8046,-6.9037,-6.9168,-6.994,-7.0617,-7.0617,-7.1352,-7.169,-7.1046,0.0,0.0,0.0,0.0,0.0,0.0,0.0,0.0,0.0,0.0,0.0,0.0,0.0,0.0,0.0,0.0,0.0,0.0,0.0,0.0,-7.7016,-7.7508,-7.7939,-7.837,-7.9355,-8.0001,-8.0402,-8.0863,-8.094,-8.0701,-8.0562,-8.0422,-8.0252,-7.9971,-7.988,-7.9867,-8.0351,-8.0436,-8.0342,-8.1001,-8.1541,-8.1961,-7.0521,-7.1217,-7.1914,-7.261,-7.1693,-7.1044,-7.169,-7.0759,-7.0201,-7.0799,-7.0859,-7.0649,-7.0021,-7.05,-7.0859,-7.0889,-7.0889,-7.0889,-7.0889,-7.0889,-7.0889,0.0,0.0,-6.9333,-6.7986,-6.7298,-6.5682,-6.3079,0.0,0.0,-5.7184,-5.7872,-5.9937,-6.3079,-6.3079,-6.3408,-6.3977,-6.4006,-6.5144,-6.6909,-6.6251,-6.6789,-6.7867,-6.7238,-6.6999,-6.6999,-6.6999,-6.6999,-6.6999,-6.6999,-6.6999,-6.6999,-6.6999,-6.6999,-6.6999,-6.6999,-6.6999,-6.6999,-6.6999,-6.6999,-6.6999,-6.6999,-6.6999,-6.6999,-6.6999,-6.8046,-6.9363,-7.062,-7.0863,-7.0882,-7.0882,-7.0893,-7.1445,-7.3094,0.0,0.0,0.0,0.0,0.0,0.0,0.0,-7.4399,-7.3076,-7.4184,0.0,0.0,-7.3199,0.0,0.0,-7.286,-7.4307,-7.4984,-7.5661,0.0,-7.7016,-7.7016,-7.7724,-7.9078,-7.9109,-7.9786,-8.1048,-8.1079,-8.1079,-8.1079,-8.0701,-8.0701,-8.101,-8.0182,-8.0295,-8.0861,-8.0932,-8.1141,-8.1473,-8.2136,-8.2377,-8.2393,-7.4153,-7.3826,-7.3355,-7.2314,-7.1778,-7.1445,-7.1208,-7.0847,-7.0679,-7.0889,-7.0889,-7.0829,-7.062,-7.0769,-7.0889,0.0,-7.0889,-7.0889,0.0,-7.0889,-7.0889,-7.0889,-7.032,-6.9782,-6.9363,-6.7807,-6.658,-6.5742,0.0,0.0,0.0,-6.2241,-6.269,-6.3707,-6.4186,-6.4246,-6.4096,-6.5443,-6.6161,-6.634,-6.658,-6.6939,-6.7268,-6.7059,-6.6999,-6.6999,-6.6999,-6.6999,-6.7059,-6.7508,-6.7657,-6.7747,-6.8226,-6.7747,-6.6999,-6.6999,-6.6999,-6.6999,-6.6999,-6.6999,-6.706,-6.7304,-6.7182,-6.7121,-6.7608,-6.9243,-7.1099,-7.2405,-7.2845,-7.3008,-7.3008,-7.3043,-7.3013,-7.3135,-7.2675,0.0,0.0,0.0,0.0,0.0,0.0,-7.2029,0.0,-7.2798,0.0,0.0,0.0,0.0,-7.246,-7.3383,0.0,0.0,-7.5446,0.0,-7.7693,-7.7262,-7.7477,-7.837,-7.8862,-7.9786,-8.1079,-8.1079,-8.1079,-8.1079,-8.0979,-8.0979,-8.1079,-8.084,-8.096,-8.1319,-8.1807,-8.22,-8.2534,-8.2978,-8.307,-8.3025,-7.6474,-7.5787,-7.4976,-7.3836,-7.2823,-7.2027,-7.1668,-7.1212,-7.0889,-7.0889,-7.0889,-7.0889,-7.0889,-7.0889,0.0,-7.0889,-7.0889,-7.0889,-7.0889,-7.0889,-7.0889,-7.0889,-7.053,-7.0231,-6.9991,-6.8764,0.0,-6.7358,-6.6281,-6.5772,-6.5742,-6.5323,-6.5114,-6.5144,-6.5323,-6.5293,-6.5173,-6.6191,-6.6819,-6.7148,-6.7298,-6.7508,-6.7717,-6.7448,-6.7358,-6.7358,-6.7358,-6.7537,-6.7807,-6.8226,-6.8375,-6.8435,-6.8854,-6.8435,-6.7747,-6.7747,-6.7747,-6.7747,-6.7747,-6.7871,-6.7964,-6.821,-6.8149,-6.8361,-6.9275,-7.0553,-7.1924,-7.3361,-7.3986,-7.4178,-7.4178,-7.4305,-7.4245,-7.3814,-7.3753,-7.3506,-7.2829,0.0,0.0,0.0,0.0,0.0,0.0,-7.3537,-7.3722,0.0,0.0,0.0,-7.3076,0.0,-7.4892,-7.523,-7.5076,-7.5723,-7.7262,-7.7354,-7.7754,-7.8432,-7.9386,-8.0278,-8.1079,-8.1079,-8.1079,-8.1079,-8.1079,-8.1079,-8.1079,-8.1356,-8.1639,-8.196,-8.2775,-8.3305,-8.3538,-8.3563,-8.3596,-8.3521,-7.7835,-7.7249,-7.6863,-7.6629,-7.4593,-7.2922,-7.2705,-7.1695,-7.0889,-7.0889,-7.0889,-7.0889,-7.0889,-7.0889,-7.0889,-7.0889,0.0,0.0,-7.0889,-7.0889,-7.0889,-7.0889,-7.0889,-7.0649,-7.0051,-6.9991,-6.9333,-6.8046,-6.7418,-6.7119,-6.7119,-6.7119,-6.7119,-6.7029,-6.646,-6.649,-6.6939,-6.637,-6.7208,-6.8794,-6.8166,-6.8315,-6.8854,-6.8226,-6.8016,-6.8046,-6.8046,-6.8528,-6.9067,-6.9127,-6.9127,-6.9127,-6.9187,-6.9217,-6.9187,-6.9097,-6.9004,-6.9004,-6.9004,-6.9226,-6.9446,-6.9508,-6.9757,-7.0369,-7.1706,-7.1816,-7.2111,-7.3803,-7.4402,-7.4596,-7.4596,-7.4884,-7.5046,-7.5015,-7.5046,-7.483,-7.4153,0.0,0.0,0.0,0.0,0.0,-7.6769,-7.5661,-7.4491,0.0,0.0,0.0,0.0,0.0,-7.5446,-7.4091,-7.4769,-7.5476,-7.6154,-7.7447,-7.8462,-7.9201,-8.0463,-8.1079,-8.1079,-8.1079,-8.1079,-8.1079,-8.1079,-8.1079,-8.111,-8.1787,-8.2283,-8.2673,-8.3706,-8.4279,-8.4497,-8.4055,-8.3938,-8.3863,-8.0615,-8.0306,-7.9264,-7.6831,-7.5677,-7.425,-7.1756,-7.1083,-7.0889,-7.0889,-7.0889,-7.0889,-7.0889,-7.0889,-7.0889,-7.0889,-7.0889,-7.0889,-7.0889,-7.0889,-7.0889,-7.0889,-7.0889,-7.0829,-7.0679,-7.0231,-6.9572,-6.8764,-6.8585,-6.8525,-6.8525,-6.8525,-6.8256,-6.7747,-6.8136,-6.7807,-6.6999,-6.7358,-6.7478,-6.7448,-6.7298,-6.7627,-6.8196,-6.8016,-6.8315,-6.8764,-6.8764,-6.9043,-6.9474,-6.9953,-7.0293,-7.0635,-7.1117,-7.1268,-7.1056,-6.9778,-6.9163,-6.9067,-6.9288,-6.9226,-6.9163,-6.9384,-6.9695,-7.0307,-7.1706,-7.2533,-7.3486,-7.5154,-7.5559,-7.5624,-7.5624,-7.5689,-7.56,-7.5076,-7.5446,-7.5538,-7.4861,-7.4892,0.0,0.0,-7.5323,-7.5107,-7.4738,-7.443,-7.4953,0.0,0.0,-7.6154,-7.757,-7.7108,-7.6154,-7.4799,-7.5907,-7.6862,-7.7539,-7.8401,-7.9201,-7.9878,-8.0679,-8.1079,-8.1079,-8.1079,-8.1079,-8.1079,-8.1079,-8.1079,-8.111,-8.1787,-8.2394,-8.2999,-8.3818,-8.4423,-8.4862,-8.4497,-8.435,-8.4277,-8.1665,-8.0883,-7.9711,-7.7945,-7.6405,-7.5029,-7.3814,-7.2603,-7.2049,-7.2668,-7.2179,-7.1816,-7.1816,-7.1547,-7.1368,-7.1368,-7.1068,-7.0889,-7.0889,-7.0889,-7.0889,-7.0889,-7.0889,-7.0889,-7.0889,-7.056,-7.0231,-6.9871,-6.9871,-6.9871,-6.9871,-6.9871,-6.9512,-6.8914,-6.9273,-6.8704,-6.7478,-6.8166,-6.8226,-6.7926,-6.8226,-6.8585,-6.8884,-6.8884,-6.9123,-6.9453,-6.9453,-6.9759,-7.022,-7.0547,-7.0923,-7.1271,-7.1601,-7.185,-7.1855,-7.1097,-7.0633,-7.0411,-7.057,-7.0633,-7.0696,-7.0979,-7.1072,-7.1378,-7.2634,-7.3461,-7.4354,-7.572,-7.6246,-7.6461,-7.6461,-7.6461,-7.6338,-7.5969,-7.6246,-7.6246,-7.5569,-7.5723,-7.5815,-7.5507,-7.5476,-7.5323,-7.4953,-7.4645,-7.5076,-7.6523,-7.6246,0.0,-7.7631,-7.7262,-7.6554,-7.5507,-7.6461,-7.7354,-7.8031,-7.8739,-7.9293,-7.9663,-8.0001,-8.034,-8.0617,-8.0617,-8.0802,-8.1079,-8.1079,-8.1079,-8.114,-8.2125,-8.2772,-8.3203,-8.4188,-8.4773,-8.5039,-8.4643,-8.4497,-8.4424,-8.2194,-8.0962,-7.9968,-7.9667,-7.7404,-7.5995,-7.6886,-7.4925,-7.3693,-7.483,-7.3824,-7.299,-7.2924,-7.2385,-7.2056,-7.2056,-7.1517,-7.1128,-7.0919,-7.0889,-7.0889,-7.0889,-7.0889,-7.0889,-7.0889,-7.0889,-7.0889,-7.0889,-7.0889,-7.0889,-7.0889,-7.0889,-7.062,-7.0111,-7.0111,-6.9482,-6.8465,-6.9034,-6.9303,-6.9333,-6.9901,-7.0171,-7.026,-7.0141,-7.0171,-7.026,-7.0141,-7.0534,-7.0954,-7.1048,-7.1307,-7.1533,-7.1628,-7.1913,-7.2198,-7.2483,-7.2357,-7.2134,-7.2134,-7.2231,-7.2483,-7.2796,-7.2671,-7.2699,-7.3719,-7.4237,-7.4783,-7.5812,-7.6554,-7.7016,-7.7016,-7.7016,-7.7108,-7.7447,-7.7231,-7.6923,-7.6677,-7.6862,-7.68,-7.6215,-7.6154,-7.6154,-7.6154,-7.5661,-7.5292,-7.5292,-7.5938,-7.6308,-7.6308,-7.6954,-7.7077,-7.6492,-7.7046,-7.7662,-7.8339,-7.8955,-7.9201,-7.9109,-7.9109,-7.9447,-8.0094,-8.0094,-8.0463,-8.1079,-8.1079,-8.114,-8.1325,-8.2587,-8.3141,-8.3357,-8.4619,-8.5111,-8.5039,-8.4717,-8.457,-8.4497,-8.4142,-8.3786,-8.292,-8.119,-8.0091,-7.9048,-7.7847,-7.618,-7.5052,-7.5212,-7.4089,-7.3226,-7.2924,-7.2834,-7.2744,-7.2744,-7.2654,-7.2116,-7.0979,-7.0889,-7.0889,-7.0889,-7.0889,-7.0889,-7.0889,-7.0889,-7.0889,-7.0889,-7.0889,-7.0889,-7.0889,-7.0889,-7.0859,-7.0769,-7.0769,-7.0649,-7.047,-7.056,-7.062,-7.062,-7.0709,-7.1098,-7.1517,-7.0979,-7.1098,-7.1517,-7.0949,-7.1023,-7.1371,-7.1722,-7.204,-7.2389,-7.264,-7.2796,-7.2859,-7.2921,-7.2921,-7.2796,-7.2483,-7.2231,-7.2134,-7.2104,-7.2134,-7.235,-7.3308,-7.4045,-7.4783,-7.5812,-7.6554,-7.7016,-7.7016,-7.7016,-7.76,-7.9355,-7.8154,-7.76,-7.9232,-7.8062,-7.6985,-7.6892,-7.6862,-7.6862,-7.6862,-7.6769,-7.6708,-7.6708,-7.7323,-7.7724,-7.7724,-7.8401,-7.8739,-7.8616,-7.8709,-7.9109,-7.9786,-7.9909,-7.9663,-7.9109,-7.9109,-7.9447,-8.0094,-8.0094,-8.0463,-8.1079,-8.1079,-8.1387,-8.1971,-8.2772,-8.3418,-8.4003,-8.4803,-8.5111,-8.5111,-8.5039,-8.5039,-8.4966,-8.464,-8.4372,-8.3913,-8.2986,-8.1883,-8.1123,-8.1024,-7.9175,-7.7714,-7.7496,-7.6327,-7.512,-7.4106,-7.3642,-7.3432,-7.3432,-7.3133,-7.2654,-7.2026,-7.1996,-7.1816,-7.1457,-7.1427,-7.1278,-7.0919,-7.1248,-7.1248,-7.0889,-7.0889,-7.0889,-7.0889,-7.0889,-7.1098,-7.1427,-7.1427,-7.1427,-7.1457,-7.1816,-7.1787,-7.1457,-7.1846,-7.2278,-7.2649,-7.2349,-7.233,-7.2465,-7.2163,-7.1896,-7.1786,-7.1913,-7.2231,-7.2546,-7.2671,-7.2859,-7.2983,-7.2983,-7.2983,-7.2983,-7.2796,-7.2671,-7.2546,-7.2546,-7.2546,-7.2637,-7.3132,-7.4055,-7.4884,-7.5351,-7.6308,-7.7016,-7.7016,-7.7016,-7.7323,-7.8278,-7.7631,-7.7354,-7.8308,-7.7631,-7.7016,-7.7016,-7.7016,-7.7016,-7.7016,-7.7354,-7.757,-7.757,-7.8216,-7.8616,-7.8616,-7.8924,-7.9263,-7.9632,-7.9632,-7.9601,-7.957,-7.957,-7.9047,-7.797,-7.797,-7.8524,-7.957,-7.957,-8.0124,-8.1079,-8.1079,-8.1263,-8.1602,-8.2649,-8.3264,-8.3664,-8.4711,-8.5111,-8.5111,-8.5111,-8.5111,-8.5111,-8.4606,-8.4392,-8.4319,-8.4319,-8.3232,-8.2694,-8.3796,-8.1944,-8.0227,-7.9925,-7.8439,-7.6962,-7.5624,-7.4692,-7.4188,-7.4256,-7.3739,-7.3373,-7.3373,-7.3373,-7.2984,-7.2176,-7.2116,-7.1876,-7.1368,-7.1876,-7.1876,-7.1368,-7.1368,-7.1368,-7.1368,-7.1368,-7.1637,-7.2116,-7.2116,-7.2206,-7.2385,-7.2924,-7.2924,-7.2624,-7.323,-7.364,-7.3847,-7.3762,-7.3572,-7.3191,-7.3039,-7.2554,-7.2007,-7.2104,-7.2294,-7.2515,-7.2608,-7.2796,-7.2983,-7.2983,-7.2983,-7.2983,-7.2983,-7.3106,-7.3229,-7.3229,-7.3322,-7.3445,-7.3445,-7.4368,-7.523,-7.523,-7.6184,-7.7016,-7.7016,-7.7016,-7.7169,-7.7662,-7.7323,-7.72,-7.7662,-7.7323,-7.7016,-7.7016,-7.7016,-7.7077,-7.7231,-7.7724,-7.8093,-7.8278,-7.8924,-7.9324,-7.9324,-7.9478,-7.9786,-8.0309,-8.034,-7.994,-7.9109,-7.9109,-7.8401,-7.7016,-7.7016,-7.7754,-7.9109,-7.9109,-7.9817,-8.1079,-8.1079,-8.1171,-8.1387,-8.2587,-8.3172,-8.3449,-8.4649,-8.5111,-8.5111,-8.5111,-8.5111,-8.5111,-8.4471,-8.4553,-8.4553,-8.4553,-8.4285,-8.4123,-8.448,-8.3143,-8.1976,-8.1654,-7.9406,-7.7705,-7.7284,-7.5796,-7.4946,-7.5286,-7.4954,-7.4719,-7.4719,-7.4719,-7.418,-7.2894,-7.2834,-7.2804,-7.2774,-7.2804,-7.2804,-7.2774,-7.2774,-7.2774,-7.2774,-7.2774,-7.2804,-7.2834,-7.2834,-7.3163,-7.3762,-7.3791,-7.4151,-7.4728,-7.506,-7.5196,-7.5203,-7.5001,-7.4497,-7.3829,-7.3222,-7.2554,-7.2071,-7.2357,-7.2483,-7.2515,-7.2859,-7.2983,-7.2983,-7.2983,-7.2983,-7.2983,-7.2983,-7.3445,-7.3907,-7.3907,-7.4399,-7.4861,-7.4861,-7.5415,-7.5938,-7.5938,-7.6523,-7.7016,-7.7016,-7.7016,-7.7662,-7.957,-7.8278,-7.7693,-7.9601,-7.8216,-7.7016,-7.7016,-7.7016,-7.7262,-7.7908,-7.8001,-7.8308,-7.8986,-7.9663,-8.0032,-8.0032,-8.0617,-8.0956,-8.0986,-8.1017,-8.0402,-7.9109,-7.9109,-7.8401,-7.7016,-7.7016,-7.7754,-7.9109,-7.9109,-7.9817,-8.1079,-8.1079,-8.1417,-8.2064,-8.2772,-8.3449,-8.4095,-8.4834,-8.5111,-8.5111,-8.5111,-8.5111,-8.5039,-8.4573,-8.464,-8.464,-8.464,-8.4533,-8.448,-8.4553,-8.4089,-8.331,-8.2173,-8.1212,-7.9803,-7.7898,-7.6927,-7.6099,-7.5482,-7.5074,-7.4869,-7.4869,-7.4869,-7.448,-7.3552,-7.3522,-7.3343,-7.2924,-7.3313,-7.3313,-7.2924,-7.2924,-7.2924,-7.2924,-7.2924,-7.3133,-7.3589,-7.4365,-7.4692,-7.4578,-7.5395,-7.5412,-7.4937,-7.5278,-7.555,-7.5691,-7.5583,-7.5023,-7.4245,-7.4032,-7.3239,-7.2357,-7.2734,-7.2796,-7.2859,-7.2983,-7.326,-7.3691,-7.4122,-7.3937,-7.3691,-7.4122,-7.4122,-7.4091,-7.4522,-7.4799,-7.5015,-7.5015,-7.5538,-7.6,-7.6,-7.6554,-7.7016,-7.7016,-7.7016,-7.7293,-7.8062,-7.7539,-7.7293,-7.8093,-7.7508,-7.7016,-7.7016,-7.7016,-7.7293,-7.797,-7.8432,-7.8986,-7.9663,-8.034,-8.0709,-8.0709,-8.0555,-8.0648,-8.1048,-8.0679,-8.0032,-7.9109,-7.9109,-7.8401,-7.7016,-7.7447,-7.8154,-7.9109,-7.954,-8.0217,-8.1079,-8.1079,-8.1202,-8.154,-8.2649,-8.3233,-8.3572,-8.468,-8.5111,-8.5111,-8.5111,-8.5111,-8.5111,-8.4539,-8.464,-8.464,-8.464,-8.464,-8.464,-8.464,-8.464,-8.4143,-8.2942,-8.2458,-8.1447,-7.9468,-7.8565,-7.7772,-7.7023,-7.6263,-7.5826,-7.5661,-7.518,-7.4659,-7.421,-7.421,-7.4001,-7.3552,-7.3971,-7.3971,-7.3522,-7.3961,-7.4161,-7.4161,-7.4161,-7.4637,-7.5495,-7.5989,-7.62,-7.6197,-7.6726,-7.6396,-7.5691,-7.5617,-7.5819,-7.6124,-7.6191,-7.5688,-7.5,-7.4936,-7.4265,-7.3284,-7.3567,-7.363,-7.363,-7.363,-7.3937,-7.4399,-7.4861,-7.4676,-7.4461,-7.5138,-7.4984,-7.4738,-7.5199,-7.5476,-7.563,-7.563,-7.6,-7.6338,-7.6338,-7.6708,-7.7016,-7.7016,-7.7016,-7.7016,-7.7016,-7.7016,-7.7016,-7.7016,-7.7016,-7.7016,-7.7016,-7.7016,-7.7385,-7.8278,-7.8801,-7.9478,-8.034,-8.0832,-8.1079,-8.1079,-8.0063,-7.9847,-8.074,-8.0124,-7.9447,-7.877,-7.8986,-7.8401,-7.7016,-7.7693,-7.8401,-7.9109,-7.9786,-8.0463,-8.1079,-8.1079,-8.1079,-8.1171,-8.2525,-8.308,-8.3233,-8.4588,-8.5111,-8.5111,-8.5111,-8.5111,-8.5111,-8.4336,-8.464,-8.464,-8.464,-8.464,-8.464,-8.464,-8.464,-8.45,-8.4265,-8.3032,-8.223,-8.2296,-8.0799,-7.9925,-8.0227,-7.8879,-7.7739,-7.7354,-7.5863,-7.4937,-7.4937,-7.4937,-7.4869,-7.4869,-7.4869,-7.4869,-7.4869,-7.6263,-7.6923,-7.6923,-7.6892,-7.7641,-7.8816,-7.7512,-7.7641,-7.8816,-7.7447,-7.7089,-7.7349,-7.6391,-7.6221,-7.6554,-7.6884,-7.6585,-7.6,-7.6,-7.5569,-7.5015,-7.5015,-7.5015,-7.5015,-7.5015,-7.5015,-7.5015,-7.5015,-7.5015,-7.5138,-7.5846,-7.6031,-7.6031,-7.6031,-7.6523,-7.7016,-7.7016,-7.7016,-7.7016,-7.7016,-7.7016,-7.7016,-7.7016,-7.7016,-7.7016,-7.7016,-7.7016,-7.7016,-7.7016,-7.7016,-7.7016,-7.7016,-7.7016,-7.757,-7.8955,-7.9109,-7.9663,-8.0956,-8.1079,-8.1048,-8.1048,-7.9139,-7.8678,-8.0063,-7.9447,-7.8739,-7.8031,-7.8739,-7.8401,-7.7046,-7.7724,-7.8401,-7.9139,-7.9817,-8.0463,-8.1079,-8.1079,-8.1079,-8.1171,-8.2525,-8.308,-8.3233,-8.4588,-8.5111,-8.5111,-8.5111,-8.5111,-8.5039,-8.4539,-8.464,-8.464,-8.464,-8.464,-8.464,-8.464,-8.464,-8.4553,-8.448,-8.4143,-8.3564,-8.2661,-8.1911,-8.1121,-8.038,-7.962,-7.9065,-7.8753,-7.8122,-7.7705,-7.7705,-7.5893,-7.4869,-7.4869,-7.5826,-7.5826,-7.4869,-7.7219,-7.7834,-7.6892,-7.7834,-7.8534,-7.8941,-7.947,-7.9499,-7.9159,-7.8816,-7.8313,-7.7641,-7.6691,-7.6421,-7.6554,-7.662,-7.6257,-7.5675,-7.5675,-7.5246,-7.4663,-7.4951,-7.5015,-7.5076,-7.5569,-7.5384,-7.5199,-7.6154,-7.6092,-7.5846,-7.6523,-7.6708,-7.6708,-7.6708,-7.6862,-7.7016,-7.7016,-7.7016,-7.7016,-7.7016,-7.6646,-7.6461,-7.6923,-7.6646,-7.6461,-7.6954,-7.7016,-7.7016,-7.7016,-7.7016,-7.7016,-7.7016,-7.7447,-7.8093,-7.9016,-7.954,-8.0155,-8.1017,-8.0648,-8.0402,-8.0402,-7.8893,-7.8462,-7.9386,-7.8709,-7.8493,-7.877,-7.8986,-7.8647,-7.7724,-7.8432,-7.9139,-7.9817,-8.0494,-8.0894,-8.1079,-8.1079,-8.1325,-8.1848,-8.271,-8.3357,-8.388,-8.4773,-8.5111,-8.5111,-8.5111,-8.5111,-8.5111,-8.4573,-8.464,-8.464,-8.464,-8.464,-8.464,-8.464,-8.464,-8.464,-8.464,-8.464,-8.4339,-8.3564,-8.3254,-8.283,-8.2059,-8.1239,-8.0468,-7.9742,-7.9406,-7.9159,-7.9034,-7.7481,-7.663,-7.6498,-7.7284,-7.7253,-7.6498,-7.866,-7.9284,-7.8471,-7.9346,-7.996,-8.0505,-8.0896,-8.0982,-8.0831,-7.9989,-7.9314,-7.8723,-7.715,-7.662,-7.6686,-7.6686,-7.6441,-7.6139,-7.6663,-7.6286,-7.559,-7.6331,-7.6139,-7.5682,-7.6212,-7.6058,-7.5774,-7.6704,-7.6739,-7.6492,-7.6892,-7.7016,-7.7016,-7.7016,-7.7016,-7.7016,-7.7016,-7.7016,-7.7016,-7.7016,-7.6708,-7.6523,-7.6954,-7.6677,-7.6554,-7.6954,-7.7016,-7.7016,-7.7016,-7.7016,-7.7016,-7.7016,-7.76,-7.8308,-7.9047,-7.9478,-7.9971,-8.0648,-8.0063,-7.9817,-8.0094,-7.8524,-7.7939,-7.8647,-7.8247,-7.8247,-7.8678,-7.8955,-7.8893,-7.8462,-7.917,-7.9724,-8.0124,-8.0771,-8.1079,-8.1079,-8.1079,-8.1448,-8.2125,-8.2803,-8.348,-8.4157,-8.4834,-8.5111,-8.5111,-8.5111,-8.5111,-8.5111,-8.4505,-8.464,-8.464,-8.464,-8.464,-8.464,-8.464,-8.464,-8.464,-8.464,-8.464,-8.464,-8.464,-8.464,-8.464,-8.464,-8.3254,-8.1853,-8.0739,-8.038,-7.9986,-7.9681,-7.9681,-7.959,-7.9314,-7.919,-7.9066,-7.8879,-8.0417,-8.1047,-8.0928,-8.1047,-8.1727,-8.2883,-8.1894,-8.2182,-8.3243,-8.1041,-8.0324,-8.0417,-7.7896,-7.705,-7.7312,-7.7312,-7.7312,-7.7507,-7.8628,-7.8343,-7.7442,-7.8533,-7.7896,-7.6722,-7.6884,-7.6752,-7.6554,-7.6818,-7.6884,-7.6884,-7.6884,-7.6884,-7.6884,-7.695,-7.695,-7.695,-7.7016,-7.7016,-7.7016,-7.7016,-7.6923,-7.6862,-7.6923,-7.6892,-7.6862,-7.6923,-7.6985,-7.7016,-7.7016,-7.7016,-7.7046,-7.7108,-7.7724,-7.837,-7.9047,-7.9109,-7.9417,-8.0124,-7.9447,-7.9293,-7.9971,-7.8124,-7.7293,-7.7908,-7.7939,-7.8001,-7.8124,-7.877,-7.9139,-7.9201,-7.9817,-8.0124,-8.0217,-8.0802,-8.1079,-8.1079,-8.114,-8.154,-8.2218,-8.2895,-8.3572,-8.4249,-8.4865,-8.5111,-8.5111,-8.5111,-8.5111,-8.5111,-8.4606,-8.464,-8.464,-8.464,-8.464,-8.464,-8.464,-8.464,-8.464,-8.464,-8.464,-8.464,-8.464,-8.464,-8.464,-8.464,-8.4123,-8.3653,-8.3343,-8.3065,-8.2784,-8.2444,-8.2671,-8.2671,-8.2329,-8.1336,-8.0139,-7.8879,-8.1486,-8.2133,-8.0928,-8.1959,-8.2737,-8.322,-8.2963,-8.3299,-8.3905,-8.2411,-8.1919,-8.2059,-8.05,-7.9896,-7.9989,-7.9989,-7.9989,-8.0018,-8.026,-8.0082,-7.9563,-7.8848,-7.8343,-7.7801,-7.6919,-7.6324,-7.6057,-7.6155,-7.6252,-7.6252,-7.6124,-7.6155,-7.6288,-7.6554,-7.662,-7.6686,-7.695,-7.7016,-7.7016,-7.7016,-7.6184,-7.56,-7.6123,-7.5784,-7.56,-7.6154,-7.6677,-7.7016,-7.7016,-7.7016,-7.72,-7.7754,-7.8432,-7.8924,-7.9078,-7.9109,-7.9601,-8.0771,-7.9232,-7.8555,-7.9293,-7.7847,-7.7077,-7.7231,-7.7231,-7.7754,-7.8862,-7.9016,-7.9355,-7.9878,-8.0032,-8.0371,-8.0863,-8.1017,-8.1079,-8.111,-8.1633,-8.2248,-8.2926,-8.3603,-8.428,-8.4896,-8.505,-8.5111,-8.5111,-8.5111,-8.5111,-8.5111,-8.464,-8.464,-8.464,-8.464,-8.464,-8.464,-8.464,-8.464,-8.464,-8.464,-8.464,-8.464,-8.464,-8.464,-8.464,-8.464,-8.4446,-8.4426,-8.4426,-8.4265,-8.4048,-8.3775,-8.3884,-8.3829,-8.3554,-8.2953,-8.2149,-8.0982,-8.2534,-8.285,-8.2042,-8.2907,-8.3388,-8.3554,-8.3665,-8.3939,-8.4123,-8.2976,-8.2548,-8.2605,-8.133,-8.0799,-8.0799,-8.0799,-8.0712,-8.0712,-8.1479,-8.1538,-8.1101,-7.9718,-7.9067,-7.8785,-7.8343,-7.7896,-7.7608,-7.7832,-7.7927,-7.7799,-7.7085,-7.6954,-7.6853,-7.6589,-7.6488,-7.662,-7.695,-7.7016,-7.6923,-7.6615,-7.5969,-7.56,-7.5938,-7.5723,-7.5723,-7.6369,-7.68,-7.7016,-7.7016,-7.7016,-7.7139,-7.7508,-7.8154,-7.8585,-7.8585,-7.9201,-7.9601,-7.9632,-7.8955,-7.8555,-7.8585,-7.76,-7.7016,-7.7016,-7.7323,-7.8001,-7.9078,-7.9417,-7.9909,-8.0555,-8.0555,-8.074,-8.1079,-8.1079,-8.1079,-8.111,-8.1787,-8.2464,-8.3141,-8.3818,-8.4495,-8.5111,-8.5111,-8.5111,-8.5111,-8.5111,-8.5111,-8.5111,-8.464,-8.464,-8.464,-8.464,-8.464,-8.464,-8.464,-8.464,-8.464,-8.464,-8.464,-8.464,-8.464,-8.464,-8.464,-8.464,-8.464,-8.464,-8.464,-8.464,-8.448,-8.4211,-8.4265,-8.4156,-8.3884,-8.4102,-8.3939,-8.3388,-8.3443,-8.3443,-8.3388,-8.3665,-8.3829,-8.3884,-8.4102,-8.4211,-8.4177,-8.3399,-8.2998,-8.2942,-8.1886,-8.1447,-8.1447,-8.1447,-8.1304,-8.1277,-8.2491,-8.2807,-8.2296,-8.0749,-7.9992,-7.9745,-7.9902,-7.9625,-7.9408,-7.9718,-7.9779,-7.9595,-7.847,-7.8121,-7.796,-7.7281,-7.6919,-7.6853,-7.7246,-7.7147,-7.6831,-7.6154,-7.6,-7.5969,-7.5846,-7.5938,-7.6184,-7.6769,-7.6954,-7.7016,-7.7016,-7.7016,-7.7046,-7.7169,-7.7693,-7.8093,-7.8216,-7.8924,-7.9078,-7.8278,-7.8432,-7.8401,-7.8031,-7.7385,-7.7016,-7.7016,-7.7662,-7.837,-7.9078,-7.9755,-8.0432,-8.1079,-8.1079,-8.1079,-8.1079,-8.1079,-8.1079,-8.111,-8.191,-8.2587,-8.3141,-8.3941,-8.4588,-8.5111,-8.5111,-8.5111,-8.5111,-8.5111,-8.5111,-8.5111,-8.464,-8.464,-8.464,-8.464,-8.464,-8.464,-8.464,-8.464,-8.464,-8.464,-8.464,-8.464,-8.464,-8.464,-8.464,-8.464,-8.464,-8.464,-8.464,-8.464,-8.448,-8.4211,-8.4426,-8.4426,-8.4156,-8.4211,-8.4048,-8.372,-8.3993,-8.3993,-8.372,-8.3775,-8.3939,-8.4156,-8.4211,-8.4319,-8.4533,-8.4392,-8.4339,-8.4339,-8.4143,-8.4089,-8.4089,-8.4089,-8.4089,-8.4035,-8.4014,-8.3796,-8.3354,-8.1752,-8.1133,-8.089,-7.9806,-7.9252,-7.8941,-7.9035,-7.9035,-7.9035,-7.8848,-7.8785,-7.8879,-7.9346,-7.8628,-7.796,-7.8502,-7.7799,-7.6831,-7.6154,-7.6,-7.5846,-7.523,-7.563,-7.6031,-7.6123,-7.6646,-7.7016,-7.7016,-7.7016,-7.7231,-7.7816,-7.797,-7.8278,-7.8893,-7.7508,-7.7231,-7.8832,-7.7385,-7.6892,-7.797,-7.7385,-7.7016,-7.7016,-7.7662,-7.837,-7.9078,-7.9755,-8.0432,-8.1079,-8.1079,-8.1079,-8.1079,-8.1079,-8.1079,-8.114,-8.2402,-8.3018,-8.3203,-8.4465,-8.5019,-8.5111,-8.5111,-8.5111,-8.5111,-8.5111,-8.5111,-8.5111,-8.464,-8.464,-8.464,-8.464,-8.464,-8.464,-8.464,-8.464,-8.464,-8.464,-8.464,-8.464,-8.464,-8.464,-8.464,-8.464,-8.464,-8.464,-8.464,-8.464,-8.4587,-8.4426,-8.4533,-8.45,-8.4426,-8.4426,-8.4372,-8.4265,-8.4211,-8.4156,-8.4048,-8.4211,-8.4319,-8.4426,-8.4426,-8.448,-8.464,-8.464,-8.464,-8.464,-8.464,-8.464,-8.464,-8.464,-8.4533,-8.4372,-8.4102,-8.3884,-8.3665,-8.2794,-8.2477,-8.2329,-8.1545,-8.1251,-8.1133,-8.1133,-8.1133,-8.0955,-8.0203,-8.0021,-7.996,-7.9716,-7.9346,-7.916,-7.9625,-7.8595,-7.7085,-7.5697,-7.5446,-7.5353,-7.5046,-7.5569,-7.6123,-7.6523,-7.6831,-7.7016,-7.7016,-7.7016,-7.7139,-7.7416,-7.7477,-7.76,-7.7908,-7.7108,-7.6954,-7.7877,-7.7108,-7.6831,-7.7447,-7.7169,-7.72,-7.757,-7.8278,-7.8955,-7.9663,-8.0309,-8.0802,-8.1079,-8.1079,-8.1079,-8.1079,-8.1079,-8.1079,-8.111,-8.2095,-8.2525,-8.2587,-8.3572,-8.4188,-8.4526,-8.4526,-8.4773,-8.5111,-8.5111,-8.5111,-8.5142]},{"header":{"parameterUnit":"m.s-1","parameterCategory":1,"la1":30.6,"la2":28.766,"lo1":-90.7593,"lo2":-88.6598,"dx":0.0162,"dy":0.0183,"nx":116,"ny":114,"refTime":"2022-12-25T18:00:00:Z","depth":0,"parameterNumber":3,"parameterNumberName":"V-component_of_WINDS"},"data":[0.0,0.0,0.0,0.0,0.0,0.0,0.0,0.0,0.0,0.0,0.0,0.0,0.0,0.0,0.0,0.0,0.0,0.0,0.0,0.0,0.0,0.0,0.0,0.0,0.0,0.0,0.0,0.0,0.0,0.0,0.0,0.0,0.0,0.0,0.0,0.0,0.0,0.0,0.0,0.0,0.0,0.0,0.0,0.0,0.0,0.0,0.0,0.0,0.0,0.0,0.0,0.0,0.0,0.0,0.0,0.0,0.0,0.0,0.0,0.0,0.0,0.0,0.0,0.0,0.0,0.0,0.0,0.0,0.0,0.0,0.0,0.0,0.0,0.0,0.0,0.0,0.0,0.0,0.0,0.0,0.0,0.0,0.0,0.0,0.0,0.0,0.0,0.0,0.0,0.0,0.0,0.0,0.0,0.0,0.0,0.0,0.0,0.0,0.0,0.0,0.0,0.0,0.0,0.0,0.0,0.0,0.0,0.0,0.0,0.0,0.0,0.0,0.0,0.0,0.0,0.0,0.0,0.0,0.0,0.0,0.0,0.0,0.0,0.0,0.0,0.0,0.0,0.0,0.0,0.0,0.0,0.0,0.0,0.0,0.0,0.0,0.0,0.0,0.0,0.0,0.0,0.0,0.0,0.0,0.0,0.0,0.0,0.0,0.0,0.0,0.0,0.0,0.0,0.0,0.0,0.0,0.0,0.0,0.0,0.0,0.0,0.0,0.0,0.0,0.0,0.0,0.0,0.0,0.0,0.0,0.0,0.0,0.0,0.0,0.0,0.0,0.0,0.0,0.0,0.0,0.0,0.0,0.0,0.0,0.0,0.0,0.0,0.0,0.0,0.0,0.0,0.0,0.0,0.0,0.0,0.0,0.0,0.0,0.0,0.0,0.0,0.0,0.0,0.0,0.0,0.0,0.0,0.0,0.0,0.0,0.0,0.0,0.0,0.0,0.0,0.0,0.0,0.0,0.0,0.0,0.0,0.0,0.0,0.0,0.0,0.0,0.0,0.0,0.0,0.0,0.0,0.0,0.0,0.0,0.0,0.0,0.0,0.0,0.0,0.0,0.0,0.0,0.0,0.0,0.0,0.0,0.0,0.0,0.0,0.0,0.0,0.0,0.0,0.0,0.0,0.0,0.0,0.0,0.0,0.0,0.0,0.0,0.0,0.0,0.0,0.0,0.0,0.0,0.0,0.0,0.0,0.0,0.0,0.0,0.0,0.0,0.0,0.0,0.0,0.0,0.0,0.0,0.0,0.0,0.0,0.0,0.0,0.0,0.0,0.0,0.0,0.0,0.0,0.0,0.0,0.0,0.0,0.0,0.0,0.0,0.0,0.0,0.0,0.0,0.0,0.0,0.0,0.0,0.0,0.0,0.0,0.0,0.0,0.0,0.0,0.0,0.0,0.0,0.0,0.0,0.0,0.0,0.0,0.0,0.0,0.0,0.0,0.0,0.0,0.0,0.0,0.0,0.0,0.0,0.0,0.0,0.0,0.0,0.0,0.0,0.0,0.0,0.0,0.0,0.0,0.0,0.0,0.0,0.0,0.0,0.0,0.0,0.0,0.0,0.0,0.0,0.0,0.0,0.0,0.0,0.0,0.0,0.0,0.0,0.0,0.0,0.0,0.0,0.0,0.0,0.0,0.0,0.0,0.0,0.0,0.0,0.0,0.0,0.0,0.0,0.0,0.0,0.0,0.0,0.0,0.0,0.0,0.0,0.0,0.0,0.0,0.0,0.0,0.0,0.0,0.0,0.0,0.0,0.0,0.0,0.0,0.0,0.0,0.0,0.0,0.0,0.0,0.0,0.0,0.0,0.0,0.0,0.0,0.0,0.0,0.0,0.0,0.0,0.0,0.0,0.0,0.0,0.0,0.0,0.0,0.0,0.0,0.0,0.0,0.0,0.0,0.0,0.0,0.0,0.0,0.0,0.0,0.0,0.0,0.0,0.0,0.0,0.0,0.0,0.0,0.0,0.0,0.0,0.0,0.0,0.0,0.0,0.0,0.0,0.0,0.0,0.0,0.0,0.0,0.0,0.0,0.0,0.0,0.0,0.0,0.0,0.0,0.0,0.0,0.0,0.0,0.0,0.0,0.0,0.0,0.0,0.0,0.0,0.0,0.0,0.0,0.0,0.0,0.0,0.0,0.0,0.0,0.0,0.0,0.0,0.0,0.0,0.0,0.0,0.0,0.0,0.0,0.0,0.0,0.0,0.0,0.0,0.0,0.0,0.0,0.0,0.0,0.0,0.0,0.0,0.0,0.0,0.0,0.0,0.0,0.0,0.0,0.0,0.0,0.0,0.0,0.0,0.0,0.0,0.0,0.0,0.0,0.0,0.0,0.0,0.0,0.0,0.0,0.0,0.0,0.0,0.0,0.0,0.0,0.0,0.0,0.0,0.0,0.0,0.0,0.0,0.0,0.0,0.0,0.0,0.0,0.0,0.0,0.0,0.0,0.0,0.0,0.0,0.0,0.0,0.0,0.0,0.0,0.0,0.0,0.0,0.0,0.0,0.0,0.0,0.0,0.0,0.0,0.0,0.0,0.0,0.0,0.0,0.0,0.0,0.0,0.0,0.0,0.0,0.0,0.0,0.0,0.0,0.0,0.0,0.0,0.0,0.0,0.0,0.0,0.0,0.0,0.0,0.0,0.0,0.0,0.0,0.0,0.0,0.0,0.0,0.0,0.0,0.0,0.0,0.0,0.0,0.0,0.0,0.0,0.0,0.0,0.0,0.0,0.0,0.0,0.0,0.0,0.0,0.0,0.0,0.0,0.0,0.0,0.0,0.0,0.0,0.0,0.0,0.0,0.0,0.0,0.0,0.0,0.0,0.0,0.0,0.0,0.0,0.0,0.0,0.0,0.0,0.0,0.0,0.0,0.0,0.0,0.0,0.0,0.0,0.0,0.0,0.0,0.0,0.0,0.0,0.0,0.0,0.0,0.0,0.0,0.0,0.0,0.0,0.0,0.0,0.0,0.0,0.0,0.0,0.0,0.0,0.0,0.0,0.0,0.0,0.0,0.0,0.0,0.0,0.0,0.0,0.0,0.0,0.0,0.0,0.0,0.0,0.0,0.0,0.0,0.0,0.0,0.0,0.0,0.0,0.0,0.0,0.0,0.0,0.0,0.0,0.0,0.0,0.0,0.0,0.0,0.0,0.0,0.0,0.0,0.0,0.0,0.0,0.0,0.0,0.0,0.0,0.0,0.0,0.0,0.0,0.0,0.0,0.0,0.0,0.0,0.0,0.0,0.0,0.0,0.0,0.0,0.0,0.0,0.0,0.0,0.0,0.0,0.0,0.0,0.0,0.0,0.0,0.0,0.0,0.0,0.0,0.0,0.0,0.0,0.0,0.0,0.0,0.0,0.0,0.0,0.0,0.0,0.0,0.0,0.0,0.0,0.0,0.0,0.0,0.0,0.0,0.0,0.0,0.0,0.0,0.0,0.0,0.0,0.0,0.0,0.0,0.0,0.0,0.0,0.0,0.0,0.0,0.0,0.0,0.0,0.0,0.0,0.0,0.0,0.0,0.0,0.0,0.0,0.0,0.0,0.0,0.0,0.0,0.0,0.0,0.0,0.0,0.0,0.0,0.0,0.0,0.0,0.0,0.0,0.0,0.0,0.0,0.0,0.0,0.0,0.0,0.0,0.0,0.0,0.0,0.0,0.0,0.0,0.0,0.0,0.0,0.0,0.0,0.0,0.0,0.0,0.0,0.0,0.0,0.0,0.0,0.0,0.0,0.0,0.0,0.0,0.0,0.0,0.0,0.0,0.0,0.0,0.0,0.0,0.0,0.0,0.0,0.0,0.0,0.0,0.0,0.0,0.0,0.0,0.0,0.0,0.0,0.0,0.0,0.0,0.0,0.0,0.0,0.0,0.0,0.0,0.0,0.0,0.0,0.0,0.0,0.0,0.0,0.0,0.0,0.0,0.0,0.0,0.0,0.0,0.0,0.0,0.0,0.0,0.0,0.0,0.0,0.0,0.0,0.0,0.0,0.0,0.0,0.0,0.0,0.0,0.0,0.0,0.0,0.0,0.0,0.0,0.0,0.0,0.0,0.0,0.0,0.0,0.0,0.0,0.0,0.0,0.0,0.0,0.0,0.0,0.0,0.0,0.0,0.0,0.0,0.0,0.0,0.0,0.0,0.0,0.0,0.0,0.0,0.0,0.0,0.0,0.0,0.0,0.0,0.0,0.0,0.0,0.0,0.0,0.0,0.0,0.0,0.0,0.0,0.0,0.0,0.0,0.0,0.0,0.0,0.0,0.0,0.0,0.0,0.0,0.0,0.0,0.0,0.0,0.0,0.0,0.0,0.0,0.0,0.0,0.0,0.0,0.0,0.0,0.0,0.0,0.0,0.0,0.0,0.0,0.0,0.0,0.0,0.0,0.0,0.0,0.0,0.0,0.0,0.0,0.0,0.0,0.0,0.0,0.0,0.0,0.0,0.0,0.0,0.0,0.0,0.0,0.0,0.0,0.0,0.0,0.0,0.0,0.0,0.0,0.0,0.0,0.0,0.0,0.0,0.0,0.0,0.0,0.0,0.0,0.0,0.0,0.0,0.0,0.0,0.0,0.0,0.0,0.0,0.0,0.0,0.0,0.0,0.0,0.0,0.0,0.0,0.0,0.0,0.0,0.0,0.0,0.0,0.0,0.0,0.0,0.0,0.0,0.0,0.0,0.0,0.0,0.0,0.0,0.0,0.0,0.0,0.0,0.0,0.0,0.0,0.0,0.0,0.0,0.0,0.0,0.0,0.0,0.0,0.0,0.0,0.0,0.0,0.0,0.0,0.0,0.0,0.0,0.0,0.0,0.0,0.0,0.0,0.0,0.0,0.0,0.0,0.0,0.0,0.0,0.0,0.0,0.0,0.0,0.0,0.0,0.0,0.0,0.0,0.0,0.0,0.0,0.0,0.0,0.0,0.0,0.0,0.0,0.0,0.0,0.0,0.0,0.0,0.0,0.0,0.0,0.0,0.0,0.0,0.0,0.0,0.0,0.0,0.0,0.0,0.0,0.0,0.0,0.0,0.0,0.0,0.0,0.0,0.0,0.0,0.0,0.0,0.0,0.0,0.0,0.0,0.0,0.0,0.0,0.0,0.0,0.0,0.0,0.0,0.0,0.0,0.0,0.0,0.0,0.0,0.0,0.0,0.0,0.0,0.0,0.0,0.0,0.0,0.0,0.0,0.0,0.0,0.0,0.0,0.0,0.0,0.0,0.0,0.0,0.0,0.0,0.0,0.0,0.0,0.0,0.0,0.0,0.0,0.0,0.0,0.0,0.0,0.0,0.0,0.0,0.0,0.0,0.0,0.0,0.0,0.0,0.0,0.0,0.0,0.0,0.0,0.0,0.0,0.0,0.0,0.0,0.0,0.0,0.0,0.0,0.0,0.0,0.0,0.0,0.0,0.0,0.0,0.0,0.0,0.0,0.0,0.0,0.0,0.0,0.0,0.0,0.0,0.0,0.0,0.0,0.0,0.0,0.0,0.0,0.0,0.0,0.0,0.0,0.0,0.0,0.0,0.0,0.0,0.0,0.0,0.0,0.0,0.0,0.0,0.0,0.0,0.0,0.0,0.0,0.0,0.0,0.0,0.0,0.0,0.0,0.0,0.0,0.0,0.0,0.0,0.0,0.0,0.0,0.0,0.0,0.0,0.0,0.0,0.0,0.0,0.0,0.0,0.0,0.0,0.0,0.0,0.0,0.0,0.0,0.0,0.0,0.0,0.0,0.0,0.0,0.0,0.0,0.0,0.0,0.0,0.0,0.0,0.0,0.0,0.0,0.0,0.0,0.0,0.0,0.0,0.0,0.0,0.0,0.0,0.0,0.0,0.0,0.0,0.0,0.0,0.0,0.0,0.0,0.0,0.0,0.0,0.0,0.0,0.0,0.0,0.0,0.0,0.0,0.0,0.0,0.0,0.0,0.0,0.0,0.0,0.0,0.0,0.0,0.0,0.0,0.0,0.0,0.0,0.0,0.0,0.0,0.0,0.0,0.0,0.0,0.0,0.0,0.0,0.0,0.0,0.0,0.0,0.0,0.0,0.0,0.0,0.0,0.0,0.0,0.0,0.0,0.0,0.0,0.0,0.0,0.0,5.2334,4.9796,0.0,0.0,0.0,0.0,0.0,0.0,0.0,0.0,0.0,0.0,0.0,0.0,0.0,0.0,0.0,0.0,0.0,0.0,0.0,0.0,0.0,0.0,0.0,0.0,0.0,0.0,0.0,0.0,0.0,0.0,0.0,0.0,0.0,0.0,0.0,0.0,3.0193,3.0492,3.2138,3.3969,3.5917,3.4912,3.3752,3.2501,0.0,0.0,0.0,0.0,0.0,0.0,0.0,0.0,0.0,0.0,0.0,0.0,0.0,0.0,0.0,0.0,0.0,0.0,0.0,0.0,0.0,0.0,0.0,0.0,0.0,0.0,0.0,0.0,0.0,0.0,0.0,0.0,0.0,0.0,0.0,0.0,0.0,0.0,0.0,0.0,0.0,0.0,0.0,0.0,0.0,0.0,0.0,0.0,0.0,0.0,0.0,0.0,0.0,0.0,0.0,0.0,0.0,0.0,0.0,0.0,0.0,0.0,0.0,0.0,0.0,0.0,0.0,0.0,0.0,0.0,5.5649,5.3551,0.0,0.0,0.0,0.0,0.0,0.0,0.0,0.0,0.0,0.0,0.0,0.0,0.0,0.0,0.0,0.0,0.0,0.0,0.0,0.0,0.0,0.0,0.0,0.0,2.8727,2.8607,2.9205,2.9382,0.0,0.0,0.0,0.0,0.0,0.0,0.0,3.0313,3.1629,3.2856,3.49,3.756,4.0715,4.0885,3.9773,3.7561,3.5632,0.0,0.0,0.0,0.0,0.0,0.0,0.0,0.0,0.0,0.0,0.0,0.0,0.0,0.0,0.0,0.0,0.0,0.0,0.0,0.0,0.0,0.0,0.0,0.0,0.0,0.0,0.0,0.0,0.0,0.0,0.0,0.0,0.0,0.0,0.0,0.0,0.0,0.0,0.0,0.0,0.0,0.0,0.0,0.0,0.0,0.0,0.0,0.0,0.0,0.0,0.0,0.0,0.0,0.0,0.0,0.0,0.0,0.0,0.0,0.0,0.0,0.0,0.0,5.8423,5.9268,6.0689,6.008,6.0892,6.255,5.8727,5.7543,5.8084,5.5513,0.0,0.0,0.0,0.0,0.0,0.0,0.0,0.0,0.0,0.0,0.0,0.0,0.0,0.0,0.0,0.0,0.0,0.0,0.0,0.0,0.0,2.8723,2.9235,2.8637,2.9205,2.9562,0.0,0.0,0.0,0.0,0.0,0.0,3.0253,3.2138,3.3455,3.4264,3.9157,4.2669,4.484,4.5625,4.5769,4.5263,4.1499,4.0134,4.0451,0.0,0.0,0.0,0.0,0.0,0.0,0.0,0.0,0.0,0.0,0.0,0.0,0.0,0.0,0.0,0.0,0.0,0.0,0.0,0.0,0.0,0.0,0.0,0.0,0.0,0.0,0.0,0.0,0.0,0.0,0.0,0.0,0.0,0.0,0.0,0.0,0.0,0.0,0.0,0.0,0.0,4.9052,4.8612,0.0,0.0,0.0,0.0,0.0,0.0,0.0,0.0,0.0,0.0,0.0,0.0,0.0,5.6664,5.7306,5.8254,5.9099,5.981,6.052,6.1637,6.3057,6.2956,6.3429,6.4241,6.3024,0.0,5.9742,5.8693,0.0,0.0,0.0,0.0,0.0,0.0,0.0,0.0,0.0,0.0,0.0,0.0,0.0,0.0,0.0,0.0,0.0,0.0,0.0,0.0,0.0,3.0642,3.142,3.1898,3.2527,3.2587,3.1839,3.2138,0.0,0.0,0.0,3.2497,3.2736,3.504,3.7315,3.9499,4.2614,4.5187,4.733,4.8207,4.9235,5.0364,4.8232,4.5927,4.346,4.1862,0.0,0.0,0.0,0.0,0.0,0.0,0.0,0.0,0.0,0.0,0.0,0.0,0.0,0.0,0.0,0.0,0.0,0.0,0.0,0.0,0.0,0.0,0.0,0.0,0.0,0.0,0.0,0.0,0.0,0.0,0.0,0.0,0.0,0.0,0.0,0.0,0.0,0.0,0.0,4.8658,5.027,5.0777,5.1555,5.2029,0.0,0.0,0.0,0.0,0.0,0.0,0.0,0.0,0.0,5.8626,5.9099,5.9877,6.1028,6.1366,6.1907,6.2618,6.299,6.37,6.4749,6.4749,6.5155,6.5797,6.5053,6.4174,6.3091,6.1129,6.0858,6.1535,0.0,0.0,0.0,0.0,6.0013,5.981,0.0,0.0,0.0,0.0,0.0,0.0,0.0,0.0,0.0,0.0,0.0,0.0,3.16,3.2796,3.3933,3.4891,3.5609,3.5579,3.4562,3.4951,0.0,3.3814,3.4711,3.5342,3.5492,3.8098,4.0965,4.4137,4.5492,4.7156,4.9149,5.0254,5.162,5.3207,5.3,5.0737,4.701,4.5988,4.5549,4.532,0.0,0.0,0.0,0.0,0.0,0.0,0.0,0.0,0.0,0.0,0.0,0.0,0.0,0.0,0.0,0.0,0.0,0.0,0.0,0.0,0.0,0.0,0.0,0.0,0.0,0.0,0.0,0.0,0.0,0.0,0.0,0.0,0.0,0.0,0.0,0.0,0.0,5.0851,5.23,5.3585,5.4228,5.4869,0.0,0.0,0.0,0.0,0.0,0.0,5.7915,5.8998,6.0013,6.096,6.1569,6.2482,6.3768,6.4174,6.4647,6.5189,6.5561,6.6034,6.6576,6.6576,6.688,6.7354,6.6812,6.6576,6.6339,6.3362,6.3125,6.4444,6.2787,6.2482,6.2922,6.255,6.2042,6.1704,0.0,0.0,0.0,0.0,0.0,0.0,0.0,0.0,0.0,0.0,0.0,3.2318,3.2467,3.4741,3.6327,3.6387,3.6956,3.7285,3.7225,3.7255,3.7225,3.7165,3.7225,3.7554,3.8182,4.0823,4.3519,4.613,4.7688,4.9127,5.0537,5.2235,5.3136,5.3357,5.4091,5.3861,5.2768,4.9326,4.9028,5.0484,4.5603,0.0,0.0,0.0,0.0,0.0,0.0,0.0,0.0,0.0,0.0,0.0,0.0,0.0,0.0,0.0,0.0,0.0,0.0,0.0,0.0,0.0,0.0,0.0,0.0,0.0,0.0,0.0,0.0,0.0,0.0,0.0,0.0,0.0,0.0,0.0,0.0,0.0,0.0,5.7509,5.7496,0.0,0.0,0.0,0.0,5.8758,5.8896,5.9539,6.0994,6.1129,6.1839,6.3294,6.3396,6.3768,6.4546,6.5933,6.6677,6.6711,6.8166,6.8876,6.8944,6.8944,6.8944,6.8977,6.8944,6.8944,6.8707,6.5696,6.4512,6.458,6.4478,6.4478,6.458,6.5222,6.5425,6.5527,0.0,0.0,0.0,0.0,0.0,2.4542,2.5149,2.6213,2.756,2.9235,3.124,3.3155,3.4891,3.7045,3.8542,3.896,3.9978,4.0427,4.0008,4.1145,4.1474,4.0673,4.0995,4.1496,4.2192,4.3988,4.5783,4.7578,4.8558,4.9519,5.0366,5.269,5.4007,5.4505,5.5995,5.6216,5.5355,5.2638,5.1678,5.1777,4.9024,4.7177,0.0,0.0,0.0,0.0,0.0,0.0,0.0,0.0,0.0,0.0,0.0,0.0,0.0,0.0,0.0,0.0,0.0,0.0,0.0,0.0,0.0,0.0,0.0,0.0,0.0,0.0,0.0,0.0,0.0,0.0,0.0,0.0,0.0,0.0,0.0,0.0,0.0,5.8268,5.8652,0.0,6.0796,6.0617,6.0661,6.1163,6.1637,6.2144,6.2685,6.3632,6.458,6.5595,6.6102,6.6711,6.7489,6.803,6.8301,6.8301,6.8842,6.9113,6.9113,6.9113,6.9113,6.9113,6.9113,6.9113,6.9011,6.7929,6.7489,6.7489,6.7489,6.7489,6.7523,6.7793,6.7895,6.7996,0.0,0.0,0.0,0.0,2.419,2.5232,2.6123,2.6841,2.8218,3.0821,3.2347,3.4262,3.7165,3.902,4.0427,4.1324,4.2192,4.2491,4.2073,4.3269,4.3599,4.2731,4.3299,4.4157,4.5304,4.6202,4.7399,4.8955,4.9613,5.0608,5.1925,5.3834,5.5314,5.6433,5.7657,5.7906,5.7309,5.5355,5.4129,5.3334,5.1645,5.0187,4.8862,0.0,0.0,0.0,0.0,0.0,0.0,0.0,0.0,0.0,0.0,0.0,0.0,0.0,0.0,0.0,0.0,0.0,0.0,0.0,0.0,0.0,0.0,0.0,0.0,0.0,0.0,0.0,0.0,0.0,0.0,0.0,0.0,0.0,0.0,5.6157,5.783,5.9185,6.0074,6.1247,6.2844,6.2818,6.2791,6.3256,6.3964,6.4544,6.4862,6.6044,6.6965,6.7557,6.8064,6.8571,6.9079,6.935,6.9451,6.9451,6.9722,6.9857,6.9857,6.9857,6.9992,7.0195,7.0195,7.0364,7.0567,7.0567,7.0567,7.05,6.9485,6.9113,6.9147,6.9383,6.9451,6.9586,0.0,0.0,0.0,2.3786,2.4834,2.6063,2.7375,2.8128,2.9535,3.2198,3.3664,3.5729,3.905,4.0606,4.1923,4.314,4.329,4.3319,4.3319,4.3349,4.3379,4.3379,4.4007,4.5304,4.7249,4.7339,4.8297,5.0196,5.0853,5.2551,5.5007,5.567,5.698,5.8779,5.8885,5.8925,5.8793,5.7409,5.6382,5.5483,5.3334,5.2837,5.3069,0.0,0.0,0.0,0.0,0.0,0.0,0.0,0.0,0.0,0.0,0.0,0.0,0.0,0.0,0.0,0.0,0.0,0.0,0.0,0.0,0.0,0.0,0.0,0.0,0.0,0.0,0.0,0.0,0.0,0.0,0.0,0.0,0.0,5.5445,5.772,5.9828,6.0638,6.197,6.3409,6.4881,6.4421,6.4287,6.5024,6.5751,6.6618,6.7584,6.8324,6.8816,6.9147,6.9147,6.9147,6.918,6.9891,7.0263,7.0263,7.1007,7.1379,7.1379,7.1379,7.1751,7.2428,7.2428,7.2834,7.3477,7.3477,7.3477,7.3206,7.0331,6.9248,6.9316,7.0026,7.0297,7.0398,2.312,2.3052,2.3121,2.3769,2.4834,2.5884,2.6722,2.7435,2.9172,3.2766,3.3963,3.5729,3.905,4.1025,4.2291,4.265,4.3479,4.4047,4.4047,4.4945,4.5472,4.5472,4.5622,4.6262,4.7279,4.8237,4.9224,5.0196,5.1379,5.2292,5.3036,5.4885,5.6092,5.664,5.856,5.9088,5.861,5.8946,5.8668,5.774,5.5024,5.403,5.3997,0.0,0.0,0.0,0.0,0.0,0.0,0.0,0.0,0.0,0.0,0.0,0.0,0.0,0.0,0.0,0.0,0.0,0.0,0.0,0.0,0.0,0.0,0.0,0.0,0.0,0.0,0.0,0.0,0.0,0.0,0.0,5.803,5.9325,5.9126,6.0024,6.136,6.3324,6.3762,6.4361,6.5467,6.5867,6.6222,6.6554,6.7257,6.7925,6.8392,6.8417,6.8875,6.9891,6.968,6.995,7.0703,7.1413,7.1785,7.1785,7.2529,7.2902,7.2902,7.2902,7.3003,7.3206,7.3206,7.3308,7.3477,7.3477,7.3477,7.3409,7.2597,7.2293,7.2293,7.2496,7.2563,7.2597,2.3542,2.3579,2.3851,2.4487,2.5159,2.6123,2.7619,2.7705,2.9232,3.3754,3.4412,3.5971,3.9828,4.1504,4.25,4.2731,4.3449,4.3898,4.3898,4.4605,4.5412,4.6249,4.6279,4.701,4.8506,4.9284,5.0122,5.105,5.2097,5.2966,5.3715,5.5323,5.6291,5.6762,5.8292,5.871,5.8338,5.8648,5.8505,5.7953,5.5888,5.5221,5.5222,5.3467,5.2804,5.2605,5.1048,5.0353,5.0187,5.0055,0.0,0.0,0.0,0.0,0.0,0.0,0.0,0.0,0.0,0.0,0.0,0.0,0.0,0.0,0.0,0.0,0.0,0.0,0.0,0.0,0.0,0.0,0.0,0.0,5.9904,6.1368,6.2083,6.2381,6.2884,6.3976,6.4607,6.5238,6.6002,6.6601,6.7012,6.7357,6.8057,6.8548,6.8853,6.9018,6.9657,7.0895,7.0669,7.1084,7.2225,7.2573,7.2776,7.2868,7.3274,7.3477,7.3477,7.3477,7.3646,7.395,7.395,7.4119,7.4424,7.4424,7.4424,0.0,0.0,0.0,0.0,0.0,7.4153,7.4424,2.405,2.4348,2.482,2.5331,2.5508,2.6452,2.8992,2.8364,2.9502,3.4801,3.4831,3.6181,4.0913,4.1931,4.2551,4.323,4.3349,4.3409,4.3409,4.3319,4.4157,4.607,4.6249,4.7475,5.0016,5.0166,5.0853,5.2187,5.2845,5.399,5.5511,5.6138,5.6927,5.7792,5.7854,5.79,5.7915,5.733,5.7155,5.7186,5.6352,5.6274,5.6408,5.4359,5.3564,5.3503,5.2712,5.1658,5.07,5.1262,0.0,0.0,0.0,0.0,0.0,0.0,0.0,0.0,0.0,0.0,0.0,0.0,0.0,0.0,0.0,0.0,0.0,0.0,0.0,0.0,0.0,0.0,0.0,0.0,6.1483,6.2917,6.4243,6.4531,6.4365,6.3736,6.4939,6.608,6.6585,6.6899,6.7276,6.7711,6.8407,6.9011,6.9343,6.9943,0.0,0.0,0.0,7.2244,7.3384,7.3252,7.3285,7.3519,7.3667,7.3701,7.3701,7.3701,7.4026,7.4634,7.4681,7.5053,7.5614,7.5709,7.5743,7.5709,7.4289,7.3747,7.3815,7.4492,7.5134,7.5709,2.4095,2.4365,2.4555,2.4271,2.4993,2.6153,2.7735,2.7764,2.9502,3.4801,3.4442,3.5639,4.0853,4.1542,4.2043,4.32,4.3768,4.4137,4.4137,4.3589,4.3947,4.5424,4.6022,4.7309,4.9404,4.9972,5.0853,5.2187,5.2845,5.3631,5.4488,5.515,5.5551,5.5769,5.6541,5.6896,5.6943,5.7589,5.8197,5.856,5.7312,5.648,5.5962,5.4995,5.4613,5.4454,5.3181,5.2927,5.3118,5.2722,5.2917,5.3116,5.207,5.2028,0.0,0.0,0.0,0.0,0.0,0.0,0.0,0.0,0.0,0.0,0.0,0.0,0.0,0.0,0.0,0.0,0.0,0.0,0.0,6.1757,6.2974,6.4034,6.4332,6.5392,6.6055,6.5922,6.6199,6.663,6.7347,6.7989,6.8387,6.8473,6.9169,6.9974,7.0842,7.0818,7.1327,7.2538,7.2367,7.2434,7.2854,7.3376,7.3692,7.3774,7.4377,0.0,7.4728,7.4728,7.4829,7.4929,7.5075,7.5142,7.5164,7.5566,7.6082,7.6589,7.5642,7.527,7.527,7.5439,7.5574,7.5709,2.3655,2.371,2.3949,2.4268,2.4833,2.5769,2.738,2.7585,2.9142,3.3455,3.3724,3.5011,3.896,4.0307,4.1145,4.1803,4.2761,4.3479,4.3768,4.3469,4.4037,4.5753,4.6142,4.7399,4.9703,5.0016,5.1003,5.2695,5.3025,5.3713,5.47,5.5029,5.5179,5.5259,5.6033,5.6404,5.6434,5.7254,5.7789,5.8035,5.7359,5.6634,5.6039,5.6107,5.6467,5.6825,5.6113,5.5854,5.5725,5.5053,5.4879,5.4763,5.3584,5.3441,5.3248,0.0,0.0,0.0,0.0,0.0,0.0,0.0,0.0,0.0,0.0,0.0,0.0,0.0,0.0,6.0125,6.0456,0.0,6.2884,6.3249,6.4498,6.5459,6.5459,6.6386,6.6916,6.6506,6.685,6.7347,6.8076,6.8473,6.9003,6.9732,7.0129,7.0708,7.1615,7.1503,7.1981,7.3068,7.2892,7.3107,7.3864,7.4085,7.4253,7.4399,7.4801,7.5018,7.5018,7.5018,7.5018,7.5051,7.5485,7.5569,7.5587,7.6169,7.6671,7.6974,7.657,7.6583,7.6826,7.6826,7.6826,7.6826,2.3117,2.3043,2.335,2.4238,2.4544,2.5267,2.6942,2.7315,2.8603,3.1898,3.2796,3.4203,3.7105,3.896,4.0217,4.0726,4.1863,4.2761,4.326,4.329,4.4127,4.601,4.6177,4.7342,4.9777,4.9954,5.0986,5.2785,5.3006,5.3753,5.4999,5.5119,5.5179,5.5209,5.5748,5.6038,5.6068,5.6526,5.6855,5.7064,5.6825,5.671,5.6718,5.7078,5.7657,5.8167,5.8037,5.7516,5.68,5.6051,5.5545,5.5056,5.4253,5.4309,5.4406,5.2738,5.2652,0.0,0.0,0.0,0.0,0.0,0.0,0.0,0.0,5.8289,5.9562,5.9728,6.0821,6.1947,6.2676,6.3305,6.4001,6.4862,6.5856,6.6585,6.6717,6.738,6.7612,6.7016,6.7479,6.8109,6.8837,6.8904,6.9467,7.0792,7.0891,7.1289,7.2183,7.2216,7.2646,7.3624,7.3409,7.3808,7.4821,7.4622,7.4622,7.4821,7.4821,7.4888,7.5055,7.5055,7.5121,7.5255,7.5823,7.6141,7.6274,7.6776,7.711,7.7295,7.7295,7.7699,7.8233,7.7929,7.7828,7.7828,2.284,2.2907,2.3058,2.3164,2.3636,2.4423,2.5634,2.6333,2.7889,3.1182,3.169,3.3155,3.6985,3.8123,3.9559,4.1961,4.2791,4.323,4.329,4.329,4.3917,4.5334,4.5811,4.6794,4.8476,4.9232,5.0164,5.1439,5.2364,5.3347,5.4341,5.491,5.5179,5.5179,5.5269,5.5299,5.5299,5.5359,5.6047,5.7004,5.5867,5.6577,5.8193,5.7091,5.623,5.5546,5.494,5.4274,5.3607,5.291,5.3208,5.3658,5.2935,5.4672,5.6463,5.3617,5.3501,5.3753,5.1646,5.2227,5.3739,5.5052,5.7026,5.8966,0.0,6.1227,6.2022,6.2685,6.3438,6.4233,6.4929,6.5127,6.5624,6.7049,6.685,6.6705,6.7367,6.8109,6.8539,6.844,6.8506,6.8871,6.9599,6.9666,7.003,7.0825,7.0891,7.1521,7.2912,7.2978,7.331,7.4089,7.4089,7.4155,7.4272,7.4272,7.4272,7.4272,7.4272,7.4604,7.5267,7.5267,7.5599,7.6163,7.6262,7.6553,7.696,7.6806,7.7258,7.8082,7.8082,7.8569,7.909,7.7698,7.7195,7.7195,2.3123,2.2923,2.2718,2.2824,2.3727,2.462,2.5028,2.5864,2.7297,2.9569,3.0419,3.1722,3.4165,3.5687,3.7411,3.9594,4.0912,4.1735,4.2008,4.2684,4.3547,4.4501,4.4946,4.5838,4.7273,4.8042,4.9195,5.0775,5.1243,5.225,5.3743,5.4039,5.4467,5.4955,5.5159,5.544,5.5777,5.6012,5.646,5.7034,5.6526,5.6423,5.6557,5.5981,5.531,5.473,5.5555,5.5225,0.0,0.0,5.4445,5.4389,5.3882,5.468,5.5202,5.2293,5.2244,5.3264,5.3816,5.5431,5.7261,5.8379,6.0076,6.1483,6.1682,6.261,6.3537,6.3835,6.4796,6.5591,6.5425,6.6121,6.6751,6.6949,6.7413,6.7877,6.8208,6.8871,6.9334,6.9334,6.9334,6.9434,6.9765,6.9798,7.0262,7.1455,7.1554,7.2183,7.3641,7.374,7.3873,7.4221,7.4221,7.4221,7.4221,7.4221,7.4453,7.48,7.48,7.5198,7.5894,7.5894,7.6258,7.6954,7.6954,7.729,7.7932,7.7794,7.7993,7.8364,7.8364,7.8564,7.8816,7.853,7.8451,7.8451,2.3128,2.3051,2.2928,2.2723,2.3691,2.441,2.396,2.4747,2.5908,2.7374,2.8523,3.001,3.202,3.4157,3.587,3.6974,3.903,4.0293,4.0448,4.1804,4.3019,4.3879,4.4103,4.4814,4.6049,4.6785,4.7962,4.9693,5.0158,5.1218,5.2859,5.3036,5.3461,5.4167,5.4406,5.4768,5.5155,5.5426,5.5775,5.6183,5.6004,5.5517,5.488,5.4491,5.3952,5.3579,5.5163,5.5156,5.4376,0.0,5.4269,5.3743,5.3714,5.3959,5.3914,5.1686,5.1744,5.3017,5.4868,5.7028,5.8998,5.9922,6.1633,6.3013,6.2486,6.3562,6.4664,6.463,6.5624,6.6353,6.5823,6.6751,6.7466,6.7181,6.8009,6.8771,6.897,6.9467,6.9864,7.0063,7.0096,7.0163,7.0394,7.0229,7.0726,7.2183,7.2316,7.2846,7.4155,7.4221,7.4221,7.4221,7.4221,7.4221,7.4221,7.442,7.4785,7.5264,7.5463,7.5927,7.6622,7.6821,7.7219,7.7715,7.7715,7.8014,7.8511,7.8511,7.8511,7.8511,7.8511,7.8511,7.8564,7.9022,7.9127,7.9127,2.2597,2.3453,2.3883,2.2803,2.3173,2.3225,2.1955,2.2363,2.3248,2.4472,2.5724,2.7956,3.1692,3.444,3.5739,3.5149,3.7984,3.9542,3.8922,4.0654,4.2334,4.3643,4.3483,4.3763,4.4722,4.5522,4.6515,4.7686,4.9321,5.0583,5.1581,5.2171,5.2466,5.2496,5.2446,5.2526,5.2526,5.2526,5.3059,5.3872,5.3169,5.3436,5.4102,5.2785,5.1887,5.1379,5.2055,5.2312,5.2192,5.1563,5.0887,5.0437,5.1126,5.2427,5.3544,5.276,5.2991,5.3546,5.3302,5.4983,5.695,5.7567,6.0266,6.2839,6.2807,6.4125,6.5392,6.5392,6.5989,6.6473,6.6485,6.7115,6.7844,6.8506,6.8672,6.8937,6.9666,6.9765,7.0063,7.0792,7.0858,7.1156,7.1852,7.1289,7.1488,7.2978,7.3078,7.3409,7.4188,7.4221,7.4221,7.4221,7.4221,7.4221,7.4221,7.4951,7.5264,7.5297,7.596,7.6655,7.7417,7.8113,7.8477,7.8477,7.8477,7.8511,7.8511,7.8511,7.8511,7.8511,7.8511,7.8511,7.8511,7.8511,7.8511,7.8511,2.2929,2.2934,2.2853,2.247,2.1998,2.1537,2.1095,2.2217,2.3435,2.4449,2.5871,0.0,0.0,0.0,0.0,0.0,3.5746,3.75,3.7974,3.9815,4.1488,4.2779,4.3011,4.3481,4.4237,4.488,4.5636,4.6486,4.7444,4.8475,4.962,4.9824,5.0525,5.1542,5.1374,5.1707,5.2387,5.2188,5.2406,5.2802,5.2181,5.1846,5.1676,5.1232,5.0763,5.0309,0.0,4.9835,4.9703,5.0315,5.0375,5.0375,5.1528,5.2545,5.3403,5.3567,5.3809,5.4328,5.5731,5.7407,5.8881,5.9791,6.1245,6.2476,6.2476,6.3432,6.4407,6.4407,6.514,6.579,6.579,6.6386,6.7115,6.7877,6.8374,6.8937,6.9699,7.0229,7.0626,7.0858,7.1322,7.1918,7.268,7.2051,7.2051,7.3045,7.3111,7.3409,7.4188,7.4221,7.4221,7.4221,7.4221,7.4453,7.4951,7.5216,7.5761,7.6689,7.7417,7.7914,7.8146,7.8411,7.8511,7.8511,7.8511,7.8511,7.8511,7.8511,7.8511,7.8511,7.8511,7.8511,7.8577,7.9074,7.9239,7.9239,0.0,2.2819,2.2569,2.2569,2.187,0.0,0.0,0.0,0.0,0.0,0.0,0.0,0.0,0.0,0.0,0.0,0.0,3.549,3.6412,3.8485,4.0023,4.084,4.1593,4.2266,4.2934,4.3573,4.4414,4.5518,4.6185,4.7143,4.8391,4.8391,4.8923,4.9902,4.9737,5.0038,5.0759,5.0564,5.0925,5.1493,5.0405,5.004,5.0076,4.9398,4.8959,0.0,4.8222,4.7986,4.7999,4.9119,4.9553,4.9733,5.081,5.1768,5.2755,5.4162,5.473,5.533,5.7254,5.8613,5.9643,6.031,6.1095,6.174,6.174,6.2826,6.38,6.3388,6.4649,6.5589,6.4976,6.6192,6.7281,6.7247,6.8042,6.8937,6.9699,7.0196,7.0792,7.1587,7.2117,7.268,7.3409,7.3045,7.2978,7.3442,7.3475,7.3674,7.4188,7.4221,7.4354,7.4586,7.4619,7.4933,7.5628,7.5927,7.6655,7.7815,7.8279,7.8511,7.8511,7.8511,7.8511,7.8511,7.8511,7.8511,7.8511,7.8511,7.8676,7.8908,7.8908,7.9074,7.9339,7.9836,8.0001,8.0001,0.0,0.0,2.307,0.0,0.0,0.0,0.0,0.0,0.0,0.0,0.0,0.0,0.0,0.0,0.0,0.0,0.0,0.0,3.4298,3.6686,3.8144,3.8165,3.9354,4.0379,4.1018,4.1715,4.2905,4.4705,4.5401,4.6359,4.755,4.7579,4.7608,4.7637,4.7637,4.7637,4.7695,4.7695,4.8534,4.9735,4.7834,4.7942,4.9085,4.7213,4.6477,4.6491,4.6521,4.6653,4.6931,4.788,4.8237,4.8446,4.9299,5.0361,5.1887,5.4521,5.5748,5.6555,5.7812,5.862,5.9099,5.9099,5.9842,6.065,6.068,6.227,6.3468,6.2467,6.438,6.5732,6.415,6.634,6.7983,6.6726,6.7698,6.8904,6.9732,6.9898,7.0693,7.2846,7.3144,7.3442,7.4155,7.4171,7.412,7.412,7.4171,7.4221,7.4221,7.4153,7.4484,7.518,7.5246,7.561,7.6253,7.7067,7.7762,7.8403,7.8457,7.8511,7.8511,7.8403,7.8457,7.8511,7.8436,7.8523,7.8577,7.861,7.8987,7.9561,7.9561,7.9991,8.0587,8.0675,8.0675,8.073,0.0,0.0,0.0,0.0,0.0,0.0,0.0,0.0,0.0,0.0,0.0,0.0,0.0,0.0,0.0,0.0,0.0,0.0,3.3429,3.5561,3.6929,3.7357,3.8717,3.9712,4.035,4.1018,4.1599,4.2063,4.3195,4.3892,4.4211,4.4734,4.5198,4.5634,4.5634,4.5895,4.6359,4.6359,4.6608,4.6858,4.5913,4.571,4.6032,4.5492,4.5157,4.4936,4.5478,4.5461,4.5381,4.6278,4.7358,4.8835,5.1977,5.3174,5.3862,5.5987,5.7094,5.7812,5.862,5.8979,5.9099,5.9099,5.9315,5.962,6.0132,6.0914,6.1594,6.1815,6.2234,6.2748,6.3316,6.3917,6.4854,6.6565,6.7462,6.8539,7.0361,7.109,7.1852,7.2978,7.3575,7.3972,7.4188,7.3389,7.2887,7.2887,7.3679,7.4221,7.4221,7.3829,7.3714,7.3909,7.4398,7.5017,7.5734,7.7388,7.7849,7.7102,7.8046,7.8511,7.8457,7.7522,7.7632,7.849,7.8078,7.8451,7.9372,7.9902,7.9649,7.8901,7.8901,7.9032,7.9317,7.9838,8.0639,8.148,0.0,0.0,0.0,0.0,0.0,0.0,0.0,0.0,0.0,0.0,0.0,0.0,0.0,0.0,0.0,0.0,0.0,0.0,0.0,3.4163,3.5331,3.5046,3.6579,3.7863,3.887,3.9168,3.9773,4.067,4.1657,4.2324,4.2615,4.2992,4.334,4.366,4.366,4.3863,4.4211,4.4211,4.4531,0.0,0.0,4.3573,4.4008,4.3427,4.328,4.3436,4.4048,4.4557,4.5167,4.6755,4.8119,4.9673,5.2785,5.3952,5.4581,5.6526,5.7573,5.8261,5.8919,5.9099,5.9099,5.9099,5.9099,5.9189,5.9578,6.0221,6.0576,6.0228,6.0718,6.1446,6.2015,6.3049,6.433,6.5789,6.7174,6.8639,7.0196,7.0634,7.1206,7.2634,7.2711,7.2591,7.2591,7.2004,7.1721,7.2041,7.238,7.2753,7.3046,7.2787,7.2883,7.3492,7.3844,7.4388,7.5125,7.6282,7.6734,7.6621,7.6734,7.7157,7.7632,7.6338,7.6613,7.8124,7.7812,7.8283,7.9238,7.9688,7.9242,7.8295,7.8295,7.8487,7.8807,7.9224,7.9865,8.0463,0.0,0.0,0.0,0.0,0.0,0.0,0.0,0.0,0.0,0.0,2.4632,0.0,0.0,0.0,0.0,0.0,0.0,0.0,0.0,0.0,3.3339,3.2168,3.3816,3.5455,3.686,3.6855,3.7737,3.9596,4.0263,4.0902,4.1453,4.1628,4.1715,4.1715,4.1802,4.1831,4.1831,4.1831,4.2469,4.334,4.1657,4.1628,4.2498,0.0,0.0,4.1918,4.2528,4.3788,4.5566,4.7776,4.928,5.0554,5.2665,5.3832,5.482,5.6585,5.7633,5.8381,5.8949,5.9099,5.9099,5.9099,5.9099,5.9099,5.9099,5.9728,5.9958,5.8444,5.9522,6.067,6.0373,6.2536,6.4449,6.4707,6.6802,6.8649,6.9607,6.9466,6.9944,7.1778,7.1146,7.0599,7.0599,7.0526,7.0696,7.1326,7.0771,7.0797,7.168,7.1692,7.2207,7.3466,7.3498,7.3812,7.447,7.4589,7.5178,7.6078,7.512,7.5295,7.6338,7.5098,7.5596,7.746,7.7481,7.7899,7.8597,7.8693,7.8307,7.7652,7.7652,7.803,7.8628,7.8628,7.8754,7.8879,0.0,0.0,0.0,0.0,0.0,0.0,0.0,0.0,0.0,0.0,2.7971,2.7293,0.0,0.0,0.0,0.0,0.0,0.0,0.0,0.0,0.0,3.0679,3.1979,3.3393,3.4888,3.5309,3.5992,3.6954,3.7622,3.8028,3.8173,3.9218,3.9712,3.9712,4.0205,4.0437,4.0437,4.0437,4.0583,4.0757,4.0408,4.0408,4.0583,0.0,0.0,0.0,4.1192,4.3102,4.5449,4.6417,4.8174,5.0411,5.3185,5.485,5.5987,5.6855,5.7962,5.8949,5.9069,5.9099,5.9099,5.9099,5.9099,5.9099,5.9099,5.8841,5.8444,5.8141,5.7978,5.7976,5.846,5.9706,6.1464,6.4102,6.5625,6.7151,6.9021,6.9696,7.0039,7.0058,7.0363,7.0599,7.0599,7.0224,6.9985,7.0109,6.9611,7.0189,7.2323,7.1977,7.2058,7.2891,7.2922,7.2984,7.3108,7.4171,7.4291,7.3476,7.4291,7.4826,7.5034,7.428,7.4715,7.6053,7.6182,0.0,7.8016,7.8588,7.8156,7.7033,7.7033,7.7095,7.7284,7.7284,7.7962,7.8754,0.0,0.0,0.0,0.0,0.0,0.0,0.0,2.9603,3.0131,3.2089,3.1888,3.0783,2.88,2.8072,2.7754,0.0,0.0,0.0,0.0,0.0,0.0,0.0,0.0,0.0,0.0,3.308,0.0,0.0,0.0,3.646,3.6809,3.7418,3.7709,3.7709,3.7999,3.8115,3.8115,3.8115,3.8115,3.8144,3.8492,3.8638,0.0,0.0,0.0,0.0,4.0844,4.2611,4.4807,4.5932,4.7724,5.0005,5.2673,5.4719,5.6286,5.6915,5.8052,5.9099,5.9099,5.9099,5.9099,5.9099,5.9368,5.9428,5.874,5.8351,5.7842,5.6795,5.6077,5.5897,5.6915,5.8014,5.9537,6.2093,6.3734,6.5262,6.6991,6.7282,6.7674,6.8564,6.8405,6.8338,6.8707,6.8482,6.8607,6.9335,6.9171,6.9659,7.1169,7.1256,7.1458,7.1792,7.1792,7.1792,7.1792,7.2393,7.2736,7.2798,7.2736,7.3046,7.3659,7.3096,7.3713,7.534,7.5735,7.6418,7.7366,7.7709,7.7089,7.5826,7.5826,7.5826,7.5826,7.5826,7.6263,7.6695,0.0,0.0,0.0,0.0,0.0,0.0,0.0,3.1763,3.2416,3.4776,3.4876,3.3746,3.1135,2.9628,2.8746,0.0,0.0,0.0,0.0,0.0,0.0,0.0,0.0,0.0,0.0,0.0,0.0,0.0,0.0,0.0,0.0,0.0,0.0,0.0,3.6257,3.6315,3.6315,3.6315,3.6315,0.0,0.0,3.7302,0.0,0.0,0.0,0.0,0.0,4.2121,4.3993,4.5332,4.7131,4.9145,5.1157,5.3714,5.6025,5.6653,5.7789,5.8919,5.9069,5.9099,5.9099,5.9099,5.9488,5.9488,5.8052,5.7693,5.7154,5.5179,5.4341,5.4251,5.5149,5.6404,5.7813,5.9613,6.1457,6.3224,6.4653,6.4652,6.5176,6.6974,6.6461,6.6251,6.6939,6.7238,6.7867,6.8914,6.9243,6.9632,7.0141,7.0649,7.0889,7.0889,7.0889,7.0889,7.0889,7.0889,7.1375,7.2393,7.1375,7.153,7.2575,7.2279,7.3073,7.4721,7.5395,7.5942,7.6462,7.6462,7.5826,7.4869,7.4869,7.4869,7.4869,7.4869,7.4869,7.4869,0.0,0.0,0.0,0.0,0.0,0.0,0.0,3.1863,3.3119,3.5902,3.5353,3.46,3.4254,3.2365,3.0723,0.0,0.0,0.0,0.0,0.0,0.0,0.0,0.0,0.0,0.0,0.0,0.0,0.0,0.0,0.0,0.0,0.0,0.0,0.0,0.0,3.6315,3.6315,3.6315,0.0,0.0,0.0,0.0,0.0,0.0,0.0,0.0,0.0,4.1424,4.3195,4.3964,4.5653,4.7528,4.8365,5.1541,5.5083,5.5716,5.6974,5.8351,5.8949,5.9099,5.9099,5.9099,5.9159,5.871,5.6795,5.6346,5.5777,5.3773,5.3324,5.3114,5.2665,5.4141,5.5851,5.7056,5.8888,6.0805,6.2783,6.3518,6.4254,6.517,0.0,0.0,6.6939,6.8106,6.8884,6.9004,7.0081,7.0739,7.0799,7.0859,7.0889,7.0889,7.0889,7.0889,7.0889,7.0889,7.0954,7.1083,7.0954,7.1283,7.1983,7.2571,7.323,7.4024,7.4684,7.5014,0.0,7.5074,7.5006,7.4869,7.4869,7.4869,7.4869,7.4869,7.4869,7.4869,0.0,0.0,0.0,0.0,0.0,0.0,3.2867,3.3018,3.3972,3.7461,3.7186,3.6558,3.6232,3.4525,3.2416,0.0,0.0,0.0,0.0,0.0,0.0,0.0,0.0,0.0,0.0,0.0,3.0986,3.2348,3.2619,0.0,0.0,0.0,0.0,0.0,0.0,3.5532,3.5183,3.5183,0.0,0.0,0.0,0.0,0.0,0.0,0.0,0.0,0.0,0.0,4.2615,4.3631,4.4589,4.555,4.6903,4.8963,5.1345,5.3861,5.596,5.7633,5.8321,5.88,5.9099,5.9099,5.9099,5.859,5.6615,5.5867,5.491,5.2486,5.1379,5.087,5.099,5.2007,5.332,5.5013,0.0,0.0,6.091,6.1734,6.2841,6.4755,6.5263,6.5832,6.6879,6.7837,6.8704,6.9542,7.041,7.0889,7.0889,7.0889,7.0889,7.0889,7.0889,7.0889,7.0889,7.0889,7.0889,7.0889,7.0889,7.1248,7.1906,7.2595,7.3283,7.3941,7.4599,7.4869,0.0,7.4869,7.4869,7.4869,7.4869,7.4869,7.4869,7.4869,7.4869,7.4869,0.0,0.0,0.0,0.0,0.0,2.9478,3.3621,3.3721,3.4474,3.7762,3.7914,3.7563,3.701,3.5328,3.3294,3.0959,0.0,0.0,0.0,0.0,0.0,0.0,0.0,0.0,0.0,0.0,3.1026,3.1908,3.2798,3.3671,0.0,0.0,0.0,0.0,0.0,0.0,0.0,0.0,0.0,0.0,0.0,0.0,0.0,0.0,0.0,0.0,0.0,0.0,0.0,0.0,0.0,4.3921,4.5285,4.6599,4.8412,5.229,5.4696,5.6362,5.749,5.8291,5.88,5.88,5.853,5.7812,5.6226,5.491,5.3384,5.1109,4.9763,4.9045,4.9314,5.0166,5.1439,0.0,0.0,5.7214,5.9219,6.0266,6.1792,6.4395,6.4904,6.5533,6.6879,6.7777,6.8824,7.0141,7.0585,7.0789,7.0889,7.0854,7.0789,7.0889,7.0889,7.0889,7.0889,7.0889,7.0889,7.0889,7.1098,7.1547,7.2206,7.2894,7.3552,7.421,7.4659,7.4869,0.0,7.4869,7.4869,7.4869,7.4869,7.4869,7.4869,7.4869,7.4869,7.4869,0.0,0.0,0.0,0.0,0.0,0.0,3.2591,3.3545,3.45,3.6204,3.6908,3.6985,3.648,3.4444,3.3111,3.3086,0.0,0.0,0.0,0.0,0.0,0.0,0.0,0.0,0.0,0.0,3.1191,3.0906,3.3903,3.5231,3.5003,3.5863,3.6286,3.6286,0.0,0.0,0.0,0.0,3.5392,0.0,0.0,0.0,3.8202,0.0,0.0,0.0,0.0,0.0,0.0,0.0,0.0,0.0,0.0,4.453,4.7134,5.1297,5.3138,5.4339,5.6534,5.7603,5.8141,5.8141,5.7154,5.6017,5.5359,5.3144,5.09,4.9599,4.8745,4.8087,4.7459,4.888,5.0435,5.1139,0.0,0.0,5.7872,5.9279,6.1074,6.3707,6.4605,6.5533,6.6879,6.8196,6.9512,7.0799,7.0593,7.0593,7.0889,7.0593,7.0593,7.0889,7.0889,7.0889,7.0889,7.0889,7.0889,7.0919,7.1577,7.2235,7.2924,7.3582,7.424,7.4869,7.4869,7.4869,0.0,7.4869,7.4869,7.4869,7.4869,7.4869,7.4869,7.4869,7.4869,7.4869,0.0,0.0,0.0,0.0,0.0,0.0,0.0,3.2064,3.2918,3.4977,3.5403,3.573,3.6355,3.4444,3.3111,3.3111,0.0,0.0,0.0,0.0,0.0,0.0,0.0,0.0,0.0,0.0,3.2119,3.3193,3.4862,3.6052,3.6822,3.7703,3.7711,3.7012,3.7418,3.7012,0.0,3.6025,3.6257,0.0,0.0,3.768,3.8202,0.0,0.0,0.0,0.0,0.0,0.0,0.0,0.0,0.0,0.0,0.0,0.0,4.758,5.0384,5.2673,5.3544,5.491,5.6017,5.5568,5.479,5.3832,5.2725,5.1421,5.0016,4.8297,4.7399,4.716,4.7848,4.8865,5.0092,5.1648,0.0,0.0,5.7962,5.9668,6.1583,6.3737,6.5413,6.6879,6.8226,6.8764,6.9415,7.0474,7.0462,7.0331,7.02,7.0134,7.0331,7.0889,7.0889,7.0889,7.0889,7.0889,7.0889,7.0919,7.1577,7.2235,7.2924,7.3582,7.424,7.4869,7.4869,7.4869,7.4869,7.4869,7.4869,7.4869,7.4869,7.4869,7.4869,7.4869,7.4869,7.4869,0.0,0.0,0.0,0.0,0.0,0.0,0.0,3.0959,3.1662,3.3269,3.347,3.3897,3.5047,3.3345,0.0,3.2717,0.0,0.0,0.0,0.0,0.0,0.0,0.0,0.0,3.008,3.1616,3.3031,3.4384,3.6167,3.7311,3.7993,3.927,3.926,3.8159,3.8688,3.8202,0.0,3.6519,3.6693,3.7302,3.7302,3.768,3.8202,0.0,0.0,0.0,0.0,0.0,0.0,0.0,0.0,0.0,0.0,0.0,0.0,0.0,4.7686,5.0139,5.1165,5.2725,5.3952,5.3563,5.2576,5.1618,5.1289,4.9897,4.8372,4.7189,4.6621,4.6561,4.7399,4.8506,5.0048,5.2217,5.491,5.7064,5.7992,5.9847,6.1942,6.4126,6.5922,6.7537,6.8884,6.9004,6.9415,7.0343,7.0265,7.0134,6.9936,6.9737,6.9936,7.0498,7.0658,7.0724,7.0724,7.0854,7.1038,7.1278,7.1966,7.2624,7.3313,7.3971,7.448,7.4869,7.4869,7.4869,0.0,7.4869,7.4869,7.4869,7.4869,7.4869,7.4869,7.4869,7.4869,7.4869,0.0,0.0,0.0,0.0,0.0,0.0,0.0,3.0231,3.0783,3.126,3.1361,3.1788,3.2842,3.1562,0.0,0.0,0.0,0.0,0.0,0.0,0.0,0.0,0.0,0.0,3.0758,3.2607,3.3955,3.4901,3.7622,3.885,3.8595,4.0458,4.0737,3.9662,3.9974,3.9431,3.8202,3.6954,3.6809,3.736,3.736,3.7709,0.0,0.0,0.0,0.0,0.0,0.0,0.0,0.0,0.0,0.0,0.0,0.0,0.0,0.0,0.0,0.0,0.0,5.0943,5.2067,5.2067,5.069,4.9643,5.081,4.8716,0.0,4.6429,4.6471,4.6459,4.6608,4.8177,5.0318,5.2965,5.4999,5.6705,5.8082,6.0027,6.2241,6.4725,6.6221,6.7567,6.8884,6.9034,6.9445,7.0308,7.0068,6.9869,6.9803,6.947,6.947,6.9869,7.0134,7.0331,7.0397,7.0724,7.1248,7.1906,7.2595,7.3253,7.3911,7.4569,7.4869,0.0,7.4869,7.4869,7.4869,7.4869,7.4869,7.4869,7.4869,7.4869,7.4869,7.4869,7.4869,7.4869,0.0,0.0,0.0,0.0,0.0,0.0,0.0,0.0,0.0,0.0,3.1135,3.1486,3.1763,3.1085,0.0,0.0,0.0,0.0,0.0,0.0,0.0,0.0,0.0,0.0,3.2466,3.3359,3.4749,3.6609,3.8111,3.897,3.9238,4.0891,4.1452,4.0994,4.0619,3.9857,3.8899,3.8115,3.7854,3.7999,3.7999,3.8086,0.0,0.0,0.0,0.0,3.9625,4.0437,0.0,0.0,0.0,0.0,0.0,0.0,0.0,0.0,4.4317,4.5427,4.6634,0.0,5.0644,5.0644,5.0315,4.9972,0.0,4.9134,4.8446,4.7938,4.7818,4.8297,4.9793,5.0451,5.1798,5.497,5.6256,5.7513,5.9368,6.1762,6.3737,6.4904,6.664,6.8076,6.8914,6.9453,6.9824,7.0009,6.9936,6.967,6.9098,6.8963,6.9098,6.9404,6.9537,6.9803,7.0397,7.0462,7.0957,7.1906,7.2595,7.3253,7.3911,7.4569,7.4869,7.4869,7.4869,7.4869,7.4869,7.4869,7.4869,7.4869,7.4869,7.4869,7.4869,7.4869,7.4869,7.4869,0.0,0.0,0.0,0.0,0.0,0.0,0.0,0.0,0.0,0.0,0.0,0.0,0.0,0.0,0.0,0.0,0.0,0.0,0.0,0.0,0.0,0.0,0.0,3.2416,3.3796,3.4374,3.573,3.7965,3.8577,3.9359,4.0286,4.1564,4.1976,4.1552,4.0703,3.9929,3.9131,3.8202,3.7941,3.8173,3.7912,0.0,0.0,0.0,0.0,0.0,3.9625,4.0321,0.0,4.244,4.2963,4.2992,0.0,0.0,0.0,0.0,4.3881,4.4912,4.6016,4.7554,4.8955,4.9254,4.9105,4.8865,4.8835,4.885,4.8626,4.7967,4.8536,4.9494,5.0524,5.2007,5.3713,5.5888,5.7453,5.9159,6.1164,6.2929,6.4485,6.5772,6.7148,6.8345,6.9363,6.9624,6.9779,6.9877,6.9737,6.9404,6.8828,6.8828,6.8895,6.9068,6.9098,6.9404,7.02,7.0331,7.1004,7.2156,7.2678,7.3402,7.436,7.4719,7.5048,7.5318,7.5018,7.5048,7.5318,7.5018,7.4869,7.4869,7.4869,7.4869,7.4869,7.4869,7.4869,7.4869,0.0,0.0,0.0,0.0,0.0,0.0,0.0,0.0,0.0,0.0,0.0,0.0,0.0,0.0,0.0,0.0,0.0,0.0,0.0,0.0,0.0,0.0,3.234,3.3345,3.4926,3.5633,3.701,3.9045,3.9069,3.9848,4.1204,4.2051,4.215,4.1591,4.0591,3.9794,3.9159,3.7953,3.7738,3.8173,3.7651,0.0,0.0,0.0,0.0,0.0,0.0,0.0,0.0,4.2789,4.3311,4.3079,4.3544,0.0,0.0,0.0,0.0,0.0,4.6373,4.7214,4.7834,4.8446,4.8177,4.7938,4.8596,4.8805,4.8716,4.8177,4.9553,5.0853,5.1063,5.3443,5.5658,5.6615,5.889,6.1134,6.2839,6.3797,6.4964,6.6789,6.7657,6.8615,6.9778,6.97,6.9607,6.984,6.947,6.9136,6.8828,6.8828,6.8828,6.8895,6.8828,6.9165,6.9803,7.0068,7.0984,7.2387,7.2723,7.3604,7.5018,7.4929,7.5258,7.5856,0.0,0.0,7.5707,7.5108,7.4869,7.4869,7.4869,7.4869,7.4869,7.4869,7.4869,7.4731,0.0,0.0,0.0,0.0,0.0,0.0,0.0,0.0,0.0,0.0,0.0,0.0,0.0,0.0,0.0,0.0,0.0,0.0,0.0,0.0,0.0,3.4098,3.4299,3.4901,3.6128,3.7588,3.8768,3.9572,4.0023,4.04,4.0651,4.1246,4.1363,4.1182,4.068,4.0097,3.9365,3.8467,3.8115,3.8202,3.8115,0.0,0.0,0.0,0.0,0.0,0.0,0.0,0.0,4.1395,4.2179,4.2934,4.2498,0.0,0.0,0.0,0.0,0.0,4.6859,4.8459,4.9548,4.9821,4.9807,4.9927,5.0601,5.1199,5.1558,5.1468,5.2606,5.3952,5.5059,5.5688,5.6765,5.9099,6.1253,6.272,6.3019,6.4605,6.6011,6.6879,6.8076,6.8997,6.9486,6.9987,7.0015,6.947,6.9337,6.9136,6.8828,6.8828,6.8963,6.9203,6.8963,6.903,6.9404,6.947,7.0481,7.2387,7.2454,7.364,7.5736,7.5138,7.5258,7.5856,0.0,7.4929,7.5018,7.4929,7.4869,7.4869,7.4869,7.4869,7.4869,7.4869,7.4663,7.4387,0.0,0.0,0.0,0.0,0.0,0.0,0.0,0.0,0.0,0.0,0.0,0.0,0.0,0.0,0.0,0.0,0.0,0.0,0.0,0.0,3.239,3.5479,3.5629,3.6157,3.7236,3.8366,3.9421,4.0576,4.1128,4.1706,4.2258,4.1839,4.169,4.1781,4.0919,4.0209,3.962,3.9003,3.8256,3.7529,0.0,0.0,0.0,0.0,0.0,0.0,0.0,0.0,0.0,0.0,4.2034,4.2528,4.2557,0.0,0.0,0.0,0.0,0.0,4.6123,4.7614,4.9116,5.0418,5.1588,5.2366,5.2306,5.3084,5.3713,5.3354,5.4341,5.5448,5.6128,5.7034,5.8501,6.0805,6.2241,6.3318,6.4036,6.5533,6.6909,6.7956,6.8944,6.9654,6.9927,7.0088,6.9869,6.9337,6.9136,6.8963,6.8828,6.8828,6.8895,6.903,6.8895,6.907,6.9593,6.9593,7.0507,7.2277,7.2756,7.3891,7.5578,7.5488,7.5617,7.5856,0.0,7.5078,7.5407,7.5018,7.4869,7.4869,7.4869,7.4869,7.4869,7.4663,7.4179,7.3761,0.0,0.0,0.0,0.0,0.0,0.0,0.0,0.0,0.0,0.0,0.0,0.0,0.0,0.0,0.0,0.0,0.0,0.0,0.0,3.1838,3.3345,3.648,3.6458,3.7086,3.8567,3.927,4.0375,4.1852,4.261,4.3288,4.394,4.2434,4.191,4.209,4.0793,3.9984,3.962,3.9202,3.8349,3.726,0.0,0.0,0.0,0.0,0.0,0.0,0.0,0.0,0.0,0.0,0.0,0.0,0.0,0.0,0.0,4.2963,4.3584,4.4528,4.574,4.7244,4.901,5.1135,5.2606,5.3533,5.3623,5.4461,5.5089,5.473,5.5718,5.6705,5.7034,5.859,6.0356,6.2061,6.2869,6.3767,6.5084,6.6251,6.7418,6.8615,6.9269,6.9734,7.0034,6.9847,6.9604,6.9203,6.8963,6.8828,6.8828,6.8828,6.8828,6.8828,6.8828,6.9118,6.9757,6.9786,7.069,7.2438,7.3015,7.4041,7.5535,7.5657,7.5766,7.5856,7.5168,7.5168,7.5617,7.5078,7.4869,7.4869,7.4869,7.48,7.4731,7.4318,7.3761,7.3228,0.0,0.0,0.0,0.0,0.0,0.0,0.0,0.0,0.0,0.0,0.0,0.0,0.0,0.0,0.0,0.0,0.0,0.0,3.2114,3.3144,3.4726,3.7036,3.6681,3.7613,4.0275,4.1379,4.2539,4.3614,4.4719,4.502,4.4518,4.2363,4.1364,4.1296,3.9967,3.9256,3.9013,3.8769,3.8416,3.8127,3.8165,0.0,0.0,0.0,0.0,0.0,0.0,0.0,0.0,0.0,0.0,0.0,0.0,0.0,4.2266,4.2818,4.3499,4.4516,4.6844,4.8837,5.0751,5.2599,5.2247,5.2067,5.4491,5.5119,5.5359,5.5927,5.7064,5.8351,5.9578,6.0954,6.2121,6.2869,6.3528,6.4395,6.5742,6.655,6.7268,6.7956,6.83,6.8635,6.8962,6.9185,6.9203,6.8895,6.8828,6.8828,6.8828,6.8828,6.8828,6.8828,6.8828,6.9118,6.9757,6.9786,7.0923,7.314,7.2944,7.4029,7.6189,7.5389,7.5288,7.5856,7.5168,7.4899,7.4958,7.4899,7.4869,7.4869,7.4869,7.4663,7.4318,7.397,7.358,7.3228,0.0,0.0,0.0,0.0,0.0,0.0,0.0,0.0,0.0,0.0,0.0,0.0,0.0,0.0,0.0,0.0,0.0,0.0,3.3194,3.3972,3.5554,3.8115,3.7688,3.8693,4.148,4.1605,4.271,4.4844,4.5623,4.5347,4.4066,4.2153,4.1271,4.1183,4.0296,3.9559,3.8891,3.8884,3.8227,3.7195,3.7738,3.8054,0.0,0.0,0.0,0.0,0.0,0.0,0.0,0.0,3.977,4.0554,4.096,4.1541,4.2208,4.2818,4.4037,4.552,4.6943,4.9463,5.2073,5.3754,5.4271,5.467,5.6047,5.7034,5.7573,5.7423,5.8112,5.9009,5.9907,6.1194,6.2301,6.2959,6.4306,6.5413,6.5951,6.6939,6.7837,6.8525,6.9056,6.9456,6.9493,6.959,6.9404,6.8828,6.8828,6.8828,6.8828,6.8828,6.9002,6.9408,6.9408,6.9902,7.0947,7.057,7.1191,7.2844,7.3006,7.351,7.4386,7.4661,7.4823,7.4912,7.4644,7.4663,7.4869,7.4869,7.4869,7.4869,7.4869,7.4525,7.397,7.3831,7.341,7.2844,0.0,0.0,0.0,0.0,0.0,0.0,0.0,0.0,0.0,0.0,0.0,0.0,0.0,0.0,0.0,0.0,0.0,0.0,3.3847,3.4901,3.6433,3.8517,3.8391,3.9421,4.1831,4.1706,4.2886,4.5497,4.5874,4.5372,4.4016,4.2128,4.1375,4.1441,4.0538,3.9976,3.972,3.9661,3.8836,3.7552,3.8243,3.8307,0.0,0.0,0.0,0.0,0.0,0.0,0.0,0.0,3.9305,3.9915,4.0583,4.125,4.1947,4.276,4.4356,4.6172,4.742,4.985,5.2455,5.4552,5.5581,5.6273,5.7214,5.8141,5.871,5.8471,5.9308,6.0236,6.0894,6.2121,6.3228,6.3887,6.5144,6.6071,6.6281,6.7089,6.7897,6.8585,6.918,6.9516,6.9582,6.9685,6.947,6.8828,6.8828,6.8828,6.8828,6.9002,6.9321,6.9757,6.996,7.0599,7.1673,7.1034,7.115,7.2021,7.2303,7.2648,7.3228,7.3856,7.4107,7.411,7.411,7.4318,7.4731,7.4731,7.4731,7.4663,7.4594,7.4179,7.3621,7.3621,7.3199,7.2602,0.0,0.0,0.0,0.0,0.0,0.0,0.0,0.0,0.0,0.0,0.0,0.0,0.0,0.0,0.0,0.0,3.2641,3.3922,3.3922,3.5981,3.7437,3.799,3.8567,3.9647,4.125,4.1882,4.3294,4.5472,4.5497,4.5196,4.4568,4.2304,4.163,4.2112,4.0425,4.0459,4.1632,4.1086,4.0402,3.9718,3.9952,3.9161,3.7821,0.0,0.0,0.0,0.0,0.0,0.0,0.0,3.8638,3.9305,3.9915,4.0554,4.1366,4.2615,4.4385,4.6421,4.8518,5.0057,5.1795,5.4916,5.5723,5.6132,5.7736,5.8141,5.8321,5.8979,6.0685,6.2271,6.2959,6.4156,6.5233,6.5892,6.6011,6.6251,6.6909,6.6999,6.7238,6.7897,6.824,6.8511,6.8838,6.9156,6.9136,6.8828,6.8828,6.8828,6.8828,6.9437,6.9786,6.9786,7.0395,7.1034,7.1673,7.1034,7.0744,7.0744,7.0715,7.1592,7.3169,7.2904,7.3171,7.3761,7.3761,7.397,7.4318,7.4318,7.4318,7.4248,7.3901,7.358,7.3228,7.3228,7.2915,7.2602,0.0,0.0,0.0,0.0,0.0,0.0,0.0,0.0,0.0,0.0,0.0,0.0,0.0,0.0,0.0,0.0,0.0,3.5006,3.5006,3.6759,3.7839,3.799,3.8944,3.9848,4.0752,4.1681,4.3118,4.4895,4.5296,4.4794,4.3438,4.2409,4.158,4.0978,4.0501,4.0031,3.9719,0.0,3.9412,3.9289,3.9357,3.9157,3.8716,0.0,0.0,0.0,0.0,0.0,0.0,0.0,0.0,0.0,3.9915,4.0873,4.1947,4.276,4.5314,4.8101,4.9213,5.1946,5.4844,5.645,5.7315,5.7946,5.8656,5.88,5.9009,5.9668,5.9907,6.0625,6.269,6.3737,6.4665,6.5832,6.64,6.6759,6.6969,6.6999,6.7418,6.8555,6.8538,6.8689,6.9552,6.942,6.9136,6.8828,6.8828,6.9031,6.9466,6.967,7.0192,7.1092,7.1295,7.1702,7.234,7.1702,7.1382,7.1382,7.0947,7.0988,7.1435,7.1837,7.2514,7.3369,7.3369,7.3691,7.4318,7.4594,7.4654,7.455,7.4287,7.3761,7.3228,7.3228,7.2915,7.2602,0.0,0.0,0.0,0.0,0.0,0.0,0.0,0.0,2.9804,2.9804,2.9804,2.988,0.0,0.0,0.0,3.2541,3.4354,3.5508,3.5508,3.6885,3.7789,3.799,3.8894,3.9722,4.0501,4.1379,4.2434,4.3639,4.3991,4.3639,4.269,4.2082,4.158,4.1153,4.0927,4.0686,0.0,0.0,3.9956,3.9646,4.0205,3.9908,3.9175,0.0,0.0,0.0,0.0,0.0,0.0,0.0,0.0,0.0,3.9828,4.1018,4.2353,4.3747,4.6127,4.8711,5.0365,5.2872,5.5328,5.6878,5.7739,5.8372,5.9259,5.9488,5.9697,6.0356,6.0595,6.1343,6.3468,6.4366,6.5144,6.6221,6.6729,6.6999,6.6999,6.6999,6.7416,6.8635,6.8593,6.8748,6.9553,6.947,6.9136,6.8828,6.906,6.9379,6.9757,7.025,7.0889,7.1644,7.1905,7.2224,7.2602,7.1992,7.1673,7.1673,7.1034,7.0976,7.1469,7.1615,7.2162,7.3015,7.342,7.3968,7.4598,7.488,7.4828,7.4491,7.418,7.3574,7.2986,7.2986,7.2844,7.2602,0.0,0.0,0.0,0.0,0.0,0.0,0.0,2.9804,2.9804,2.9804,2.9829,3.008,0.0,0.0,0.0,3.3093,3.4625,3.5508,3.5508,3.6584,3.7412,3.7914,3.8542,3.9346,4.035,4.0902,4.1455,4.2062,4.2162,4.2213,4.2213,4.1656,4.1656,4.2112,0.0,4.1813,0.0,4.2086,4.125,4.0421,4.1635,4.0873,3.9081,3.9637,0.0,0.0,0.0,0.0,0.0,0.0,0.0,0.0,3.9625,4.1018,4.2644,4.5024,4.6766,4.8595,5.1635,5.3036,5.4216,5.6677,5.737,5.8001,5.9708,6.0176,6.0446,6.1074,6.2151,6.3408,6.4784,6.5533,6.6161,6.6879,6.6939,6.6909,6.6969,6.6939,6.7294,6.8288,6.8373,6.8619,6.922,6.927,6.9165,6.8828,6.9408,6.9786,6.9873,7.1005,7.1702,7.176,7.2311,7.2602,7.2602,7.205,7.176,7.176,7.1237,7.1586,7.2689,7.1992,7.205,7.2747,7.3816,7.4632,7.5145,7.5159,7.4808,7.4268,7.3791,7.324,7.2689,7.2631,7.2602,7.2602,0.0,0.0,0.0,0.0,0.0,0.0,2.9804,2.9804,2.9804,2.9804,3.0181,3.0633,3.116,3.2215,0.0,3.3671,3.4781,3.5508,3.5508,3.6584,3.7236,3.7362,3.8316,3.902,3.922,3.9772,4.0325,4.0877,4.1785,4.2213,0.0,0.0,0.0,4.1505,0.0,4.121,4.0967,4.0463,3.9979,3.9651,3.9949,3.9379,3.8423,3.8057,3.7057,0.0,0.0,0.0,0.0,0.0,0.0,0.0,3.9131,4.096,4.3021,4.4066,4.6708,4.9572,5.0793,5.3007,5.5267,5.661,5.8048,5.9373,5.9972,6.0894,6.1702,6.1852,6.2121,6.2869,6.4695,6.5144,6.5622,6.6789,6.655,6.64,6.6909,6.655,6.6786,6.8228,6.8181,6.8389,6.922,6.9098,6.8895,6.8828,6.9408,6.9989,7.0482,7.1266,7.1905,7.2398,7.2544,7.2602,7.2602,7.2485,7.2427,7.2427,7.2805,7.3124,7.3356,7.2195,7.2311,7.3443,7.4416,7.5087,7.542,7.5552,7.5407,7.5158,7.4357,7.3819,7.3327,7.2805,7.2602,7.2602,0.0,0.0,0.0,0.0,0.0,0.0,0.0,0.0,2.988,3.0156,3.0432,3.0909,3.1712,3.2315,0.0,0.0,3.4675,3.5232,3.5483,3.6332,3.6958,3.7186,3.8015,3.8467,3.8467,3.9019,3.9572,4.0124,4.0701,4.1103,0.0,0.0,0.0,4.0899,0.0,4.0974,4.0501,4.0199,3.9879,3.9618,4.0645,4.0435,3.9536,3.9404,3.8686,3.7573,3.6637,0.0,0.0,0.0,0.0,0.0,0.0,0.0,4.2382,4.395,4.604,4.8333,5.054,5.2572,5.4594,5.6895,5.8335,5.9402,6.0194,6.0992,6.1765,6.2249,6.2455,6.3079,6.4725,6.5024,6.5473,6.6789,6.67,6.661,6.6939,6.6577,6.6719,6.8003,6.7859,6.7998,6.8952,6.8895,6.8944,6.9263,6.9873,7.0512,7.115,7.1789,7.2282,7.2602,7.2602,7.2602,7.2602,7.2602,7.2602,7.2631,7.3298,7.3763,7.4024,7.3327,7.3589,7.4547,7.5086,7.5507,7.6014,7.6035,7.5845,7.5446,7.4999,7.446,7.3966,7.3327,7.3269,7.3472,0.0,0.0,0.0,0.0,0.0,0.0,0.0,0.0,0.0,3.0683,3.0758,3.111,3.2114,3.229,3.2767,0.0,0.0,0.0,3.5458,3.6056,3.6606,3.701,3.7563,3.7864,3.7864,3.8517,3.9094,3.9546,3.9647,3.9973,0.0,0.0,0.0,4.0526,0.0,0.0,4.0651,4.0551,4.0249,3.9978,4.1726,4.1726,4.0757,4.1124,4.0609,3.9558,3.824,3.6635,3.5366,3.657,0.0,0.0,0.0,0.0,4.157,4.4008,4.5285,4.6679,5.0307,5.2165,5.3891,5.7378,5.8534,5.9084,6.0209,6.0823,6.1413,6.2228,6.2758,6.3438,6.4635,6.4934,6.5413,6.664,6.6729,6.6729,6.6908,6.6602,6.6675,6.7712,6.7653,6.7881,6.8712,6.8915,6.9205,6.9728,7.0453,7.1121,7.1644,7.2282,7.2602,7.2602,7.2602,7.2602,7.2602,7.2602,7.2602,7.2631,7.3414,7.414,7.4866,7.4953,7.5243,7.5679,7.5795,7.6143,7.6608,7.6567,7.6143,7.565,7.5563,7.5156,7.4605,7.3995,7.4082,7.443,0.0,0.0,0.0,0.0,0.0,0.0,0.0,0.0,0.0,0.0,3.1286,3.1512,3.2139,3.2667,3.3219,3.3847,3.4851,3.5408,3.5483,0.0,0.0,3.6505,3.701,3.7287,3.7287,3.8316,3.8969,3.902,3.9471,3.9973,0.0,0.0,0.0,4.0526,0.0,0.0,0.0,0.0,4.0475,4.04,4.0714,4.0438,3.9855,3.9931,3.9265,3.8207,3.773,3.6463,3.5178,3.5548,3.6089,0.0,0.0,0.0,4.1482,4.3515,4.4966,4.6475,4.9204,5.2426,5.555,5.7647,5.8693,5.9247,5.9733,6.0711,6.1516,6.1405,6.2314,6.3288,6.4006,6.4635,6.5263,6.6011,6.5652,6.5562,6.6451,6.603,6.6109,6.7331,6.7932,6.8414,6.877,6.9321,6.967,6.9757,7.0889,7.1586,7.1673,7.2282,7.2602,7.2602,7.2602,7.2602,7.2602,7.2602,7.2602,7.2631,7.3821,7.504,7.623,7.6753,7.6782,7.6375,7.6927,7.7188,7.7246,7.6695,7.6479,7.6288,7.5737,7.5446,7.5301,7.4634,7.443,7.4488,0.0,0.0,0.0,0.0,0.0,0.0,0.0,0.0,0.0,0.0,0.0,3.1612,3.2164,3.2164,3.2616,3.3796,3.4349,3.5002,3.5931,3.6279,3.6405,3.6405,3.6631,3.6782,3.6782,3.7513,3.8065,3.8391,3.8944,3.9672,4.0526,4.0526,4.0526,0.0,0.0,0.0,0.0,0.0,0.0,0.0,0.0,0.0,0.0,0.0,0.0,0.0,0.0,3.8465,3.7082,3.6962,3.6552,3.6163,3.6396,0.0,0.0,0.0,4.2912,4.514,4.9146,5.2252,5.4856,5.687,5.7944,5.8558,5.9053,5.9753,6.0343,6.0822,6.1495,6.2524,6.404,6.4696,6.5353,6.64,6.58,6.5589,6.6357,6.5929,6.5966,6.726,6.7823,6.8332,6.877,6.9408,6.9931,7.0279,7.115,7.1818,7.2195,7.2456,7.2602,7.2602,7.2602,7.2602,7.2602,7.2602,7.2979,7.3676,7.4634,7.5737,7.7014,7.7682,7.7624,7.7014,7.7682,7.774,7.7391,7.7101,7.6782,7.6433,7.6143,7.6056,7.5969,7.5301,7.5301,7.5563,0.0,0.0,0.0,0.0,0.0,0.0,0.0,0.0,0.0,0.0,0.0,3.1763,3.2164,0.0,0.0,0.0,3.4274,3.5052,3.6329,3.6279,3.6157,3.6157,3.6031,3.6006,3.6157,3.6684,3.7236,3.7789,3.8517,3.9496,4.0727,4.0576,4.0752,0.0,4.0275,3.9973,0.0,0.0,0.0,0.0,0.0,0.0,0.0,0.0,0.0,0.0,0.0,4.0382,3.8981,3.8464,3.72,3.5799,3.5558,3.6591,0.0,0.0,0.0,4.4647,4.8798,5.1172,5.3006,5.5629,5.6388,5.6802,5.8163,5.8769,5.9293,5.9946,6.0882,6.2087,6.3801,6.4546,6.5293,6.6428,6.6006,6.5672,6.6139,6.5937,6.6148,6.7159,6.777,6.8305,6.877,6.9554,7.0221,7.0686,7.1469,7.2108,7.2602,7.2602,7.2602,7.2602,7.2602,7.2602,7.2602,7.2776,7.3414,7.4518,7.5185,7.6085,7.7188,7.803,7.8117,7.7682,7.8175,7.8117,7.7624,7.7304,7.6898,7.6538,7.6538,7.6538,7.6479,7.594,7.6056,7.6479,0.0,0.0,0.0,0.0,0.0,0.0,0.0,0.0,0.0,0.0,0.0,3.219,3.2215,3.3144,3.3796,3.3897,3.5328,3.6304,3.6405,3.5881,3.5533,3.5533,3.5031,0.0,3.5533,3.6132,3.6732,3.7236,3.8391,3.9697,4.1225,4.0752,4.1354,4.2785,4.1178,4.0752,4.12,0.0,0.0,0.0,0.0,0.0,0.0,0.0,0.0,0.0,0.0,0.0,4.0226,3.9222,3.7906,3.6836,3.7449,3.7319,3.7327,0.0,0.0,0.0,4.7521,4.8657,5.0251,5.4065,5.3815,5.3586,5.7088,5.8307,5.8633,5.8435,6.0618,6.2549,6.2698,6.377,6.4843,6.5466,6.5555,6.5488,6.5576,6.6002,6.6516,6.6861,6.8015,6.8799,6.8828,6.9931,7.0686,7.0715,7.1876,7.2573,7.2602,7.2602,7.2602,7.2602,7.2602,7.2602,7.2602,7.324,7.3908,7.4576,7.5214,7.5853,7.655,7.7827,7.8378,7.8349,7.8378,7.8378,7.8262,7.7014,7.6567,7.6538,7.6538,7.6538,7.6538,7.6433,7.6433,7.6538,0.0,0.0,0.0,0.0,0.0,0.0,0.0,0.0,0.0,0.0,0.0,0.0,0.0,3.3646,3.4198,3.4856,3.5805,3.6405,3.6405,3.5855,3.5508,3.5508,3.4981,3.4781,3.4956,3.5554,3.6107,0.0,0.0,3.8642,4.03,4.045,4.1028,4.1882,4.0927,4.0626,4.0774,4.1125,0.0,0.0,0.0,0.0,0.0,0.0,0.0,0.0,0.0,0.0,0.0,0.0,0.0,0.0,0.0,0.0,0.0,0.0,4.0831,4.3211,4.5846,4.7691,4.9395,5.1709,5.3611,5.5123,5.5622,5.7484,5.9045,5.8929,6.0441,6.2016,6.3076,6.4117,6.5071,6.5751,6.53,6.4993,6.545,6.5839,6.6287,6.6796,6.8044,6.9002,6.9408,7.0221,7.0889,7.1295,7.2137,7.2427,7.2021,7.2398,7.2427,7.2021,7.2398,7.2602,7.2602,7.3676,7.4314,7.4547,7.5621,7.6462,7.7101,7.8001,7.8407,7.8407,7.8407,7.8407,7.8349,7.7449,7.684,7.6538,7.6538,7.6538,7.6538,7.6538,7.6538,7.6538,0.0,0.0,0.0,0.0,0.0,3.2767,3.352,3.3796,3.4098,3.465,0.0,0.0,0.0,0.0,3.5303,3.6031,3.6081,3.6081,3.6081,3.5579,3.5132,3.4956,3.465,3.4449,3.4449,3.4756,3.5353,0.0,0.0,0.0,0.0,3.9973,4.0626,4.125,4.0752,4.0626,0.0,0.0,0.0,4.1781,0.0,0.0,4.4669,0.0,0.0,4.5824,4.4141,0.0,0.0,0.0,0.0,0.0,0.0,0.0,0.0,0.0,0.0,0.0,4.3754,0.0,4.7372,4.9802,5.2042,5.3916,5.4969,5.6193,5.7393,5.8697,5.9679,6.0745,6.2191,6.3456,6.4667,6.5672,6.5249,6.4915,6.529,6.5851,6.6418,6.6825,6.8044,6.906,6.9699,7.0366,7.0976,7.1615,7.2253,7.2427,7.1992,7.2398,7.2427,7.1992,7.2398,7.2718,7.295,7.3995,7.4634,7.4866,7.594,7.6666,7.7101,7.7769,7.8059,7.8059,7.8059,7.8059,7.8001,7.7362,7.684,7.6538,7.6538,7.6538,7.6567,7.6695,7.6637,7.6567,0.0,0.0,0.0,0.0,3.2742,3.3495,3.46,3.5157,3.5708,3.638,0.0,0.0,0.0,0.0,0.0,3.7186,3.6207,3.5533,3.5508,3.4981,3.4474,3.3922,3.3872,3.3872,0.0,0.0,0.0,0.0,0.0,0.0,0.0,0.0,4.0224,4.12,4.0752,4.0802,4.125,0.0,4.1656,4.2288,0.0,4.4192,4.4769,0.0,0.0,4.6892,4.5271,4.5748,0.0,4.3966,0.0,0.0,0.0,0.0,0.0,0.0,0.0,0.0,0.0,0.0,0.0,0.0,4.8869,4.9638,5.4929,5.4341,5.3799,5.7485,5.8365,5.8827,5.9998,6.1803,6.3611,6.5149,6.5416,6.529,6.5031,6.6041,6.6854,6.6883,6.8015,6.906,6.9728,7.0366,7.1005,7.1644,7.2282,7.2602,7.2573,7.2573,7.2602,7.2602,7.2602,7.295,7.3618,7.4198,7.4837,7.5534,7.6143,7.6538,7.6567,7.7101,7.7391,7.7362,7.7391,7.7391,7.7333,7.6724,7.6538,7.6538,7.6538,7.6538,7.6579,7.7159,7.7014,7.6608,0.0,0.0,0.0,3.3345,3.3897,3.465,3.573,3.5705,3.5984,0.0,0.0,0.0,3.7513,3.7688,3.7613,3.7211,3.691,3.6383,3.5558,3.4981,3.4474,3.3922,3.352,3.3294,3.3294,0.0,0.0,0.0,0.0,0.0,0.0,0.0,0.0,0.0,4.0224,4.0601,4.0802,4.158,0.0,4.1831,4.497,4.5824,0.0,0.0,0.0,4.7531,4.6301,4.6652,4.738,0.0,4.4518,4.3664,0.0,0.0,0.0,0.0,0.0,0.0,4.006,0.0,0.0,0.0,0.0,0.0,5.0014,5.299,5.6093,5.684,5.839,6.0042,6.1299,6.2412,6.3258,6.3669,6.3727,6.3902,6.4241,6.4996,6.5867,6.6767,6.7638,6.8741,7.0308,7.0628,7.1179,0.0,7.2515,7.2427,7.1963,7.1934,7.2137,7.2602,7.2602,7.295,7.3618,7.4227,7.4866,7.5534,7.6143,7.6538,7.6567,7.7101,7.7159,7.6753,7.7217,7.713,7.6724,7.6521,7.6538,7.6538,7.6538,7.6753,7.7159,7.7333,7.7595,7.7885,0.0,0.0,3.3596,3.4148,3.4901,3.578,3.6885,3.6985,3.7362,0.0,0.0,0.0,0.0,0.0,0.0,0.0,3.7462,3.691,3.6257,3.5705,3.5152,3.46,3.4048,3.3646,3.342,3.352,3.3822,0.0,0.0,0.0,0.0,0.0,0.0,0.0,0.0,0.0,0.0,0.0,0.0,0.0,4.4644,4.5648,4.5673,4.728,4.8058,4.8134,4.7029,0.0,4.8058,4.6652,4.5648,0.0,0.0,0.0,0.0,0.0,0.0,0.0,0.0,0.0,0.0,0.0,0.0,0.0,4.9083,5.1125,5.3552,5.5607,5.6528,5.7492,5.9273,6.0143,6.0784,6.1313,6.1437,6.1838,6.2921,6.4179,6.5151,6.5544,6.6727,6.8218,7.0134,7.0308,7.0976,7.2515,7.2602,7.2456,7.2079,7.2079,7.2224,7.2602,7.2892,7.3327,7.3995,7.4634,7.5272,7.5911,7.6288,7.6538,7.6538,7.684,7.6811,7.6567,7.684,7.6782,7.6538,7.6538,7.6538,7.6538,7.6538,7.684,7.7449,7.7711,7.8059,7.8436,0.0,0.0,3.4173,3.4801,3.5755,3.6883,3.7939,3.8592,3.917,0.0,0.0,0.0,0.0,0.0,0.0,0.0,3.804,3.7387,3.7186,3.6782,3.6182,3.5533,3.5031,3.455,3.3997,3.3445,3.3445,3.3997,3.4424,3.4906,3.5508,0.0,0.0,0.0,3.8793,3.9572,0.0,0.0,0.0,4.259,4.3765,4.4819,4.5849,4.7481,4.846,4.8812,4.7857,4.8134,4.8761,4.7606,4.6527,0.0,0.0,0.0,0.0,0.0,3.9546,0.0,0.0,0.0,0.0,0.0,0.0,0.0,4.9555,4.8753,4.8528,5.3412,5.3298,5.3018,5.5402,5.6332,5.7177,5.8543,5.8759,5.9466,6.1444,6.3279,6.4232,6.3645,6.5336,6.7256,6.9027,6.9355,7.0234,7.1841,7.2043,7.2244,7.2602,7.2459,7.2387,7.2602,7.3269,7.3908,7.4488,7.5185,7.5824,7.6538,7.6538,7.6538,7.6538,7.6538,7.6538,7.6538,7.6538,7.6538,7.6538,7.6521,7.6579,7.655,7.6567,7.6898,7.7595,7.8175,7.8407,7.8494,3.347,3.4098,3.4876,3.5881,3.6631,3.7412,3.8517,3.917,3.9747,4.0275,0.0,0.0,0.0,0.0,0.0,0.0,0.0,0.0,3.7287,3.7086,3.6584,3.5533,3.5382,3.5082,3.4575,3.4022,3.3997,3.455,3.4223,3.4575,3.5508,0.0,0.0,0.0,3.7789,3.8843,0.0,0.0,0.0,4.4317,4.6301,4.6979,4.7004,4.8636,4.9615,5.0067,4.9866,4.9916,4.9866,4.8284,4.733,4.6677,0.0,0.0,0.0,0.0,0.0,0.0,0.0,0.0,0.0,0.0,0.0,0.0,0.0,4.5344,4.7638,4.8801,5.0127,5.1733,5.3775,5.4671,5.5469,5.6549,5.6776,5.7787,6.067,6.1062,6.1276,6.1959,6.3476,6.4696,6.5324,6.6888,6.79,6.7993,6.8441,6.9839,7.2459,7.1348,7.1247,7.253,7.3269,7.3908,7.4488,7.5185,7.5824,7.6538,7.6538,7.6538,7.6538,7.6538,7.6538,7.6538,7.6538,7.6538,7.6567,7.7014,7.7217,7.7159,7.6666,7.7188,7.8233,7.8349,7.8407,7.8553,3.3796,3.4349,3.5152,3.6533,3.7236,3.8065,3.9471,3.9923,4.04,0.0,0.0,0.0,0.0,0.0,0.0,0.0,0.0,0.0,3.9346,3.9245,3.8768,3.7663,3.681,3.6107,3.5554,3.4726,3.4299,3.4299,3.4299,3.46,3.5107,0.0,0.0,0.0,0.0,0.0,0.0,0.0,4.384,4.5924,4.6476,4.7029,4.7707,4.9364,5.0167,5.0444,5.0745,5.067,5.0243,4.9113,4.8209,0.0,0.0,4.5974,4.4418,0.0,4.1806,4.0199,0.0,0.0,0.0,3.8958,0.0,0.0,0.0,4.3874,4.5391,4.6296,4.7812,4.9254,5.0245,5.1328,5.2339,5.2997,5.4046,5.5226,5.6522,5.8072,5.9177,5.9579,6.0716,6.1957,6.3302,6.4335,6.5413,6.644,6.7018,6.8351,7.0863,7.0492,7.073,7.1776,7.3269,7.3977,7.3735,7.5248,7.6143,7.6538,7.6538,7.6538,7.6538,7.6538,7.6538,7.6538,7.6538,7.6538,7.6567,7.6811,7.713,7.7391,7.742,7.7624,7.7943,7.8291,7.8582,7.893,3.4148,3.465,3.5554,3.7211,3.7889,3.8693,4.0275,4.0701,4.1254,0.0,0.0,0.0,0.0,0.0,0.0,0.0,0.0,0.0,0.0,4.1827,4.1379,4.0375,3.8617,3.7462,3.7059,3.5705,3.4776,3.4223,3.455,3.4731,0.0,0.0,0.0,0.0,0.0,0.0,0.0,0.0,0.0,4.7018,4.6401,4.7104,4.8711,5.0193,5.0745,5.0795,5.1147,5.0971,5.0519,5.0067,4.9238,4.8485,4.8937,4.7556,0.0,0.0,0.0,0.0,0.0,0.0,0.0,0.0,0.0,3.9778,0.0,0.0,0.0,4.4242,4.5397,4.625,4.6451,4.7757,4.8862,4.9118,0.0,0.0,0.0,5.4319,0.0,5.6782,5.7967,5.9372,6.1004,6.1711,6.3009,6.5133,6.5936,6.7029,6.8853,6.9114,6.9651,7.0489,7.2489,7.316,7.2377,7.4439,7.5649,7.5981,7.5981,7.6208,7.6538,7.6538,7.6538,7.6538,7.6538,7.6538,7.6538,7.6608,7.6869,7.7275,7.7827,7.7769,7.7478,7.8146,7.864,7.8988,3.5382,3.5805,3.6757,3.8441,3.8793,3.917,4.035,4.1354,4.2534,0.0,0.0,0.0,0.0,0.0,0.0,0.0,0.0,0.0,4.4342,4.379,0.0,4.2635,4.0551,3.9371,3.932,3.731,3.5906,3.5307,3.4881,0.0,0.0,0.0,0.0,0.0,3.9722,0.0,0.0,0.0,4.6502,0.0,4.8058,4.9414,0.0,5.1649,5.1925,5.185,5.1448,5.1247,5.1172,0.0,5.067,5.0142,0.0,5.0017,4.9364,0.0,0.0,0.0,0.0,0.0,0.0,0.0,4.0379,0.0,0.0,0.0,4.0852,4.1053,0.0,0.0,0.0,0.0,0.0,0.0,0.0,0.0,4.7803,4.9343,5.1459,5.386,5.6348,5.7442,5.6336,5.8806,6.1044,6.2378,6.3432,6.4996,6.7066,6.6356,6.6788,6.8857,6.9662,7.0263,7.0547,7.1465,7.2668,7.4183,7.4183,7.501,7.6538,7.6538,7.6538,7.6538,7.6538,7.6538,7.6567,7.7072,7.7014,7.6579,7.6666,7.6985,7.7478,7.8146,7.8059,7.7856,3.6132,3.6458,3.731,3.8693,3.9145,3.9722,4.0774,4.276,4.4443,0.0,0.0,0.0,0.0,0.0,0.0,0.0,0.0,4.7506,4.6175,0.0,0.0,0.0,4.148,4.0199,3.9245,3.8341,3.7285,3.6006,3.6107,0.0,0.0,0.0,0.0,0.0,4.0623,0.0,4.4736,0.0,4.8033,0.0,0.0,5.1423,0.0,5.1649,5.1322,5.1599,5.1373,5.1272,5.1272,0.0,5.1322,0.0,0.0,0.0,0.0,0.0,0.0,0.0,0.0,0.0,0.0,0.0,0.0,0.0,4.0676,0.0,4.0802,0.0,0.0,0.0,0.0,0.0,0.0,0.0,4.5221,0.0,0.0,0.0,0.0,0.0,0.0,0.0,5.5336,5.7826,5.959,6.0023,6.141,6.3089,6.4907,6.4923,6.5661,6.7535,6.8834,6.9478,6.9367,7.0664,7.1685,7.2403,7.3376,7.3795,7.3533,7.5573,7.5981,7.5087,7.6057,7.6538,7.6567,7.6753,7.6695,7.6538,7.6538,7.684,7.7449,7.7711,7.8117,7.8524,3.6782,0.0,3.7914,3.8768,3.9446,4.04,4.1752,4.3991,4.5748,4.6451,4.7606,4.8385,4.8385,4.8636,0.0,0.0,4.9213,4.8987,4.7883,4.7807,4.6828,4.4669,4.3062,4.1681,4.0475,3.9697,3.8617,3.7109,0.0,0.0,0.0,0.0,0.0,0.0,0.0,4.3388,4.6441,0.0,4.9213,5.1423,5.1322,5.2051,5.3005,5.1297,5.0921,5.1272,5.1096,5.1247,5.1498,5.1322,5.1649,0.0,5.1147,0.0,0.0,0.0,0.0,0.0,4.5447,0.0,0.0,0.0,0.0,0.0,0.0,0.0,0.0,0.0,0.0,0.0,0.0,0.0,0.0,0.0,0.0,0.0,0.0,0.0,0.0,0.0,0.0,0.0,0.0,5.7097,5.8428,5.8278,0.0,6.1796,6.2638,6.3415,6.4474,6.5943,6.724,6.7874,6.7731,6.9034,6.9988,7.0637,7.1845,7.2085,7.1364,7.395,7.4338,7.3219,7.4521,7.5087,7.5087,7.5573,7.5801,7.5801,7.6283,7.684,7.7391,7.7391,7.8117,7.893,3.7387,3.8114,3.8869,3.8919,3.9772,4.1229,4.3388,4.4719,4.5874,4.6979,4.8535,4.954,4.954,5.0519,5.1172,0.0,5.1197,5.072,4.959,4.9515,4.9238,4.8611,4.5974,4.4493,4.4443,4.1831,3.9923,3.8844,0.0,0.0,0.0,0.0,0.0,0.0,0.0,4.3087,4.492,4.8134,4.9565,4.9766,5.0845,5.067,4.9866,0.0,5.1272,5.1197,5.0645,0.0,0.0,5.1473,5.1649,0.0,0.0,0.0,0.0,0.0,0.0,0.0,0.0,0.0,0.0,4.6828,0.0,0.0,0.0,0.0,4.2011,0.0,0.0,0.0,0.0,0.0,0.0,0.0,0.0,0.0,0.0,0.0,0.0,0.0,0.0,0.0,0.0,0.0,0.0,0.0,0.0,0.0,6.0465,6.1471,6.2602,6.3759,6.3867,6.4395,6.5393,6.5478,6.6635,6.8773,6.8857,6.9739,7.1284,7.1445,7.1445,7.1364,7.1445,7.1445,7.1605,7.3298,7.395,7.4183,7.5801,7.684,7.7391,7.7391,7.7827,7.8436,0.0,0.0,3.9295,3.8944,4.0099,4.1806,4.4016,4.5623,4.6828,4.7556,4.9113,5.0142,5.0142,5.082,5.1423,5.18,5.1825,5.1498,5.0745,5.072,4.9967,4.8284,4.6979,4.5598,4.4116,4.2811,4.1254,0.0,0.0,0.0,0.0,0.0,0.0,0.0,0.0,4.4166,0.0,0.0,0.0,0.0,0.0,5.1925,5.1222,0.0,5.072,5.0745,5.0921,5.1473,0.0,5.19,5.2427,5.298,5.19,5.2076,5.2477,5.1548,5.1021,0.0,0.0,0.0,4.9213,4.7556,0.0,0.0,0.0,0.0,0.0,0.0,0.0,0.0,0.0,0.0,0.0,0.0,0.0,0.0,0.0,0.0,0.0,0.0,0.0,0.0,0.0,0.0,0.0,0.0,0.0,0.0,0.0,6.0601,6.139,6.2139,6.2862,6.361,6.4359,6.4938,6.5899,6.7001,6.8132,6.8383,6.7964,7.023,7.0637,6.9656,7.0799,7.1284,7.1364,7.1925,7.2164,7.2244,7.2826,7.416,7.5788,7.6519,7.7478,7.8407,3.8592,3.917,3.9572,3.922,4.0701,4.261,4.4618,4.6351,4.7606,4.8134,4.9841,5.0795,5.0193,5.0996,5.1548,5.1498,5.1699,5.1825,5.1875,5.1498,5.072,4.9464,4.851,4.723,4.5598,0.0,0.0,0.0,0.0,3.9622,0.0,0.0,0.0,0.0,0.0,4.4292,4.6677,4.7732,5.0117,0.0,0.0,5.2302,0.0,0.0,5.1247,5.1548,0.0,5.1749,5.2327,5.195,5.2402,5.2955,5.19,5.2076,5.2503,5.1774,5.1574,5.1448,5.087,5.0996,0.0,4.9289,4.9941,0.0,4.851,0.0,0.0,0.0,0.0,0.0,0.0,0.0,0.0,0.0,0.0,0.0,0.0,0.0,0.0,0.0,0.0,0.0,0.0,0.0,0.0,0.0,0.0,0.0,0.0,0.0,6.0237,6.0887,6.1895,6.2612,6.3067,6.4209,6.5028,6.5578,6.7069,6.7171,6.6197,6.8466,6.8857,6.7822,6.894,6.9436,6.9518,7.0148,7.0393,7.0474,7.1042,7.2252,7.3749,7.5076,7.6501,7.7634,3.8291,3.9069,3.9873,3.9898,4.1681,4.3639,4.5271,4.6954,4.8234,4.8736,5.0745,5.1498,4.9891,5.1172,5.1724,5.0645,5.1071,5.1825,5.2829,5.195,5.1599,5.2076,5.0544,4.9414,4.8862,0.0,0.0,0.0,0.0,0.0,0.0,0.0,0.0,0.0,4.1351,0.0,4.7179,4.7179,4.9038,5.2026,5.2076,5.1825,5.1448,5.1925,5.2779,5.3532,5.1925,5.2026,5.2779,5.1724,5.1699,5.2126,5.2126,5.2101,5.2101,5.2101,5.2101,5.2,5.1473,5.1322,5.1448,5.19,5.1247,0.0,0.0,0.0,4.9063,0.0,0.0,0.0,0.0,0.0,0.0,0.0,0.0,0.0,0.0,0.0,0.0,0.0,0.0,0.0,0.0,0.0,0.0,0.0,0.0,0.0,0.0,0.0,5.9343,5.981,6.0916,6.1506,6.1482,6.2984,6.408,6.4541,6.5603,6.6026,6.6026,6.6112,6.6112,6.6026,6.6112,6.6112,6.6197,6.7906,6.8524,6.869,7.0393,7.1123,7.1364,7.3141,7.4829,7.5981,4.0601,4.1379,4.2258,4.2685,4.3915,4.5121,4.5974,4.8184,4.9665,4.9414,5.0971,5.195,5.1523,5.2226,5.2603,5.2302,5.2779,5.2854,5.2352,5.2804,0.0,5.2126,5.1297,5.0569,5.0017,4.7832,0.0,4.4618,0.0,0.0,4.0501,0.0,0.0,0.0,0.0,0.0,4.7707,4.7707,4.8937,5.0921,5.1774,5.2503,0.0,0.0,5.303,5.4185,5.2955,5.2678,5.2879,5.2603,5.2603,5.2653,5.2226,5.2101,5.2101,5.2101,5.2101,5.2076,5.1925,5.19,5.1724,5.1021,5.1272,5.1699,0.0,0.0,0.0,0.0,0.0,0.0,0.0,0.0,0.0,0.0,0.0,0.0,0.0,0.0,0.0,0.0,0.0,0.0,0.0,0.0,0.0,0.0,0.0,0.0,0.0,0.0,0.0,5.8813,6.0227,6.1008,6.1032,6.2563,6.3545,6.4087,6.5062,6.5421,6.505,6.5767,6.594,6.5594,6.594,6.6112,6.6112,6.6601,6.6771,6.6831,6.723,6.8215,6.9601,7.1284,7.2244,7.2561,4.2108,4.2936,4.394,4.4744,4.6225,4.7305,4.738,4.9314,5.077,5.0695,5.2151,5.2904,5.2176,5.2804,5.3181,5.2955,5.3406,5.3658,5.3557,0.0,0.0,5.2829,5.2051,5.1373,5.082,4.9088,0.0,4.5723,0.0,0.0,4.0824,0.0,0.0,0.0,0.0,4.4593,4.7983,4.9213,5.0293,5.1222,5.2126,0.0,0.0,5.2703,5.3055,5.3808,5.3406,5.313,5.2955,5.3181,5.3256,5.3256,5.3206,5.3181,5.3181,5.3181,5.3181,5.313,5.2879,5.2804,5.2603,5.1724,5.2,5.2578,5.308,5.2578,5.2377,0.0,0.0,0.0,0.0,0.0,0.0,0.0,0.0,0.0,0.0,0.0,0.0,0.0,0.0,0.0,0.0,0.0,0.0,0.0,0.0,0.0,0.0,0.0,0.0,5.7798,5.9563,6.0372,5.9912,6.2081,6.324,6.3314,6.4704,6.5161,6.4702,6.5508,6.5681,6.5421,6.5681,6.594,6.6112,6.6112,6.6112,6.6112,6.6112,6.6686,6.7653,6.869,6.9985,7.1203,4.3413,4.4242,4.5296,4.6426,4.8335,4.959,4.9264,5.0519,5.1674,5.2151,5.3457,5.3833,5.2452,5.308,5.3457,5.3055,5.3507,5.4235,5.5214,5.4361,5.3808,5.3808,5.2729,5.1925,5.1498,5.0393,4.9038,0.0,0.0,0.0,0.0,0.0,0.0,0.0,0.0,0.0,0.0,5.1071,5.2176,5.2151,5.2779,5.303,5.303,5.3105,5.313,5.3206,5.3658,5.3482,5.3105,5.3632,5.3808,5.3909,5.4411,5.4561,5.4561,5.4561,5.4561,5.4461,5.3959,5.3758,5.3582,5.313,5.298,5.3206,5.421,5.3708,5.3582,5.5591,5.3708,5.2452,0.0,0.0,0.0,0.0,0.0,0.0,0.0,0.0,0.0,0.0,0.0,0.0,0.0,0.0,0.0,0.0,0.0,0.0,0.0,0.0,0.0,5.7117,5.9041,5.9666,5.88,0.0,6.287,6.2506,6.4346,6.4988,6.4527,6.5075,6.5248,6.5248,6.5335,6.5594,6.6026,6.6112,6.6112,6.6112,6.6112,6.6112,6.6112,6.6112,6.8048,7.0393,4.5723,4.625,4.7054,4.8159,4.9414,5.0569,5.1398,5.2151,5.2678,5.2779,5.303,5.3256,5.3406,5.3206,5.3206,5.3532,5.4084,0.0,0.0,0.0,0.0,5.4411,5.2929,5.2277,5.2628,5.1548,5.0393,0.0,0.0,0.0,0.0,0.0,0.0,0.0,0.0,0.0,5.0092,5.1975,0.0,5.2201,5.3181,5.3557,5.3607,5.411,5.4285,5.4285,5.4386,5.4059,5.3658,5.421,5.4411,5.4436,5.4607,5.4561,5.4561,5.4561,5.4561,5.4607,5.4436,5.4059,5.3683,5.3582,5.3256,5.308,5.3708,5.3708,5.3808,5.4687,5.4386,5.4135,5.4612,0.0,0.0,0.0,0.0,0.0,0.0,0.0,0.0,0.0,0.0,0.0,0.0,0.0,0.0,0.0,0.0,0.0,0.0,0.0,0.0,0.0,5.8872,0.0,0.0,0.0,6.2292,6.263,6.3735,6.4026,6.3586,6.444,6.4615,6.429,6.5075,6.5421,6.5508,6.594,6.6112,6.6112,6.6112,6.6112,6.6112,6.6112,6.6515,6.7001,4.7531,4.8259,4.9012,4.954,5.1021,5.2201,5.2477,5.3231,5.3783,5.3783,5.4034,5.4185,5.416,5.3658,5.3658,5.4511,5.4838,5.5114,5.539,5.5691,5.534,5.416,5.3658,5.3105,5.2528,5.2251,5.1297,4.959,0.0,0.0,0.0,0.0,0.0,0.0,0.0,4.9063,0.0,0.0,0.0,5.2603,5.3381,5.3708,5.3758,5.4336,5.4561,5.4612,5.4888,5.4813,5.4612,5.4888,5.4988,5.5039,5.534,5.5415,5.5415,5.5415,5.5415,5.5365,5.5064,5.4787,5.4511,5.4235,5.3959,5.3909,5.4461,5.4587,5.4737,5.529,5.5189,5.4917,5.4702,5.4558,0.0,0.0,0.0,0.0,0.0,0.0,0.0,0.0,0.0,0.0,0.0,0.0,0.0,0.0,0.0,0.0,0.0,0.0,0.0,0.0,0.0,0.0,5.9353,0.0,0.0,6.2191,6.3399,6.3763,6.3346,6.4026,6.4178,6.4026,6.4726,6.5161,6.5421,6.594,6.6112,6.6112,6.6112,6.6112,6.6112,6.6112,6.6312,6.6513,4.9339,5.0167,5.0845,5.1071,5.2653,5.3783,5.3507,5.4386,5.5013,5.4762,5.5114,5.5265,5.4938,5.4511,5.4637,5.5641,5.5742,5.5968,5.6545,5.6872,5.6294,5.4662,5.4687,5.4084,5.2653,5.2929,5.2051,0.0,0.0,0.0,0.0,0.0,0.0,0.0,0.0,0.0,0.0,0.0,5.2603,5.313,5.3658,5.3959,5.4135,5.4687,5.4913,5.4963,5.5415,5.5566,5.5566,5.5566,5.5566,5.5641,5.6068,5.6219,5.6219,5.6219,5.6219,5.6118,5.5691,5.5566,5.5465,5.5039,5.4913,5.4988,5.5315,5.5566,5.5817,5.6143,5.5794,5.5374,5.5208,5.5162,0.0,0.0,0.0,0.0,0.0,0.0,0.0,0.0,0.0,0.0,0.0,0.0,0.0,0.0,0.0,0.0,0.0,0.0,0.0,0.0,0.0,5.9305,5.9113,0.0,6.2143,6.1975,6.3118,6.3578,6.3346,6.3675,6.3851,6.3851,6.4353,6.4814,6.5335,6.5853,6.6026,6.594,6.6026,6.6112,6.6137,6.6237,6.6589,6.6915,5.1574,5.1875,5.2251,5.3231,5.4009,5.4637,5.5089,5.6093,5.6445,5.544,5.5365,5.5566,5.6018,5.6018,5.6219,5.6821,5.6872,5.7123,5.77,5.7298,5.7173,5.7499,5.6093,5.5013,5.4361,5.3858,5.2804,0.0,0.0,5.0092,0.0,0.0,0.0,0.0,0.0,0.0,0.0,5.2628,5.3155,5.3683,5.426,5.4787,5.529,5.5842,5.6068,5.6068,5.6118,5.6143,5.6143,5.6143,5.6143,5.6143,5.6194,5.6219,5.6219,5.6219,5.6219,5.6194,5.6143,5.6143,5.6118,5.6068,5.6068,5.5942,5.5491,5.6168,5.6746,5.6294,5.5876,5.5706,5.6203,5.4942,5.4718,0.0,0.0,0.0,0.0,0.0,0.0,0.0,0.0,0.0,0.0,0.0,0.0,0.0,0.0,0.0,0.0,0.0,0.0,5.8416,5.9065,5.981,6.0724,6.0989,6.159,6.2528,6.2712,6.2889,6.3346,6.3346,6.3346,6.3434,6.3851,6.4353,6.4789,6.5767,6.5853,6.5508,6.594,6.6112,6.6187,6.6689,6.694,6.7041,5.1649,5.2032,5.2632,5.442,5.5465,5.6118,5.6344,5.7047,5.7399,5.6947,5.6595,5.647,5.6671,5.642,5.657,5.7474,5.7549,5.7801,5.8353,5.8177,5.7851,5.7399,5.6746,5.5968,5.5089,5.4511,5.3733,0.0,0.0,0.0,0.0,0.0,0.0,0.0,0.0,5.2076,5.2653,5.3532,5.3833,5.3783,5.4687,5.5189,5.544,5.5993,5.6219,5.6219,5.6219,5.6219,5.6219,5.6219,5.6219,5.6219,5.6219,5.6219,5.6219,5.6219,5.6219,5.6219,5.6219,5.6219,5.6219,5.6219,5.6219,5.6143,5.5942,5.6746,5.7324,5.6451,5.6078,5.5922,5.6143,5.6134,5.6075,0.0,0.0,0.0,0.0,0.0,0.0,0.0,0.0,0.0,0.0,0.0,0.0,0.0,0.0,0.0,0.0,0.0,0.0,5.9041,0.0,5.9426,6.0484,6.0796,6.1181,6.1614,6.2287,6.2696,6.2889,6.3201,6.341,6.3763,6.3939,6.4265,6.4702,6.5137,6.5335,6.5471,6.5993,6.6379,6.6689,6.7267,6.7668,6.7995,5.1369,5.1828,5.2559,5.4252,5.5682,5.655,5.6699,5.7549,5.8202,5.8353,5.8001,5.77,5.7549,5.7323,5.7499,5.8303,5.8378,5.8529,5.893,5.8956,5.8604,5.7801,5.76,0.0,5.5892,5.534,5.4536,5.3482,5.3432,0.0,0.0,5.1624,5.2151,0.0,5.2528,5.2653,5.3206,5.3984,5.4361,5.4486,5.5139,5.5591,5.5892,5.6118,5.6219,5.6219,5.6219,5.6219,5.6219,5.6219,5.6219,5.6219,5.6219,5.6219,5.6219,5.6219,5.6219,5.6219,5.6219,5.6219,5.6219,5.6219,5.6219,5.6219,5.6219,5.7097,5.7801,5.7399,5.689,5.6424,5.6424,5.6756,5.677,5.5883,0.0,0.0,0.0,0.0,0.0,0.0,0.0,0.0,0.0,0.0,0.0,0.0,0.0,0.0,0.0,0.0,0.0,0.0,0.0,0.0,6.0171,6.0556,6.0893,6.1229,6.1999,6.2504,6.2817,6.3177,6.3522,6.3763,6.3939,6.4114,6.4265,6.4615,6.4975,6.5546,6.5942,6.6453,6.7117,6.7668,6.8118,6.8469,5.1002,5.1505,5.2009,5.2513,5.4147,5.5506,5.6011,5.7555,5.8905,5.9408,5.9458,5.9282,5.8755,5.9156,5.9458,5.9483,5.9483,5.9483,5.9483,5.9483,5.9483,0.0,0.0,5.8177,5.7047,5.647,5.5114,5.2929,0.0,0.0,4.7983,4.856,5.0293,5.2929,5.2929,5.3206,5.3683,5.3708,5.4662,5.6143,5.5591,5.6043,5.6947,5.642,5.6219,5.6219,5.6219,5.6219,5.6219,5.6219,5.6219,5.6219,5.6219,5.6219,5.6219,5.6219,5.6219,5.6219,5.6219,5.6219,5.6219,5.6219,5.6219,5.6219,5.6219,5.7097,5.8202,5.9257,5.8415,5.7527,5.7527,5.6391,5.607,5.8142,0.0,0.0,0.0,0.0,0.0,0.0,0.0,5.8127,5.7093,5.7959,0.0,0.0,5.7189,0.0,0.0,5.6925,5.8055,5.8584,5.9113,0.0,6.0171,6.0171,6.0724,6.1782,6.1807,6.2336,6.3322,6.3346,6.3346,6.3346,6.3763,6.3763,6.3434,6.4353,6.5021,6.5626,6.5538,6.6148,6.7161,6.7707,6.7906,6.8071,5.0726,5.0858,5.1603,5.4492,5.5452,5.6449,5.8179,5.8923,5.9307,5.9483,5.9483,5.9433,5.9257,5.9382,5.9483,0.0,5.9483,5.9483,0.0,5.9483,5.9483,5.9483,5.9006,5.8554,5.8202,5.6897,5.5867,5.5164,0.0,0.0,0.0,5.2226,5.2603,5.3457,5.3858,5.3909,5.3783,5.4913,5.5516,5.5666,5.5867,5.6168,5.6445,5.6269,5.6219,5.6219,5.6219,5.6219,5.6269,5.6646,5.6771,5.6846,5.7248,5.6846,5.6219,5.6219,5.6219,5.6219,5.6219,5.6219,5.6146,5.5852,5.5999,5.6072,5.5485,5.6323,5.7446,5.8502,5.8204,5.7684,5.7684,5.7324,5.7173,5.7397,5.6908,0.0,0.0,0.0,0.0,0.0,0.0,5.6275,0.0,5.6876,0.0,0.0,0.0,0.0,5.6612,5.7333,0.0,0.0,5.8945,0.0,6.07,6.0364,6.0532,6.1229,6.1614,6.2336,6.3346,6.3346,6.3346,6.3346,6.341,6.341,6.3346,6.3586,6.4254,6.512,6.551,6.6268,6.7283,6.8098,6.8478,6.8593,4.9782,5.04,5.153,5.4015,5.5502,5.6909,5.8295,5.9095,5.9483,5.9483,5.9483,5.9483,5.9483,5.9483,0.0,5.9483,5.9483,5.9483,5.9483,5.9483,5.9483,5.9483,5.9182,5.893,5.873,5.77,0.0,5.652,5.5616,5.5189,5.5164,5.4813,5.4637,5.4662,5.4813,5.4787,5.4687,5.5541,5.6068,5.6344,5.647,5.6646,5.6821,5.6595,5.652,5.652,5.652,5.6671,5.6897,5.7248,5.7374,5.7424,5.7775,5.7424,5.6846,5.6846,5.6846,5.6846,5.6846,5.6698,5.6525,5.6228,5.6303,5.6352,5.6223,5.6878,5.7854,5.8747,5.8588,5.8346,5.8346,5.8184,5.8007,5.767,5.7622,5.743,5.69,0.0,0.0,0.0,0.0,0.0,0.0,5.7454,5.7598,0.0,0.0,0.0,5.7093,0.0,5.8512,5.8776,5.8656,5.9161,6.0364,6.0436,6.0748,6.1277,6.2023,6.272,6.3346,6.3346,6.3346,6.3346,6.3346,6.3346,6.3346,6.3562,6.4214,6.5194,6.5548,6.6264,6.7347,6.8122,6.8453,6.8544,4.8519,5.0166,5.1601,5.1809,5.4568,5.6845,5.7059,5.8447,5.9483,5.9483,5.9483,5.9483,5.9483,5.9483,5.9483,5.9483,0.0,0.0,5.9483,5.9483,5.9483,5.9483,5.9483,5.9282,5.878,5.873,5.8177,5.7097,5.657,5.6319,5.6319,5.6319,5.6319,5.6244,5.5767,5.5792,5.6168,5.5691,5.6394,5.7725,5.7198,5.7323,5.7775,5.7248,5.7072,5.7097,5.7097,5.7374,5.7826,5.7876,5.7876,5.7876,5.7926,5.7951,5.7926,5.7851,5.7901,5.7901,5.7901,5.7574,5.7247,5.7171,5.6867,5.6857,5.7937,5.8546,5.9049,5.9631,5.9447,5.9203,5.9203,5.8901,5.8632,5.8608,5.8632,5.8464,5.7935,0.0,0.0,0.0,0.0,0.0,5.9979,5.9113,5.8199,0.0,0.0,0.0,0.0,0.0,5.8945,5.7886,5.8416,5.8969,5.9498,6.0508,6.1301,6.1879,6.2865,6.3346,6.3346,6.3346,6.3346,6.3346,6.3346,6.3346,6.337,6.3899,6.4722,6.5614,6.5693,6.6291,6.7212,6.7764,6.7971,6.8063,4.8919,4.9574,5.0862,5.3175,5.4605,5.6206,5.8496,5.9251,5.9483,5.9483,5.9483,5.9483,5.9483,5.9483,5.9483,5.9483,5.9483,5.9483,5.9483,5.9483,5.9483,5.9483,5.9483,5.9433,5.9307,5.893,5.8378,5.77,5.7549,5.7499,5.7499,5.7499,5.7273,5.6846,5.7173,5.6897,5.6219,5.652,5.662,5.6595,5.647,5.6746,5.7223,5.7072,5.7323,5.77,5.77,5.755,5.7397,5.7921,5.7816,5.7583,5.8105,5.8229,5.8056,5.752,5.765,5.7826,5.7499,5.7574,5.765,5.7323,5.6943,5.6934,5.7937,5.8344,5.8716,5.9379,5.9433,5.935,5.935,5.9268,5.9065,5.8656,5.8945,5.9017,5.8488,5.8512,0.0,0.0,5.8848,5.868,5.8392,5.8151,5.856,0.0,0.0,5.9498,6.0604,6.0243,5.9498,5.844,5.9305,6.0051,6.058,6.1253,6.1879,6.2408,6.3033,6.3346,6.3346,6.3346,6.3346,6.3346,6.3346,6.3346,6.337,6.3899,6.4518,6.5138,6.5486,6.6107,6.675,6.7212,6.7396,6.7488,4.9069,5.0052,5.1395,5.3071,5.5131,5.6795,5.767,5.9187,5.9922,5.9108,5.9765,6.0261,6.0261,6.0035,5.9885,5.9885,5.9633,5.9483,5.9483,5.9483,5.9483,5.9483,5.9483,5.9483,5.9483,5.9207,5.893,5.8629,5.8629,5.8629,5.8629,5.8629,5.8328,5.7826,5.8127,5.765,5.662,5.7198,5.7248,5.6997,5.7248,5.7549,5.7801,5.7801,5.8001,5.8278,5.8278,5.8276,5.8272,5.8673,5.8464,5.8101,5.85,5.8443,5.8187,5.7573,5.771,5.8042,5.7787,5.771,5.7632,5.7221,5.7168,5.7287,5.7905,5.8434,5.8879,5.9292,5.957,5.9738,5.9738,5.9738,5.9642,5.9353,5.957,5.957,5.9041,5.9161,5.9233,5.8993,5.8969,5.8848,5.856,5.8319,5.8656,5.9786,5.957,0.0,6.0652,6.0364,5.981,5.8993,5.9738,6.0436,6.0965,6.1518,6.1951,6.2239,6.2504,6.2768,6.2985,6.2985,6.3129,6.3346,6.3346,6.3346,6.3394,6.4163,6.4668,6.5005,6.5775,6.6232,6.6589,6.7027,6.7212,6.7304,4.9022,5.0591,5.1932,5.2108,5.5212,5.7136,5.5733,5.8406,6.0076,5.8464,5.9915,6.1111,6.119,6.0738,6.0462,6.0462,6.001,5.9684,5.9508,5.9483,5.9483,5.9483,5.9483,5.9483,5.9483,5.9483,5.9483,5.9483,5.9483,5.9483,5.9483,5.9483,5.9257,5.883,5.883,5.8303,5.7449,5.7926,5.8152,5.8177,5.8654,5.888,5.8956,5.8855,5.888,5.8956,5.8855,5.9054,5.9405,5.9353,5.9043,5.8706,5.8653,5.8364,5.8074,5.7655,5.7813,5.8153,5.8153,5.7971,5.7655,5.7259,5.7418,5.7698,5.7855,5.8524,5.9219,5.9364,5.981,6.0171,6.0171,6.0171,6.0243,6.0508,6.0339,6.0099,5.9907,6.0051,6.0003,5.9546,5.9498,5.9498,5.9498,5.9113,5.8824,5.8824,5.9329,5.9618,5.9618,6.0123,6.0219,5.9762,6.0195,6.0676,6.1205,6.1686,6.1879,6.1807,6.1807,6.2071,6.2576,6.2576,6.2865,6.3346,6.3346,6.3394,6.3538,6.4524,6.4957,6.5125,6.6111,6.6496,6.6589,6.6935,6.712,6.7212,4.8947,4.9477,5.0317,5.1475,5.2886,5.3948,5.4382,5.6628,5.8242,5.7843,5.9463,6.0767,6.119,6.1115,6.104,6.104,6.0964,6.0512,5.9558,5.9483,5.9483,5.9483,5.9483,5.9483,5.9483,5.9483,5.9483,5.9483,5.9483,5.9483,5.9483,5.9483,5.9458,5.9382,5.9382,5.9282,5.9131,5.9207,5.9257,5.9257,5.9332,5.9659,6.001,5.9558,5.9659,6.001,5.9533,5.9201,5.8965,5.8599,5.8207,5.771,5.7394,5.7259,5.718,5.71,5.71,5.7259,5.7655,5.7971,5.8153,5.8129,5.8153,5.8197,5.8312,5.8766,5.9219,5.9364,5.981,6.0171,6.0171,6.0171,6.0628,6.1999,6.1061,6.0628,6.1903,6.0989,6.0147,6.0075,6.0051,6.0051,6.0051,5.9979,5.9931,5.9931,6.0412,6.0724,6.0724,6.1253,6.1518,6.1422,6.1494,6.1807,6.2336,6.2432,6.2239,6.1807,6.1807,6.2071,6.2576,6.2576,6.2865,6.3346,6.3346,6.3586,6.4043,6.4668,6.5173,6.563,6.6256,6.6496,6.6496,6.6589,6.6589,6.6682,4.8867,4.9328,4.9799,5.0357,5.1914,5.2808,5.2242,5.4798,5.6852,5.7083,5.87,6.0425,6.1908,6.1793,6.1617,6.1617,6.1366,6.0964,6.0437,6.0412,6.0261,5.996,5.9935,5.9809,5.9508,5.9784,5.9784,5.9483,5.9483,5.9483,5.9483,5.9483,5.9659,5.9935,5.9935,5.9935,5.996,6.0261,6.0236,5.996,6.0286,6.038,6.0422,6.0172,5.989,5.9603,5.9355,5.9003,5.8521,5.8364,5.7971,5.7576,5.7418,5.718,5.7021,5.7021,5.7021,5.7021,5.7259,5.7418,5.7576,5.7576,5.7576,5.7649,5.7653,5.8249,5.8901,5.9003,5.9618,6.0171,6.0171,6.0171,6.0412,6.1157,6.0652,6.0436,6.1181,6.0652,6.0171,6.0171,6.0171,6.0171,6.0171,6.0436,6.0604,6.0604,6.1109,6.1422,6.1422,6.1662,6.1927,6.2215,6.2215,6.2191,6.2167,6.2167,6.1758,6.0917,6.0917,6.135,6.2167,6.2167,6.26,6.3346,6.3346,6.349,6.3754,6.4572,6.5053,6.5366,6.6183,6.6496,6.6496,6.6496,6.6496,6.6496,4.8848,4.9216,4.942,4.942,5.1005,5.1799,5.0225,5.2834,5.5268,5.5705,5.7778,5.9859,6.1787,6.212,6.2114,6.2033,6.1738,6.1567,6.1567,6.1567,6.124,6.0563,6.0512,6.0311,5.9885,6.0311,6.0311,5.9885,5.9885,5.9885,5.9885,5.9885,6.0111,6.0512,6.0512,6.0588,6.0738,6.119,6.119,6.0939,6.1311,6.1246,6.0875,6.067,5.9977,5.9269,5.9146,5.8753,5.831,5.8129,5.7892,5.7552,5.7497,5.7259,5.7021,5.7021,5.7021,5.7021,5.7021,5.7117,5.7213,5.7213,5.7285,5.7381,5.7381,5.8103,5.8776,5.8776,5.9522,6.0171,6.0171,6.0171,6.0291,6.0676,6.0412,6.0315,6.0676,6.0412,6.0171,6.0171,6.0171,6.0219,6.0339,6.0724,6.1013,6.1157,6.1662,6.1975,6.1975,6.2095,6.2336,6.2744,6.2768,6.2456,6.1807,6.1807,6.1253,6.0171,6.0171,6.0748,6.1807,6.1807,6.236,6.3346,6.3346,6.3418,6.3586,6.4524,6.4981,6.5197,6.6135,6.6496,6.6496,6.6496,6.6496,6.6496,4.8769,4.894,4.894,4.894,4.94,4.9676,4.9144,5.1075,5.2855,5.328,5.6509,5.8955,5.957,6.1515,6.2609,6.2199,6.2477,6.2697,6.2697,6.2697,6.2245,6.1165,6.1115,6.109,6.1065,6.109,6.109,6.1065,6.1065,6.1065,6.1065,6.1065,6.109,6.1115,6.1115,6.1391,6.1893,6.1918,6.222,6.2565,6.2288,6.2124,6.1993,6.1006,6.0326,5.9785,5.9294,5.8753,5.8232,5.7813,5.7655,5.7552,5.718,5.7021,5.7021,5.7021,5.7021,5.7021,5.7021,5.7381,5.7742,5.7742,5.8127,5.8488,5.8488,5.8921,5.9329,5.9329,5.9786,6.0171,6.0171,6.0171,6.0676,6.2167,6.1157,6.07,6.2191,6.1109,6.0171,6.0171,6.0171,6.0364,6.0869,6.0941,6.1181,6.171,6.2239,6.2528,6.2528,6.2985,6.3249,6.3274,6.3298,6.2817,6.1807,6.1807,6.1253,6.0171,6.0171,6.0748,6.1807,6.1807,6.236,6.3346,6.3346,6.361,6.4115,6.4668,6.5197,6.5702,6.628,6.6496,6.6496,6.6496,6.6496,6.6589,4.8828,4.8867,4.8867,4.8867,4.9052,4.9144,4.894,4.9656,5.0803,5.2476,5.3881,5.5879,5.87,5.9967,6.1076,6.2084,6.2577,6.2822,6.2822,6.2822,6.2496,6.1718,6.1692,6.1542,6.119,6.1517,6.1517,6.119,6.119,6.119,6.119,6.119,6.1366,6.1612,6.0489,6.089,6.244,6.1327,6.1614,6.2741,6.2331,6.2002,6.1705,6.1343,6.0482,5.9455,5.9284,5.8649,5.7813,5.7339,5.7259,5.718,5.7021,5.7237,5.7574,5.7911,5.7766,5.7574,5.7911,5.7911,5.7886,5.8223,5.844,5.8608,5.8608,5.9017,5.9378,5.9378,5.981,6.0171,6.0171,6.0171,6.0388,6.0989,6.058,6.0388,6.1013,6.0556,6.0171,6.0171,6.0171,6.0388,6.0917,6.1277,6.171,6.2239,6.2768,6.3057,6.3057,6.2937,6.3009,6.3322,6.3033,6.2528,6.1807,6.1807,6.1253,6.0171,6.0508,6.1061,6.1807,6.2143,6.2672,6.3346,6.3346,6.3442,6.3706,6.4572,6.5029,6.5294,6.6159,6.6496,6.6496,6.6496,6.6496,6.6496,4.8808,4.8867,4.8867,4.8867,4.8867,4.8867,4.8867,4.8867,4.9564,5.1326,5.2027,5.3526,5.6422,5.7606,5.8738,5.9907,6.0935,6.154,6.168,6.2388,6.2647,6.227,6.227,6.2094,6.1718,6.2069,6.2069,6.1692,6.1104,6.0862,6.0862,6.0862,6.071,6.0456,5.9771,6.0071,6.1018,6.035,6.0768,6.1705,6.1919,6.1672,6.1233,6.115,6.034,5.9258,5.934,5.8677,5.7902,5.7606,5.7526,5.7526,5.7526,5.7766,5.8127,5.8488,5.8343,5.8175,5.8704,5.8584,5.8392,5.8752,5.8969,5.9089,5.9089,5.9378,5.9642,5.9642,5.9931,6.0171,6.0171,6.0171,6.0171,6.0171,6.0171,6.0171,6.0171,6.0171,6.0171,6.0171,6.0171,6.046,6.1157,6.1566,6.2095,6.2768,6.3153,6.3346,6.3346,6.2552,6.2384,6.3081,6.26,6.2071,6.1542,6.171,6.1253,6.0171,6.07,6.1253,6.1807,6.2336,6.2865,6.3346,6.3346,6.3346,6.3418,6.4476,6.4909,6.5029,6.6087,6.6496,6.6496,6.6496,6.6496,6.6496,4.8691,4.8867,4.8867,4.8867,4.8867,4.8867,4.8867,4.8867,4.9032,4.9512,5.1256,5.2387,5.2429,5.4499,5.5705,5.5268,5.7309,5.8847,5.9222,6.1432,6.2741,6.2741,6.2741,6.2822,6.2822,6.2822,6.2822,6.2822,6.0935,6.0099,6.0099,6.0075,5.904,5.7395,5.9209,5.904,5.7395,5.9293,5.9823,5.9486,6.09,6.1174,6.0757,6.0339,5.9834,5.9378,5.9378,5.9041,5.8608,5.8608,5.8608,5.8608,5.8608,5.8608,5.8608,5.8608,5.8608,5.8704,5.9257,5.9402,5.9402,5.9402,5.9786,6.0171,6.0171,6.0171,6.0171,6.0171,6.0171,6.0171,6.0171,6.0171,6.0171,6.0171,6.0171,6.0171,6.0171,6.0171,6.0171,6.0171,6.0171,6.0604,6.1686,6.1807,6.2239,6.3249,6.3346,6.3322,6.3322,6.1831,6.147,6.2552,6.2071,6.1518,6.0965,6.1518,6.1253,6.0195,6.0724,6.1253,6.1831,6.236,6.2865,6.3346,6.3346,6.3346,6.3418,6.4476,6.4909,6.5029,6.6087,6.6496,6.6496,6.6496,6.6496,6.6589,4.8808,4.8867,4.8867,4.8867,4.8867,4.8867,4.8867,4.8867,4.894,4.9144,4.9564,5.0459,5.1778,5.2813,5.3948,5.5115,5.614,5.6919,5.7349,5.8337,5.8955,5.8955,6.1457,6.2822,6.2822,6.154,6.154,6.2822,5.9655,5.8785,6.0075,5.8785,5.7847,5.7223,5.6554,5.6445,5.6855,5.7395,5.8081,5.904,6.0458,6.0924,6.0757,6.0674,6.0251,5.9791,5.9791,5.9452,5.8992,5.869,5.8608,5.8656,5.9041,5.8897,5.8752,5.9498,5.945,5.9257,5.9786,5.9931,5.9931,5.9931,6.0051,6.0171,6.0171,6.0171,6.0171,6.0171,5.9883,5.9738,6.0099,5.9883,5.9738,6.0123,6.0171,6.0171,6.0171,6.0171,6.0171,6.0171,6.0508,6.1013,6.1734,6.2143,6.2624,6.3298,6.3009,6.2817,6.2817,6.1638,6.1301,6.2023,6.1494,6.1326,6.1542,6.171,6.1446,6.0724,6.1277,6.1831,6.236,6.2889,6.3201,6.3346,6.3346,6.3538,6.3947,6.462,6.5125,6.5534,6.6232,6.6496,6.6496,6.6496,6.6496,6.6496,4.8828,4.8867,4.8867,4.8867,4.8867,4.8867,4.8867,4.8867,4.8867,4.8867,4.8867,4.9308,5.0459,5.0894,5.1507,5.2655,5.3771,5.4917,5.5966,5.6509,5.6855,5.7028,5.9185,6.041,6.0577,5.957,5.9547,6.0577,5.7676,5.6814,5.7933,5.6728,5.5859,5.5071,5.4565,5.4366,5.4521,5.5749,5.6705,5.759,5.9871,6.0674,6.059,6.059,6.0397,6.0023,5.9225,5.92,5.9457,5.8439,5.8688,5.9529,5.9677,5.9557,5.9602,6.0062,5.9955,5.9762,6.0075,6.0171,6.0171,6.0171,6.0171,6.0171,6.0171,6.0171,6.0171,6.0171,5.9931,5.9786,6.0123,5.9907,5.981,6.0123,6.0171,6.0171,6.0171,6.0171,6.0171,6.0171,6.0628,6.1181,6.1758,6.2095,6.248,6.3009,6.2552,6.236,6.2576,6.135,6.0893,6.1446,6.1133,6.1133,6.147,6.1686,6.1638,6.1301,6.1855,6.2287,6.26,6.3105,6.3346,6.3346,6.3346,6.3634,6.4163,6.4692,6.5221,6.5751,6.628,6.6496,6.6496,6.6496,6.6496,6.6496,4.8789,4.8867,4.8867,4.8867,4.8867,4.8867,4.8867,4.8867,4.8867,4.8867,4.8867,4.8867,4.8867,4.8867,4.8867,4.8867,5.0894,5.2902,5.4587,5.5115,5.5617,5.6053,5.6053,5.6249,5.6705,5.6878,5.705,5.7309,5.5269,5.441,5.4587,5.441,5.3455,5.1791,5.3055,5.2608,5.1136,5.4278,5.5334,5.5269,5.8832,6.0063,5.9726,5.9726,5.9726,5.9473,5.7785,5.8236,5.9558,5.7979,5.8832,6.0482,6.0339,6.0507,6.0757,6.0423,6.0339,6.0339,6.0339,6.0339,6.0339,6.0255,6.0255,6.0255,6.0171,6.0171,6.0171,6.0171,6.0099,6.0051,6.0099,6.0075,6.0051,6.0099,6.0147,6.0171,6.0171,6.0171,6.0195,6.0243,6.0724,6.1229,6.1758,6.1807,6.2047,6.26,6.2071,6.1951,6.248,6.1037,6.0388,6.0869,6.0893,6.0941,6.1037,6.1542,6.1831,6.1879,6.236,6.26,6.2672,6.3129,6.3346,6.3346,6.3394,6.3706,6.4235,6.4765,6.5294,6.5823,6.6304,6.6496,6.6496,6.6496,6.6496,6.6496,4.8848,4.8867,4.8867,4.8867,4.8867,4.8867,4.8867,4.8867,4.8867,4.8867,4.8867,4.8867,4.8867,4.8867,4.8867,4.8867,4.9676,5.0388,5.0823,5.1277,5.1729,5.227,5.191,5.191,5.245,5.3835,5.5465,5.7309,5.3679,5.2829,5.4587,5.3098,5.1951,5.1248,5.159,5.1046,5.0042,5.2249,5.2945,5.2655,5.4939,5.5814,5.5749,5.5749,5.5749,5.564,5.529,5.5684,5.649,5.755,5.8236,5.8894,6.0231,6.0983,6.1316,6.1257,6.1199,6.1199,6.1233,6.1257,6.1091,6.0757,6.0674,6.059,6.0255,6.0171,6.0171,6.0171,5.9522,5.9065,5.9474,5.9209,5.9065,5.9498,5.9907,6.0171,6.0171,6.0171,6.0315,6.0748,6.1277,6.1662,6.1782,6.1807,6.2191,6.3105,6.1903,6.1374,6.1951,6.082,6.0219,6.0339,6.0339,6.0748,6.1614,6.1734,6.1999,6.2408,6.2528,6.2793,6.3177,6.3298,6.3346,6.337,6.3779,6.426,6.4789,6.5318,6.5847,6.6328,6.6448,6.6496,6.6496,6.6496,6.6496,6.6496,4.8867,4.8867,4.8867,4.8867,4.8867,4.8867,4.8867,4.8867,4.8867,4.8867,4.8867,4.8867,4.8867,4.8867,4.8867,4.8867,4.9124,4.9236,4.9236,4.9512,4.9879,5.0337,5.0154,5.0245,5.0702,5.1458,5.2587,5.4366,5.2201,5.1771,5.2898,5.168,5.0975,5.0702,5.0519,5.0062,4.9676,5.1347,5.1958,5.1868,5.3703,5.4499,5.4499,5.4499,5.4697,5.4697,5.3547,5.3458,5.419,5.6339,5.7182,5.7504,5.8236,5.8832,5.9148,5.8917,5.8856,5.9026,5.9955,6.0123,6.0315,6.065,6.0841,6.0674,6.0255,6.0171,6.0099,5.9859,5.9353,5.9065,5.9329,5.9161,5.9161,5.9666,6.0003,6.0171,6.0171,6.0171,6.0267,6.0556,6.1061,6.1398,6.1398,6.1879,6.2191,6.2215,6.1686,6.1374,6.1398,6.0628,6.0171,6.0171,6.0412,6.0941,6.1782,6.2047,6.2432,6.2937,6.2937,6.3081,6.3346,6.3346,6.3346,6.337,6.3899,6.4428,6.4957,6.5486,6.6015,6.6496,6.6496,6.6496,6.6496,6.6496,6.6496,6.6496,4.8867,4.8867,4.8867,4.8867,4.8867,4.8867,4.8867,4.8867,4.8867,4.8867,4.8867,4.8867,4.8867,4.8867,4.8867,4.8867,4.8867,4.8867,4.8867,4.8867,4.9144,4.9604,4.9512,4.9696,5.0154,4.9787,5.0062,5.0975,5.0884,5.0884,5.0975,5.0519,5.0245,5.0154,4.9787,4.9604,4.9584,5.0732,5.1236,5.1326,5.2924,5.3526,5.3526,5.3526,5.3814,5.3924,5.2048,5.1618,5.2429,5.4851,5.5881,5.6098,5.6078,5.6404,5.6641,5.6339,5.6252,5.6513,5.8065,5.8469,5.8747,5.9702,6.0231,6.0315,5.9811,6.0003,6.0027,5.9498,5.9378,5.9353,5.9257,5.9329,5.9522,5.9979,6.0123,6.0171,6.0171,6.0171,6.0195,6.0291,6.07,6.1013,6.1109,6.1662,6.1782,6.1157,6.1277,6.1253,6.0965,6.046,6.0171,6.0171,6.0676,6.1229,6.1782,6.2312,6.2841,6.3346,6.3346,6.3346,6.3346,6.3346,6.3346,6.337,6.3995,6.4524,6.4957,6.5582,6.6087,6.6496,6.6496,6.6496,6.6496,6.6496,6.6496,6.6496,4.8867,4.8867,4.8867,4.8867,4.8867,4.8867,4.8867,4.8867,4.8867,4.8867,4.8867,4.8867,4.8867,4.8867,4.8867,4.8867,4.8867,4.8867,4.8867,4.8867,4.9144,4.9604,4.9236,4.9236,4.9696,4.9604,4.9879,5.0428,4.9971,4.9971,5.0428,5.0337,5.0062,4.9696,4.9604,4.942,4.9052,4.9216,4.9308,4.9308,4.9564,4.9656,4.9656,4.9656,4.9656,4.9748,4.9859,5.0225,5.0955,5.3344,5.4211,5.4433,5.6011,5.6791,5.7223,5.716,5.716,5.716,5.7418,5.7504,5.7309,5.6728,5.7785,5.8747,5.7956,5.9026,6.0027,5.9498,5.9378,5.9257,5.8776,5.9089,5.9402,5.9474,5.9883,6.0171,6.0171,6.0171,6.0339,6.0796,6.0917,6.1157,6.1638,6.0556,6.0339,6.159,6.046,6.0075,6.0917,6.046,6.0171,6.0171,6.0676,6.1229,6.1782,6.2312,6.2841,6.3346,6.3346,6.3346,6.3346,6.3346,6.3346,6.3394,6.438,6.4861,6.5005,6.5991,6.6424,6.6496,6.6496,6.6496,6.6496,6.6496,6.6496,6.6496,4.8867,4.8867,4.8867,4.8867,4.8867,4.8867,4.8867,4.8867,4.8867,4.8867,4.8867,4.8867,4.8867,4.8867,4.8867,4.8867,4.8867,4.8867,4.8867,4.8867,4.8959,4.9236,4.9052,4.9032,4.9236,4.9236,4.9328,4.9512,4.9604,4.9696,4.9879,4.9604,4.942,4.9236,4.9236,4.9144,4.8867,4.8867,4.8867,4.8867,4.8867,4.8867,4.8867,4.8867,4.9052,4.9328,4.9787,5.0154,5.0519,5.1861,5.2291,5.245,5.359,5.4034,5.4211,5.4211,5.4211,5.4477,5.5509,5.5772,5.5859,5.6207,5.6728,5.6987,5.6404,5.7234,5.8351,5.8876,5.8945,5.8872,5.8632,5.9041,5.9474,5.9786,6.0027,6.0171,6.0171,6.0171,6.0267,6.0484,6.0532,6.0628,6.0869,6.0243,6.0123,6.0845,6.0243,6.0027,6.0508,6.0291,6.0315,6.0604,6.1157,6.1686,6.2239,6.2744,6.3129,6.3346,6.3346,6.3346,6.3346,6.3346,6.3346,6.337,6.4139,6.4476,6.4524,6.5294,6.5775,6.6039,6.6039,6.6232,6.6496,6.6496,6.6496,6.652]}]]